ftp/pub/palmer/observations_modified/2020/September/AR200904_BASE.txt

Download

Sample DateTime	Unit Id	WS Avg 2min	WD Avg 2min	WGS 10min	WGD 10min	Air Temp	Rel Humidity	Dew Point	Pyranometer	Quantum	Air Pressure	Snow Level	Rainfall	PW Current	Visibility	CBase 1	CBase 2	CBase 3	Vert Vis
2020/09/04 00:00:00	BASE	3.05	310	3.76	320	-8.8	81	-11.5	0	0	1011.1	NA	0.0000		9999	2030	0	0	0
2020/09/04 00:01:00	BASE	3.23	306	3.76	320	-8.8	81	-11.5	0	0	1011.1	NA	0.0000		9999	2030	0	0	0
2020/09/04 00:02:00	BASE	3.33	314	3.81	322	-8.8	81	-11.5	0	0	1011.1	NA	0.0000		9999	2000	0	0	0
2020/09/04 00:03:00	BASE	3.58	320	4.32	322	-8.8	80	-11.6	0	0	1011.1	NA	0.0000		9999	1870	0	0	0
2020/09/04 00:04:00	BASE	3.82	320	4.32	322	-8.8	80	-11.6	0	0	1011.1	NA	0.0000		9999	1940	0	0	0
2020/09/04 00:05:00	BASE	3.86	313	4.32	322	-8.8	80	-11.6	0	0	1011.1	NA	0.0000		9999	1940	0	0	0
2020/09/04 00:06:00	BASE	3.92	306	4.32	322	-8.8	80	-11.6	0	0	1011.1	NA	0.0000		9999	1840	0	0	0
2020/09/04 00:07:00	BASE	3.71	304	4.32	322	-8.8	80	-11.6	0	0	1011.1	NA	0.0000		9999	1840	0	0	0
2020/09/04 00:08:00	BASE	3.40	303	4.32	322	-8.8	80	-11.6	0	0	1011.1	NA	0.0000		9999	1800	0	0	0
2020/09/04 00:09:00	BASE	3.36	299	4.32	322	-8.8	80	-11.7	0	0	1011.1	NA	0.0000		9999	1870	0	0	0
2020/09/04 00:10:00	BASE	3.43	295	4.32	322	-8.8	80	-11.7	0	0	1011.1	NA	0.0000		9999	1840	0	0	0
2020/09/04 00:11:00	BASE	3.37	299	4.32	322	-8.8	80	-11.7	0	0	1011.1	NA	0.0000		9999	1840	0	0	0
2020/09/04 00:12:00	BASE	3.52	302	4.32	322	-8.8	80	-11.7	0	0	1011.1	NA	0.0000		9999	1840	0	0	0
2020/09/04 00:13:00	BASE	3.67	300	4.27	299	-8.8	80	-11.6	0	0	1011.1	NA	0.0000		9999	1710	0	0	0
2020/09/04 00:14:00	BASE	3.48	299	4.27	299	-8.8	80	-11.7	0	0	1011.1	NA	0.0000		9999	1840	0	0	0
2020/09/04 00:15:00	BASE	3.26	298	4.01	297	-8.8	80	-11.7	0	0	1011.1	NA	0.0000		9999	1870	0	0	0
2020/09/04 00:16:00	BASE	2.97	299	4.01	297	-8.8	80	-11.7	0	0	1011.1	NA	0.0000		9999	1800	0	0	0
2020/09/04 00:17:00	BASE	2.82	298	4.01	297	-8.8	80	-11.7	0	0	1011.1	NA	0.0000		9999	1800	0	0	0
2020/09/04 00:18:00	BASE	3.11	292	4.01	297	-8.8	80	-11.7	0	0	1011.1	NA	0.0000		9999	1800	0	0	0
2020/09/04 00:19:00	BASE	3.25	292	4.01	297	-8.8	79	-11.7	0	0	1011.1	NA	0.0000		9999	1800	0	0	0
2020/09/04 00:20:00	BASE	3.01	294	4.01	297	-8.8	79	-11.8	0	0	1011.2	NA	0.0000		9999	1610	0	0	0
2020/09/04 00:21:00	BASE	2.76	294	4.01	297	-8.8	79	-11.8	0	0	1011.3	NA	0.0000		9999	1410	0	0	0
2020/09/04 00:22:00	BASE	2.83	292	4.01	297	-8.8	79	-11.8	0	0	1011.3	NA	0.0000		9999	1800	0	0	0
2020/09/04 00:23:00	BASE	3.15	291	3.65	282	-8.8	79	-11.8	0	0	1011.3	NA	0.0000		9999	1800	0	0	0
2020/09/04 00:24:00	BASE	3.22	292	3.65	282	-8.8	79	-11.8	0	0	1011.3	NA	0.0000		9999	1740	0	0	0
2020/09/04 00:25:00	BASE	3.15	294	3.65	282	-8.8	79	-11.8	0	0	1011.3	NA	0.0000		9999	1800	0	0	0
2020/09/04 00:26:00	BASE	3.43	295	3.96	297	-8.8	79	-11.8	0	0	1011.3	NA	0.0000		9999	1770	0	0	0
2020/09/04 00:27:00	BASE	3.80	295	4.17	293	-8.8	79	-11.8	0	0	1011.3	NA	0.0000		9999	1800	0	0	0
2020/09/04 00:28:00	BASE	3.98	294	4.32	294	-8.8	79	-11.8	0	0	1011.3	NA	0.0000		9999	1770	0	0	0
2020/09/04 00:29:00	BASE	3.81	296	4.32	294	-8.8	79	-11.8	0	0	1011.3	NA	0.0000		9999	1840	0	0	0
2020/09/04 00:30:00	BASE	3.55	300	4.32	294	-8.9	79	-11.8	0	0	1011.3	NA	0.0000		9999	1710	0	0	0
2020/09/04 00:31:00	BASE	3.60	303	4.32	294	-8.9	79	-11.8	0	0	1011.3	NA	0.0000		9999	1670	0	0	0
2020/09/04 00:32:00	BASE	3.71	305	4.32	294	-8.9	79	-11.8	0	0	1011.3	NA	0.0000		9999	1570	0	0	0
2020/09/04 00:33:00	BASE	3.69	304	4.32	294	-8.8	79	-11.8	0	0	1011.3	NA	0.0000		9999	1800	0	0	0
2020/09/04 00:34:00	BASE	3.83	301	4.32	294	-8.8	79	-11.8	0	0	1011.3	NA	0.0000		9999	1670	0	0	0
2020/09/04 00:35:00	BASE	3.82	299	4.32	294	-8.8	80	-11.7	0	0	1011.3	NA	0.0000		9999	1800	0	0	0
2020/09/04 00:36:00	BASE	3.83	299	4.42	304	-8.8	80	-11.7	0	0	1011.3	NA	0.0000		9999	1800	0	0	0
2020/09/04 00:37:00	BASE	3.96	300	4.42	304	-8.8	80	-11.6	0	0	1011.3	NA	0.0000		9999	1870	0	0	0
2020/09/04 00:38:00	BASE	3.72	299	4.42	304	-8.8	80	-11.7	0	0	1011.2	NA	0.0000		9999	1800	0	0	0
2020/09/04 00:39:00	BASE	3.85	305	4.48	310	-8.9	80	-11.7	0	0	1011.2	NA	0.0000		9999	1800	0	0	0
2020/09/04 00:40:00	BASE	4.11	311	4.48	310	-8.9	80	-11.7	0	0	1011.1	NA	0.0000		9999	1770	0	0	0
2020/09/04 00:41:00	BASE	4.09	310	4.48	310	-8.9	80	-11.7	0	0	1011.1	NA	0.0000		9999	1770	0	0	0
2020/09/04 00:42:00	BASE	3.86	305	4.48	310	-8.9	80	-11.7	0	0	1011.1	NA	0.0000		9999	1740	0	0	0
2020/09/04 00:43:00	BASE	3.60	298	4.48	310	-8.8	80	-11.7	0	0	1011.1	NA	0.0000		9999	1740	0	0	0
2020/09/04 00:44:00	BASE	3.42	296	4.48	310	-8.8	80	-11.6	0	0	1011.2	NA	0.0000		9999	1770	0	0	0
2020/09/04 00:45:00	BASE	3.35	295	4.48	310	-8.8	80	-11.6	0	0	1011.3	NA	0.0000		9999	1740	0	0	0
2020/09/04 00:46:00	BASE	3.43	291	4.48	310	-8.8	80	-11.6	0	0	1011.3	NA	0.0000		9999	1710	0	0	0
2020/09/04 00:47:00	BASE	3.64	291	4.48	310	-8.8	80	-11.7	0	0	1011.3	NA	0.0000		9999	1710	0	0	0
2020/09/04 00:48:00	BASE	3.69	292	4.48	310	-8.9	80	-11.7	0	0	1011.4	NA	0.0000		9999	1710	0	0	0
2020/09/04 00:49:00	BASE	3.20	292	4.32	299	-8.9	80	-11.7	0	0	1011.4	NA	0.0000		9999	1710	0	0	0
2020/09/04 00:50:00	BASE	2.97	291	4.32	299	-8.9	80	-11.7	0	0	1011.4	NA	0.0000		9999	1670	0	0	0
2020/09/04 00:51:00	BASE	3.12	292	4.12	289	-8.9	80	-11.7	0	0	1011.4	NA	0.0000		9999	1640	0	0	0
2020/09/04 00:52:00	BASE	3.02	294	4.12	289	-8.9	80	-11.7	0	0	1011.4	NA	0.0000		9999	1610	0	0	0
2020/09/04 00:53:00	BASE	3.20	297	4.12	293	-8.9	80	-11.7	0	0	1011.4	NA	0.0000		9999	1610	0	0	0
2020/09/04 00:54:00	BASE	3.60	300	4.12	293	-8.9	80	-11.7	0	0	1011.4	NA	0.0000		9999	1640	0	0	0
2020/09/04 00:55:00	BASE	3.52	302	4.12	293	-8.9	80	-11.7	0	0	1011.3	NA	0.0000		9999	1640	0	0	0
2020/09/04 00:56:00	BASE	3.47	301	4.12	293	-8.9	80	-11.7	0	0	1011.3	NA	0.0000		9999	1740	0	0	0
2020/09/04 00:57:00	BASE	3.55	299	4.12	293	-8.9	80	-11.7	0	0	1011.3	NA	0.0000		9999	1640	0	0	0
2020/09/04 00:58:00	BASE	3.46	297	4.12	293	-8.9	80	-11.7	0	0	1011.3	NA	0.0000		9999	1670	0	0	0
2020/09/04 00:59:00	BASE	3.46	296	4.12	293	-8.9	80	-11.7	0	0	1011.4	NA	0.0000		9999	1640	0	0	0
2020/09/04 01:00:00	BASE	3.72	293	4.27	301	-8.9	80	-11.7	0	0	1011.4	NA	0.0000		9999	1710	0	0	0
2020/09/04 01:01:00	BASE	3.74	293	4.27	301	-8.9	80	-11.7	0	0	1011.4	NA	0.0000		9999	1670	0	0	0
2020/09/04 01:02:00	BASE	3.75	292	4.48	297	-8.9	80	-11.7	0	0	1011.4	NA	0.0000		9999	1640	0	0	0
2020/09/04 01:03:00	BASE	3.77	292	4.48	297	-8.9	80	-11.7	0	0	1011.5	NA	0.0000		9999	1610	0	0	0
2020/09/04 01:04:00	BASE	3.64	292	4.48	297	-8.9	80	-11.7	0	0	1011.5	NA	0.0000		9999	1740	0	0	0
2020/09/04 01:05:00	BASE	3.59	291	4.48	297	-8.9	80	-11.7	0	0	1011.5	NA	0.0000		9999	1840	0	0	0
2020/09/04 01:06:00	BASE	3.74	290	4.48	297	-8.9	80	-11.7	0	0	1011.5	NA	0.0000		9999	1740	0	0	0
2020/09/04 01:07:00	BASE	3.95	292	4.48	297	-8.9	80	-11.7	0	0	1011.4	NA	0.0000		9999	1740	0	0	0
2020/09/04 01:08:00	BASE	3.99	297	4.48	297	-8.9	80	-11.7	0	0	1011.4	NA	0.0000		9999	1770	0	0	0
2020/09/04 01:09:00	BASE	3.82	302	4.48	297	-8.9	80	-11.7	0	0	1011.4	NA	0.0000		9999	1510	0	0	0
2020/09/04 01:10:00	BASE	3.67	302	4.48	297	-8.9	80	-11.7	0	0	1011.5	NA	0.0000		9999	1640	0	0	0
2020/09/04 01:11:00	BASE	3.85	298	4.48	297	-8.9	80	-11.7	0	0	1011.5	NA	0.0000		9999	1540	0	0	0
2020/09/04 01:12:00	BASE	3.87	299	4.42	295	-8.9	81	-11.6	0	0	1011.5	NA	0.0000		9999	1540	0	0	0
2020/09/04 01:13:00	BASE	3.79	301	4.42	295	-8.9	81	-11.6	0	0	1011.5	NA	0.0000		9999	1710	0	0	0
2020/09/04 01:14:00	BASE	3.87	300	4.42	295	-8.9	81	-11.6	0	0	1011.5	NA	0.0000		9999	1710	0	0	0
2020/09/04 01:15:00	BASE	3.71	298	4.42	295	-8.9	81	-11.6	0	0	1011.4	NA	0.0000		9999	1670	0	0	0
2020/09/04 01:16:00	BASE	3.42	296	4.42	295	-8.9	81	-11.6	0	0	1011.4	NA	0.0000		9999	1670	0	0	0
2020/09/04 01:17:00	BASE	3.38	295	4.17	297	-8.9	81	-11.6	0	0	1011.4	NA	0.0000		9999	1670	0	0	0
2020/09/04 01:18:00	BASE	3.35	291	4.17	297	-8.9	81	-11.6	0	0	1011.4	NA	0.0000		9999	1310	0	0	0
2020/09/04 01:19:00	BASE	3.18	287	4.17	297	-8.9	81	-11.6	0	0	1011.5	NA	0.0000		9999	1640	0	0	0
2020/09/04 01:20:00	BASE	3.40	289	4.17	297	-8.9	81	-11.6	0	0	1011.4	NA	0.0000		9999	1570	0	0	0
2020/09/04 01:21:00	BASE	3.53	292	4.17	297	-8.9	81	-11.6	0	0	1011.4	NA	0.0000		9999	1570	0	0	0
2020/09/04 01:22:00	BASE	3.30	296	4.17	297	-8.9	81	-11.5	0	0	1011.5	NA	0.0000		9999	1570	0	0	0
2020/09/04 01:23:00	BASE	3.44	298	4.32	298	-8.9	81	-11.5	0	0	1011.5	NA	0.0000		9999	1640	0	0	0
2020/09/04 01:24:00	BASE	3.58	297	4.32	298	-8.9	81	-11.5	0	0	1011.5	NA	0.0000		9999	1670	0	0	0
2020/09/04 01:25:00	BASE	3.60	300	4.32	298	-8.9	81	-11.6	0	0	1011.5	NA	0.0000		9999	1570	0	0	0
2020/09/04 01:26:00	BASE	3.71	301	4.32	298	-8.9	81	-11.6	0	0	1011.5	NA	0.0000		9999	1540	0	0	0
2020/09/04 01:27:00	BASE	3.60	292	4.32	298	-8.9	81	-11.6	0	0	1011.5	NA	0.0000		9999	1570	0	0	0
2020/09/04 01:28:00	BASE	3.36	286	4.32	298	-8.9	81	-11.6	0	0	1011.5	NA	0.0000		9999	1610	0	0	0
2020/09/04 01:29:00	BASE	3.08	284	4.32	298	-8.9	81	-11.6	0	0	1011.5	NA	0.0000		9999	1510	0	0	0
2020/09/04 01:30:00	BASE	2.95	271	4.32	298	-8.9	81	-11.5	0	0	1011.5	NA	0.0000		9999	1540	0	0	0
2020/09/04 01:31:00	BASE	3.01	260	4.32	298	-8.8	81	-11.5	0	0	1011.5	NA	0.0000		9999	1570	0	0	0
2020/09/04 01:32:00	BASE	2.95	261	4.32	298	-8.8	81	-11.5	0	0	1011.5	NA	0.0000		9999	950	0	0	0
2020/09/04 01:33:00	BASE	2.62	266	4.22	304	-8.8	81	-11.4	0	0	1011.5	NA	0.0000		9999	1570	0	0	0
2020/09/04 01:34:00	BASE	2.33	275	4.22	304	-8.8	82	-11.3	0	0	1011.5	NA	0.0000		9999	1480	0	0	0
2020/09/04 01:35:00	BASE	2.42	282	4.12	304	-8.7	82	-11.3	0	0	1011.4	NA	0.0000		9999	790	0	0	0
2020/09/04 01:36:00	BASE	2.72	286	3.81	294	-8.7	82	-11.2	0	0	1011.4	NA	0.0000		9999	1410	0	0	0
2020/09/04 01:37:00	BASE	2.56	281	3.55	256	-8.7	82	-11.2	0	0	1011.4	NA	0.0000		9999	1410	0	0	0
2020/09/04 01:38:00	BASE	2.02	274	3.55	256	-8.7	82	-11.2	0	0	1011.4	NA	0.0000		9999	1410	0	0	0
2020/09/04 01:39:00	BASE	2.00	267	3.55	256	-8.7	82	-11.2	0	0	1011.4	NA	0.0000		9999	1410	0	0	0
2020/09/04 01:40:00	BASE	2.27	260	3.55	256	-8.7	82	-11.2	0	0	1011.4	NA	0.0000		9999	750	0	0	0
2020/09/04 01:41:00	BASE	2.15	262	3.34	252	-8.7	82	-11.2	0	0	1011.4	NA	0.0000		9999	430	0	0	0
2020/09/04 01:42:00	BASE	2.39	258	3.76	249	-8.7	82	-11.2	0	0	1011.4	NA	0.0000		9999	590	1570	0	0
2020/09/04 01:43:00	BASE	3.00	253	3.76	249	-8.7	82	-11.3	0	0	1011.4	NA	0.0000		9999	390	1480	0	0
2020/09/04 01:44:00	BASE	3.21	256	3.76	249	-8.8	82	-11.3	0	0	1011.4	NA	0.0000		9999	890	1610	0	0
2020/09/04 01:45:00	BASE	3.09	258	3.76	249	-8.8	82	-11.3	0	0	1011.4	NA	0.0000	-SN	9999	1020	0	0	0
2020/09/04 01:46:00	BASE	2.82	258	3.76	249	-8.8	82	-11.3	0	0	1011.4	NA	0.0000	-SN	9999	1350	0	0	0
2020/09/04 01:47:00	BASE	2.96	251	3.81	231	-8.8	82	-11.3	0	0	1011.4	NA	0.0000	-SN	9999	620	0	0	0
2020/09/04 01:48:00	BASE	3.28	245	4.01	247	-8.7	82	-11.3	0	0	1011.4	NA	0.0000	-SN	9999	620	0	0	0
2020/09/04 01:49:00	BASE	3.44	248	4.01	242	-8.7	82	-11.3	0	0	1011.4	NA	0.0000	-SN	9999	1310	0	0	0
2020/09/04 01:50:00	BASE	3.48	246	4.01	242	-8.7	82	-11.2	0	0	1011.4	NA	0.0000	-SN	9999	1280	0	0	0
2020/09/04 01:51:00	BASE	3.31	241	4.01	242	-8.8	82	-11.2	0	0	1011.4	NA	0.0000	-SN	9999	1670	0	0	0
2020/09/04 01:52:00	BASE	3.28	236	4.01	242	-8.8	83	-11.2	0	0	1011.4	NA	0.0000	-SN	9999	1510	0	0	0
2020/09/04 01:53:00	BASE	3.17	238	4.01	242	-8.8	83	-11.2	0	0	1011.4	NA	0.0000	-SN	9999	1540	0	0	0
2020/09/04 01:54:00	BASE	3.14	242	4.01	242	-8.8	83	-11.2	0	0	1011.4	NA	0.0000	-SN	9999	950	0	0	0
2020/09/04 01:55:00	BASE	3.41	236	4.01	242	-8.8	83	-11.2	0	0	1011.4	NA	0.0000		9999	820	0	0	0
2020/09/04 01:56:00	BASE	3.34	234	4.01	242	-8.8	83	-11.2	0	0	1011.3	NA	0.0000		9999	1440	0	0	0
2020/09/04 01:57:00	BASE	2.87	241	4.01	242	-8.8	83	-11.2	0	0	1011.3	NA	0.0000		9999	1480	0	0	0
2020/09/04 01:58:00	BASE	2.94	241	4.01	242	-8.8	83	-11.2	0	0	1011.3	NA	0.0000		9999	1440	0	0	0
2020/09/04 01:59:00	BASE	3.11	240	3.91	237	-8.8	83	-11.2	0	0	1011.3	NA	0.0000		9999	1480	0	0	0
2020/09/04 02:00:00	BASE	3.12	244	3.91	237	-8.8	83	-11.2	0	0	1011.3	NA	0.0000		9999	430	0	0	0
2020/09/04 02:01:00	BASE	3.10	251	3.91	237	-8.8	83	-11.2	0	0	1011.3	NA	0.0000	-SN	9999	690	0	0	0
2020/09/04 02:02:00	BASE	3.01	256	3.91	237	-8.8	83	-11.2	0	0	1011.2	NA	0.0000	-SN	9999	750	0	0	0
2020/09/04 02:03:00	BASE	3.00	258	3.91	237	-8.8	83	-11.2	0	0	1011.1	NA	0.0000	-SN	9999	1310	0	0	0
2020/09/04 02:04:00	BASE	3.01	258	3.91	237	-8.8	83	-11.2	0	0	1011.2	NA	0.0000	-SN	9999	1280	0	0	0
2020/09/04 02:05:00	BASE	3.17	251	3.91	237	-8.8	83	-11.2	0	0	1011.3	NA	0.0000	-SN	9999	690	0	0	0
2020/09/04 02:06:00	BASE	3.29	250	3.91	237	-8.8	83	-11.1	0	0	1011.2	NA	0.0000	-SN	9999	520	0	0	0
2020/09/04 02:07:00	BASE	3.39	257	3.91	261	-8.8	83	-11.1	0	0	1011.2	NA	0.0000	-SN	9999	790	1640	0	0
2020/09/04 02:08:00	BASE	3.40	255	3.91	247	-8.8	84	-11.1	0	0	1011.2	NA	0.0000	-SN	9999	1210	0	0	0
2020/09/04 02:09:00	BASE	3.61	250	4.12	251	-8.8	84	-11.1	0	0	1011.3	NA	0.0000	-SN	9999	1640	0	0	0
2020/09/04 02:10:00	BASE	3.64	248	4.12	251	-8.9	84	-11.1	0	0	1011.2	NA	0.0000	-SN	9999	750	0	0	0
2020/09/04 02:11:00	BASE	3.54	247	4.27	260	-8.9	84	-11.1	0	0	1011.1	NA	0.0000	-SN	9999	820	0	0	0
2020/09/04 02:12:00	BASE	3.65	246	4.27	260	-8.9	84	-11.1	0	0	1011.1	NA	0.0000	-SN	9999	820	0	0	0
2020/09/04 02:13:00	BASE	3.73	244	4.27	260	-8.9	84	-11.1	0	0	1011.1	NA	0.0000	-SN	9999	430	0	0	0
2020/09/04 02:14:00	BASE	3.80	249	4.32	246	-8.9	84	-11.1	0	0	1011.1	NA	0.0000	-SN	9999	390	1840	0	0
2020/09/04 02:15:00	BASE	3.76	254	4.32	246	-8.9	84	-11.1	0	0	1011.1	NA	0.0000	-SN	9999	590	1840	0	0
2020/09/04 02:16:00	BASE	3.87	256	4.48	259	-8.9	84	-11.1	0	0	1011.1	NA	0.0000	-SN	9999	590	1770	0	0
2020/09/04 02:17:00	BASE	4.17	257	4.58	261	-8.9	84	-11.1	0	0	1011.1	NA	0.0000	-SN	9999	750	1840	0	0
2020/09/04 02:18:00	BASE	3.83	256	4.58	261	-8.9	84	-11.1	0	0	1011.1	NA	0.0000	-SN	9999	950	1900	0	0
2020/09/04 02:19:00	BASE	3.90	254	4.89	252	-8.9	84	-11.1	0	0	1011.1	NA	0.0000	-SN	9999	950	1870	0	0
2020/09/04 02:20:00	BASE	4.61	253	5.14	256	-8.9	84	-11.1	0	0	1011.1	NA	0.0000	-SN	9999	590	0	0	0
2020/09/04 02:21:00	BASE	4.64	254	5.14	256	-8.9	84	-11.1	0	0	1011.1	NA	0.0000	-SN	9999	430	0	0	0
2020/09/04 02:22:00	BASE	4.21	254	5.14	256	-8.9	84	-11.1	0	0	1011.2	NA	0.0000	-SN	9999	1210	0	0	0
2020/09/04 02:23:00	BASE	4.06	256	5.14	256	-8.9	84	-11.1	0	0	1011.3	NA	0.0000	-SN	9999	890	0	0	0
2020/09/04 02:24:00	BASE	4.06	255	5.14	256	-8.9	84	-11.1	0	0	1011.3	NA	0.0000	-SN	9999	1640	0	0	0
2020/09/04 02:25:00	BASE	3.78	248	5.14	256	-8.9	84	-11.1	0	0	1011.4	NA	0.0000	-SN	9999	1610	0	0	0
2020/09/04 02:26:00	BASE	3.49	245	5.14	256	-8.9	84	-11.1	0	0	1011.4	NA	0.0000	-SN	9999	1670	0	0	0
2020/09/04 02:27:00	BASE	3.50	247	5.14	256	-8.9	84	-11.1	0	0	1011.4	NA	0.0000	-SN	9999	1380	0	0	0
2020/09/04 02:28:00	BASE	4.06	246	5.20	246	-8.9	85	-11.0	0	0	1011.4	NA	0.0000	-SN	9999	1350	1840	0	0
2020/09/04 02:29:00	BASE	4.33	245	5.20	246	-8.9	85	-11.0	0	0	1011.3	NA	0.0000	-SN	9999	1480	0	0	0
2020/09/04 02:30:00	BASE	4.27	254	5.20	246	-8.9	85	-11.0	0	0	1011.3	NA	0.0000	-SN	9999	1510	0	0	0
2020/09/04 02:31:00	BASE	4.05	264	5.20	246	-8.9	85	-11.0	0	0	1011.3	NA	0.0000		9999	1540	0	0	0
2020/09/04 02:32:00	BASE	3.51	266	5.20	246	-8.9	85	-11.0	0	0	1011.3	NA	0.0000		9999	1540	0	0	0
2020/09/04 02:33:00	BASE	3.90	259	5.20	246	-8.9	85	-11.0	0	0	1011.3	NA	0.0000		9999	1540	0	0	0
2020/09/04 02:34:00	BASE	4.30	254	5.20	246	-8.9	85	-11.0	0	0	1011.3	NA	0.0000		9999	1250	0	0	0
2020/09/04 02:35:00	BASE	3.99	254	5.20	246	-8.9	85	-11.0	0	0	1011.3	NA	0.0000		9999	1510	0	0	0
2020/09/04 02:36:00	BASE	3.97	252	5.20	246	-8.9	85	-11.0	0	0	1011.3	NA	0.0000		9999	1540	0	0	0
2020/09/04 02:37:00	BASE	4.25	249	5.20	246	-8.9	85	-11.0	0	0	1011.3	NA	0.0000		9999	1540	0	0	0
2020/09/04 02:38:00	BASE	4.26	243	4.99	255	-8.9	85	-11.0	0	0	1011.4	NA	0.0000		9999	1670	0	0	0
2020/09/04 02:39:00	BASE	4.13	239	4.99	255	-8.9	85	-11.0	0	0	1011.4	NA	0.0000		9999	1710	0	0	0
2020/09/04 02:40:00	BASE	3.89	243	4.99	255	-8.9	85	-11.0	0	0	1011.4	NA	0.0000		9999	1540	0	0	0
2020/09/04 02:41:00	BASE	3.79	252	4.99	255	-8.9	85	-11.0	0	0	1011.3	NA	0.0000		9999	1440	0	0	0
2020/09/04 02:42:00	BASE	3.93	252	4.99	255	-8.9	85	-11.0	0	0	1011.3	NA	0.0000		9999	1710	0	0	0
2020/09/04 02:43:00	BASE	3.82	250	4.84	250	-9.0	85	-11.0	0	0	1011.3	NA	0.0000		9999	1800	0	0	0
2020/09/04 02:44:00	BASE	3.65	248	4.84	250	-9.0	85	-11.0	0	0	1011.3	NA	0.0000		9999	1050	0	0	0
2020/09/04 02:45:00	BASE	3.65	244	4.84	250	-9.0	85	-11.0	0	0	1011.3	NA	0.0000		9999	1180	0	0	0
2020/09/04 02:46:00	BASE	3.77	244	4.84	250	-9.0	85	-11.0	0	0	1011.3	NA	0.0000		9999	1540	0	0	0
2020/09/04 02:47:00	BASE	3.88	243	4.78	237	-8.9	85	-11.0	0	0	1011.4	NA	0.0000		9999	750	0	0	0
2020/09/04 02:48:00	BASE	3.79	241	4.78	237	-8.9	85	-11.0	0	0	1011.4	NA	0.0000		9999	1510	0	0	0
2020/09/04 02:49:00	BASE	3.80	244	4.42	242	-8.9	85	-10.9	0	0	1011.4	NA	0.0000		9999	1380	0	0	0
2020/09/04 02:50:00	BASE	4.11	249	4.58	254	-8.9	85	-10.9	0	0	1011.4	NA	0.0000		9999	1150	0	0	0
2020/09/04 02:51:00	BASE	4.35	250	4.89	247	-8.9	86	-10.9	0	0	1011.4	NA	0.0000		9999	1440	0	0	0
2020/09/04 02:52:00	BASE	4.47	247	4.89	247	-8.9	86	-10.8	0	0	1011.4	NA	0.0000		9999	1570	0	0	0
2020/09/04 02:53:00	BASE	4.47	244	4.89	247	-8.9	86	-10.8	0	0	1011.4	NA	0.0000		9999	1570	0	0	0
2020/09/04 02:54:00	BASE	4.32	245	5.04	255	-8.9	86	-10.8	0	0	1011.4	NA	0.0000		9999	1640	0	0	0
2020/09/04 02:55:00	BASE	4.12	246	5.04	255	-8.9	86	-10.8	0	0	1011.4	NA	0.0000		9999	1670	0	0	0
2020/09/04 02:56:00	BASE	4.01	242	5.04	255	-8.9	86	-10.8	0	0	1011.4	NA	0.0000	-SN	9999	1440	0	0	0
2020/09/04 02:57:00	BASE	3.83	239	5.04	255	-8.9	86	-10.9	0	0	1011.4	NA	0.0000	-SN	9999	360	0	0	0
2020/09/04 02:58:00	BASE	3.64	240	5.04	255	-9.0	86	-10.9	0	0	1011.4	NA	0.0000	-SN	9000	300	1380	0	0
2020/09/04 02:59:00	BASE	3.58	240	5.04	255	-9.0	86	-10.9	0	0	1011.4	NA	0.0000	-SN	9000	460	1770	0	0
2020/09/04 03:00:00	BASE	3.68	239	5.04	255	-9.0	86	-10.9	0	0	1011.4	NA	0.0000	-SN	9999	590	1440	0	0
2020/09/04 03:01:00	BASE	3.59	239	5.04	255	-9.0	86	-10.9	0	0	1011.4	NA	0.0000	-SN	9999	330	1020	0	0
2020/09/04 03:02:00	BASE	3.33	243	5.04	255	-8.9	86	-10.9	0	0	1011.4	NA	0.0000	-SN	8000	0	0	0	2300
2020/09/04 03:03:00	BASE	3.43	250	5.04	255	-8.9	86	-10.9	0	0	1011.4	NA	0.0000	-SN	6000	390	1350	0	0
2020/09/04 03:04:00	BASE	3.23	252	4.68	243	-8.9	86	-10.9	0	0	1011.5	NA	0.0000	-SN	9999	850	2030	0	0
2020/09/04 03:05:00	BASE	3.17	247	4.53	243	-9.0	86	-10.9	0	0	1011.5	NA	0.0000	-SN	9999	390	0	0	0
2020/09/04 03:06:00	BASE	3.81	243	4.53	243	-9.0	86	-10.9	0	0	1011.4	NA	0.0000	-SN	9999	430	0	0	0
2020/09/04 03:07:00	BASE	4.08	243	4.53	243	-9.0	86	-10.9	0	0	1011.5	NA	0.0000	-SN	9999	330	0	0	0
2020/09/04 03:08:00	BASE	3.97	245	4.53	243	-9.0	86	-10.9	0	0	1011.4	NA	0.0000	-SN	8000	230	1840	0	0
2020/09/04 03:09:00	BASE	3.81	243	4.53	243	-8.9	86	-10.9	0	0	1011.4	NA	0.0000	-SN BR	2300	0	0	0	2590
2020/09/04 03:10:00	BASE	3.85	245	4.58	246	-8.9	86	-10.9	0	0	1011.4	NA	0.0000	-SN BR	1400	0	0	0	2690
2020/09/04 03:11:00	BASE	3.85	251	4.58	246	-9.0	86	-10.9	0	0	1011.4	NA	0.0000	-SN BR	1800	0	0	0	2920
2020/09/04 03:12:00	BASE	3.49	253	4.58	246	-9.0	86	-10.9	0	0	1011.4	NA	0.0000	-SN BR	3700	0	0	0	2620
2020/09/04 03:13:00	BASE	3.16	253	4.58	246	-9.0	86	-10.9	0	0	1011.4	NA	0.0000	-SN BR	3500	260	2130	0	0
2020/09/04 03:14:00	BASE	2.85	255	4.58	246	-9.0	86	-10.9	0	0	1011.4	NA	0.0000	-SN BR	5000	260	2000	0	0
2020/09/04 03:15:00	BASE	2.99	255	4.58	246	-9.0	86	-10.9	0	0	1011.4	NA	0.0000	-SN BR	5000	260	1770	0	0
2020/09/04 03:16:00	BASE	3.50	254	4.58	246	-9.0	86	-10.9	0	0	1011.4	NA	0.0000	-SN BR	4400	300	1670	0	0
2020/09/04 03:17:00	BASE	3.48	259	4.58	246	-9.0	87	-10.8	0	0	1011.3	NA	0.0000	-SN BR	5000	0	0	0	2590
2020/09/04 03:18:00	BASE	3.31	258	4.58	246	-9.0	87	-10.8	0	0	1011.4	NA	0.0000	-SN BR	3000	0	0	0	2590
2020/09/04 03:19:00	BASE	3.10	258	4.58	246	-9.0	87	-10.8	0	0	1011.4	NA	0.0000	-SN BR	2900	0	0	0	2660
2020/09/04 03:20:00	BASE	3.17	261	4.01	264	-9.0	87	-10.8	0	0	1011.4	NA	0.0000	-SN BR	3500	330	1480	0	0
2020/09/04 03:21:00	BASE	3.33	256	4.01	264	-9.0	87	-10.8	0	0	1011.4	NA	0.0000	-SN BR	8000	390	0	0	0
2020/09/04 03:22:00	BASE	3.13	253	4.01	264	-9.0	87	-10.8	0	0	1011.4	NA	0.0000	-SN BR	9999	750	0	0	0
2020/09/04 03:23:00	BASE	3.10	255	4.01	264	-9.0	87	-10.8	0	0	1011.4	NA	0.0000	-SN BR	9999	390	2200	0	0
2020/09/04 03:24:00	BASE	3.08	257	4.01	264	-9.0	87	-10.8	0	0	1011.4	NA	0.0000	-SN BR	9000	330	1380	0	0
2020/09/04 03:25:00	BASE	3.13	252	4.01	264	-9.0	87	-10.8	0	0	1011.4	NA	0.0000	-SN BR	6000	390	1480	0	0
2020/09/04 03:26:00	BASE	3.44	248	4.01	264	-9.0	87	-10.7	0	0	1011.4	NA	0.0000	-SN BR	9999	1410	0	0	0
2020/09/04 03:27:00	BASE	3.54	248	3.96	245	-9.0	88	-10.7	0	0	1011.4	NA	0.0000	-SN BR	9999	430	0	0	0
2020/09/04 03:28:00	BASE	3.35	251	4.12	248	-9.0	88	-10.7	0	0	1011.4	NA	0.0000	-SN BR	9999	390	1150	0	0
2020/09/04 03:29:00	BASE	3.71	252	4.42	253	-9.0	88	-10.6	0	0	1011.3	NA	0.0000	-SN BR	9999	430	0	0	0
2020/09/04 03:30:00	BASE	4.02	252	4.48	247	-9.0	88	-10.6	0	0	1011.3	NA	0.0000	-SN	9999	360	1410	0	0
2020/09/04 03:31:00	BASE	3.76	252	4.48	247	-9.0	88	-10.6	0	0	1011.3	NA	0.0000	-SN	7000	330	1480	0	0
2020/09/04 03:32:00	BASE	3.57	249	4.48	247	-9.0	88	-10.6	0	0	1011.3	NA	0.0000	-SN BR	6000	360	2360	0	0
2020/09/04 03:33:00	BASE	3.65	246	4.78	247	-9.0	88	-10.6	0	0	1011.3	NA	0.0000	-SN BR	9999	430	2200	0	0
2020/09/04 03:34:00	BASE	4.24	246	4.99	247	-9.0	88	-10.6	0	0	1011.3	NA	0.0000	-SN BR	7000	390	1770	0	0
2020/09/04 03:35:00	BASE	4.59	248	4.99	247	-9.0	88	-10.6	0	0	1011.3	NA	0.0000	-SN BR	9999	390	1540	0	0
2020/09/04 03:36:00	BASE	4.39	249	4.99	247	-9.0	88	-10.6	0	0	1011.3	NA	0.0000	-SN	9999	330	1440	0	0
2020/09/04 03:37:00	BASE	4.38	249	4.99	247	-9.0	88	-10.7	0	0	1011.3	NA	0.0000	-SN	9999	260	1180	0	0
2020/09/04 03:38:00	BASE	4.43	248	4.99	247	-9.1	88	-10.7	0	0	1011.3	NA	0.0000	-SN	9999	330	1250	0	0
2020/09/04 03:39:00	BASE	4.26	246	4.99	247	-9.1	88	-10.7	0	0	1011.3	NA	0.0000	-SN	9999	330	1710	0	0
2020/09/04 03:40:00	BASE	4.33	245	5.04	247	-9.1	88	-10.7	0	0	1011.3	NA	0.0000	-SN	9999	390	2130	0	0
2020/09/04 03:41:00	BASE	4.53	247	5.04	247	-9.0	88	-10.7	0	0	1011.3	NA	0.0000	-SN	9999	690	1670	0	0
2020/09/04 03:42:00	BASE	4.52	250	5.04	253	-9.0	88	-10.6	0	0	1011.3	NA	0.0000	-SN	9999	520	1670	0	0
2020/09/04 03:43:00	BASE	4.42	253	5.04	253	-9.0	88	-10.6	0	0	1011.3	NA	0.0000	-SN	9999	660	2000	0	0
2020/09/04 03:44:00	BASE	4.39	254	5.04	254	-9.0	88	-10.6	0	0	1011.2	NA	0.0000	-SN	9999	330	0	0	0
2020/09/04 03:45:00	BASE	4.43	254	5.04	254	-9.0	88	-10.6	0	0	1011.2	NA	0.0000	-SN	9999	300	1410	0	0
2020/09/04 03:46:00	BASE	4.50	255	5.14	260	-9.0	88	-10.6	0	0	1011.1	NA	0.0000	-SN	5000	360	1050	0	0
2020/09/04 03:47:00	BASE	4.42	255	5.14	260	-9.0	88	-10.6	0	0	1011.1	NA	0.0000	-SN	9999	390	2030	0	0
2020/09/04 03:48:00	BASE	3.79	258	5.14	260	-9.0	88	-10.6	0	0	1011.1	NA	0.0000	-SN	9999	460	1350	0	0
2020/09/04 03:49:00	BASE	3.50	260	5.14	260	-9.0	88	-10.6	0	0	1011.1	NA	0.0000	-SN	9999	390	2100	0	0
2020/09/04 03:50:00	BASE	3.84	258	5.14	260	-9.0	88	-10.6	0	0	1011.1	NA	0.0000	-SN	9999	1210	2100	0	0
2020/09/04 03:51:00	BASE	4.24	256	5.14	260	-9.0	88	-10.6	0	0	1011.1	NA	0.0000	-SN	9999	560	0	0	0
2020/09/04 03:52:00	BASE	4.31	252	5.14	260	-9.0	88	-10.6	0	0	1011.2	NA	0.0000	-SN	9999	1510	2130	0	0
2020/09/04 03:53:00	BASE	4.18	253	5.14	260	-9.0	88	-10.6	0	0	1011.2	NA	0.0000	-SN	9999	1210	0	0	0
2020/09/04 03:54:00	BASE	4.50	256	5.25	248	-9.0	88	-10.6	0	0	1011.2	NA	0.0000	-SN	9999	560	0	0	0
2020/09/04 03:55:00	BASE	4.78	255	5.35	260	-9.0	88	-10.6	0	0	1011.2	NA	0.0000	-SN	9999	430	1280	0	0
2020/09/04 03:56:00	BASE	4.68	253	5.35	260	-9.0	88	-10.7	0	0	1011.3	NA	0.0000	-SN	9999	430	0	0	0
2020/09/04 03:57:00	BASE	4.50	253	5.35	260	-9.1	88	-10.7	0	0	1011.3	NA	0.0000	-SN	9999	460	2360	0	0
2020/09/04 03:58:00	BASE	4.67	250	5.66	248	-9.1	88	-10.7	0	0	1011.3	NA	0.0000	-SN	9999	490	1740	0	0
2020/09/04 03:59:00	BASE	4.80	246	5.66	248	-9.1	88	-10.7	0	0	1011.4	NA	0.0000	-SN	9999	520	2400	0	0
2020/09/04 04:00:00	BASE	4.73	246	5.66	248	-9.1	88	-10.7	0	0	1011.3	NA	0.0000	-SN	9999	690	2460	0	0
2020/09/04 04:01:00	BASE	4.84	247	5.66	248	-9.1	88	-10.7	0	0	1011.3	NA	0.0000	-SN	9999	1050	0	0	0
2020/09/04 04:02:00	BASE	4.83	249	5.66	248	-9.1	88	-10.7	0	0	1011.3	NA	0.0000	-SN	9999	520	2300	0	0
2020/09/04 04:03:00	BASE	4.59	252	5.66	248	-9.1	88	-10.7	0	0	1011.3	NA	0.0000	-SN	9999	360	2200	0	0
2020/09/04 04:04:00	BASE	4.00	253	5.66	248	-9.1	88	-10.7	0	0	1011.4	NA	0.0000	-SN	9999	430	2170	0	0
2020/09/04 04:05:00	BASE	3.83	254	5.66	248	-9.1	88	-10.7	0	0	1011.3	NA	0.0000	-SN	9999	620	2260	0	0
2020/09/04 04:06:00	BASE	4.33	252	5.66	248	-9.1	88	-10.7	0	0	1011.3	NA	0.0000	-SN	9999	690	2230	0	0
2020/09/04 04:07:00	BASE	4.72	249	5.66	248	-9.1	88	-10.7	0	0	1011.3	NA	0.0000	-SN	9999	620	0	0	0
2020/09/04 04:08:00	BASE	4.76	248	5.14	247	-9.1	88	-10.7	0	0	1011.4	NA	0.0000	-SN	9999	1210	0	0	0
2020/09/04 04:09:00	BASE	4.72	249	5.45	247	-9.1	88	-10.7	0	0	1011.3	NA	0.0000	-SN	9999	690	2130	0	0
2020/09/04 04:10:00	BASE	4.86	252	5.45	251	-9.1	88	-10.7	0	0	1011.3	NA	0.0000	-SN	9999	1310	2100	0	0
2020/09/04 04:11:00	BASE	4.46	255	5.45	251	-9.1	88	-10.7	0	0	1011.3	NA	0.0000	-SN	9999	1150	2030	0	0
2020/09/04 04:12:00	BASE	3.85	256	5.45	251	-9.1	88	-10.7	0	0	1011.3	NA	0.0000	-SN	8000	1020	1640	0	0
2020/09/04 04:13:00	BASE	3.66	254	5.45	251	-9.1	88	-10.7	0	0	1011.3	NA	0.0000	-SN	5000	1670	2170	0	0
2020/09/04 04:14:00	BASE	3.66	249	5.45	251	-9.1	88	-10.7	0	0	1011.3	NA	0.0000	-SN	9999	490	2300	0	0
2020/09/04 04:15:00	BASE	3.94	247	5.45	251	-9.1	88	-10.7	0	0	1011.3	NA	0.0000	-SN	9999	1280	2130	0	0
2020/09/04 04:16:00	BASE	4.19	246	5.45	251	-9.1	88	-10.7	0	0	1011.3	NA	0.0000	-SN	9999	1210	2100	0	0
2020/09/04 04:17:00	BASE	4.10	246	5.45	251	-9.1	88	-10.7	0	0	1011.3	NA	0.0000	-SN	9999	1440	0	0	0
2020/09/04 04:18:00	BASE	3.91	250	5.45	251	-9.1	88	-10.7	0	0	1011.3	NA	0.0000	-SN	9999	1250	0	0	0
2020/09/04 04:19:00	BASE	3.99	256	5.45	251	-9.1	88	-10.6	0	0	1011.3	NA	0.0000	-SN	9999	1970	0	0	0
2020/09/04 04:20:00	BASE	4.35	256	5.14	257	-9.1	89	-10.6	0	0	1011.3	NA	0.0000	-SN	9999	2000	0	0	0
2020/09/04 04:21:00	BASE	4.74	254	5.14	264	-9.0	89	-10.5	0	0	1011.4	NA	0.0000	-SN	9999	1970	0	0	0
2020/09/04 04:22:00	BASE	4.52	251	5.14	264	-9.0	89	-10.5	0	0	1011.3	NA	0.0000	-SN	9999	1940	0	0	0
2020/09/04 04:23:00	BASE	4.51	245	5.56	247	-9.0	89	-10.5	0	0	1011.4	NA	0.0000	-SN	9999	430	0	0	0
2020/09/04 04:24:00	BASE	4.86	244	5.56	247	-9.0	89	-10.5	0	0	1011.4	NA	0.0000	-SN	9999	390	0	0	0
2020/09/04 04:25:01	BASE	4.83	245	5.56	247	-9.1	89	-10.5	0	0	1011.4	NA	0.0000	-SN	9999	390	2070	0	0
2020/09/04 04:26:00	BASE	4.85	244	5.56	247	-9.1	89	-10.6	0	0	1011.4	NA	0.0000	-SN	9999	330	0	0	0
2020/09/04 04:27:00	BASE	4.71	244	5.56	247	-9.1	89	-10.6	0	0	1011.4	NA	0.0000	-SN	9999	560	2170	0	0
2020/09/04 04:28:00	BASE	4.53	246	5.56	247	-9.1	89	-10.6	0	0	1011.4	NA	0.0000	-SN	9999	390	1800	0	0
2020/09/04 04:29:00	BASE	4.46	246	5.56	247	-9.1	89	-10.6	0	0	1011.4	NA	0.0000	-SN	9999	360	2230	0	0
2020/09/04 04:30:01	BASE	4.55	247	5.56	247	-9.1	89	-10.6	0	0	1011.4	NA	0.0000	-SN	9999	390	2200	0	0
2020/09/04 04:31:01	BASE	4.69	249	5.56	247	-9.1	89	-10.6	0	0	1011.4	NA	0.0000	-SN	9999	390	0	0	0
2020/09/04 04:32:01	BASE	4.66	249	5.56	247	-9.1	89	-10.6	0	0	1011.4	NA	0.0000	-SN	9000	620	2100	0	0
2020/09/04 04:33:01	BASE	4.38	248	5.40	245	-9.1	89	-10.6	0	0	1011.4	NA	0.0000	-SN	9999	1770	0	0	0
2020/09/04 04:34:01	BASE	4.15	247	5.40	245	-9.1	89	-10.6	0	0	1011.4	NA	0.0000	-SN	9999	1870	0	0	0
2020/09/04 04:35:01	BASE	4.07	246	5.35	244	-9.1	89	-10.6	0	0	1011.5	NA	0.0000	-SN	9999	1970	0	0	0
2020/09/04 04:36:01	BASE	4.23	249	5.30	248	-9.1	89	-10.6	0	0	1011.5	NA	0.0000	-SN	9999	1250	2030	0	0
2020/09/04 04:37:01	BASE	4.48	252	5.30	248	-9.1	89	-10.6	0	0	1011.5	NA	0.0000	-SN	9999	590	1350	0	0
2020/09/04 04:38:01	BASE	4.28	249	5.30	248	-9.1	89	-10.6	0	0	1011.5	NA	0.0000	-SN	9999	560	1940	0	0
2020/09/04 04:39:01	BASE	4.17	244	5.30	248	-9.1	89	-10.6	0	0	1011.5	NA	0.0000	-SN	9999	690	0	0	0
2020/09/04 04:40:01	BASE	4.41	248	5.30	248	-9.1	89	-10.6	0	0	1011.4	NA	0.0000	-SN	9999	1120	0	0	0
2020/09/04 04:41:01	BASE	4.51	251	5.25	252	-9.1	89	-10.6	0	0	1011.4	NA	0.0000	-SN	9999	1900	0	0	0
2020/09/04 04:42:01	BASE	4.71	251	5.30	254	-9.1	89	-10.6	0	0	1011.4	NA	0.0000	-SN	9999	1210	0	0	0
2020/09/04 04:43:01	BASE	4.75	249	5.30	254	-9.1	88	-10.7	0	0	1011.4	NA	0.0000	-SN	9999	1120	0	0	0
2020/09/04 04:44:01	BASE	4.45	242	5.40	240	-9.1	88	-10.6	0	0	1011.4	NA	0.0000	-SN	9999	1150	0	0	0
2020/09/04 04:45:01	BASE	4.40	235	5.40	240	-9.1	88	-10.7	0	0	1011.4	NA	0.0000	-SN	9999	950	2300	0	0
2020/09/04 04:46:01	BASE	4.39	233	5.40	240	-9.0	88	-10.6	0	0	1011.4	NA	0.0000	-SN	9999	790	1570	0	0
2020/09/04 04:47:01	BASE	4.29	234	5.40	240	-9.0	88	-10.6	0	0	1011.4	NA	0.0000		9999	430	1510	0	0
2020/09/04 04:48:01	BASE	4.08	237	5.40	240	-9.0	88	-10.6	0	0	1011.4	NA	0.0000	-SN	9999	430	1540	0	0
2020/09/04 04:49:01	BASE	3.97	237	5.40	240	-9.0	88	-10.6	0	0	1011.4	NA	0.0000	-SN	9999	590	2100	0	0
2020/09/04 04:50:01	BASE	4.04	239	5.40	240	-9.0	88	-10.6	0	0	1011.4	NA	0.0000	-SN	9999	1280	0	0	0
2020/09/04 04:51:01	BASE	4.31	243	5.40	240	-9.0	88	-10.6	0	0	1011.4	NA	0.0000	-SN	9999	1150	2330	0	0
2020/09/04 04:52:01	BASE	4.53	243	5.40	240	-9.0	88	-10.7	0	0	1011.4	NA	0.0000	-SN	9999	360	2230	0	0
2020/09/04 04:53:01	BASE	4.41	242	5.40	240	-9.1	88	-10.7	0	0	1011.4	NA	0.0000	-SN	5000	300	2230	0	0
2020/09/04 04:54:01	BASE	4.35	246	5.09	233	-9.1	88	-10.7	0	0	1011.4	NA	0.0000	-SN	9999	330	2230	0	0
2020/09/04 04:55:01	BASE	4.37	246	5.09	233	-9.1	88	-10.7	0	0	1011.4	NA	0.0000	-SN	9999	360	2300	0	0
2020/09/04 04:56:01	BASE	4.24	242	5.09	233	-9.1	88	-10.7	0	0	1011.4	NA	0.0000	-SN	9999	360	0	0	0
2020/09/04 04:57:01	BASE	3.94	243	5.09	233	-9.1	88	-10.7	0	0	1011.4	NA	0.0000	-SN	9999	460	2070	0	0
2020/09/04 04:58:01	BASE	3.91	246	5.09	233	-9.1	88	-10.7	0	0	1011.4	NA	0.0000	-SN	9999	360	1570	0	0
2020/09/04 04:59:01	BASE	4.37	244	5.09	233	-9.1	88	-10.7	0	0	1011.4	NA	0.0000	-SN	9000	360	2200	0	0
2020/09/04 05:00:01	BASE	4.50	243	5.09	233	-9.1	88	-10.7	0	0	1011.4	NA	0.0000	-SN	9999	360	2130	0	0
2020/09/04 05:01:01	BASE	4.41	245	4.99	244	-9.1	88	-10.7	0	0	1011.4	NA	0.0000	-SN	9999	360	2070	0	0
2020/09/04 05:02:01	BASE	4.30	247	4.99	244	-9.1	88	-10.7	0	0	1011.4	NA	0.0000	-SN	9999	390	1150	0	0
2020/09/04 05:03:01	BASE	4.33	247	4.99	244	-9.1	89	-10.7	0	0	1011.4	NA	0.0000	-SN	9999	360	1180	0	0
2020/09/04 05:04:01	BASE	4.52	246	4.99	246	-9.2	89	-10.7	0	0	1011.4	NA	0.0000	-SN	9999	330	0	0	0
2020/09/04 05:05:01	BASE	4.33	242	4.99	246	-9.2	89	-10.6	0	0	1011.4	NA	0.0000	-SN	4500	0	0	0	2490
2020/09/04 05:06:01	BASE	3.93	243	4.99	246	-9.2	89	-10.6	0	0	1011.5	NA	0.0000	-SN BR	3200	300	0	0	0
2020/09/04 05:07:01	BASE	3.86	246	4.99	246	-9.2	89	-10.6	0	0	1011.5	NA	0.0000	-SN BR	4500	850	2030	0	0
2020/09/04 05:08:01	BASE	3.96	245	4.99	246	-9.2	89	-10.6	0	0	1011.5	NA	0.0000	-SN BR	9999	390	0	0	0
2020/09/04 05:09:01	BASE	4.01	243	4.99	246	-9.2	89	-10.6	0	0	1011.5	NA	0.0000	-SN BR	9999	1970	0	0	0
2020/09/04 05:10:01	BASE	3.88	242	4.99	246	-9.2	89	-10.6	0	0	1011.5	NA	0.0000	-SN BR	9999	690	1970	0	0
2020/09/04 05:11:01	BASE	3.76	244	4.99	246	-9.2	89	-10.6	0	0	1011.5	NA	0.0000	-SN BR	9999	360	0	0	0
2020/09/04 05:12:01	BASE	3.90	245	4.99	246	-9.2	89	-10.6	0	0	1011.5	NA	0.0000	-SN BR	9999	360	2000	0	0
2020/09/04 05:13:01	BASE	3.93	244	4.99	246	-9.1	89	-10.6	0	0	1011.5	NA	0.0000	-SN BR	9999	260	0	0	0
2020/09/04 05:14:01	BASE	3.76	243	4.89	239	-9.1	89	-10.6	0	0	1011.5	NA	0.0000	-SN BR	3600	260	2170	0	0
2020/09/04 05:15:01	BASE	3.63	242	4.53	246	-9.1	89	-10.6	0	0	1011.5	NA	0.0000	-SN BR	4900	390	1940	0	0
2020/09/04 05:16:01	BASE	3.83	241	4.53	246	-9.1	89	-10.6	0	0	1011.4	NA	0.0000	-SN BR	9999	1940	0	0	0
2020/09/04 05:17:01	BASE	4.09	240	4.78	238	-9.1	89	-10.6	0	0	1011.4	NA	0.0000	-SN BR	9999	1940	0	0	0
2020/09/04 05:18:01	BASE	4.24	240	4.78	238	-9.1	89	-10.6	0	0	1011.4	NA	0.0000	-SN BR	9999	360	2000	0	0
2020/09/04 05:19:01	BASE	4.32	243	4.78	238	-9.1	89	-10.6	0	0	1011.4	NA	0.0000	-SN BR	9999	230	2170	0	0
2020/09/04 05:20:01	BASE	4.21	245	4.78	238	-9.1	89	-10.6	0	0	1011.5	NA	0.0000	-SN BR	6000	390	0	0	0
2020/09/04 05:21:01	BASE	4.14	243	4.78	238	-9.1	89	-10.6	0	0	1011.5	NA	0.0000	-SN BR	9999	820	2070	0	0
2020/09/04 05:22:01	BASE	4.05	239	4.78	238	-9.1	89	-10.6	0	0	1011.5	NA	0.0000	-SN BR	3500	260	0	0	0
2020/09/04 05:23:01	BASE	3.58	239	4.78	238	-9.1	89	-10.6	0	0	1011.5	NA	0.0000	-SN BR	5000	390	0	0	0
2020/09/04 05:24:01	BASE	3.55	240	4.78	238	-9.1	89	-10.6	0	0	1011.5	NA	0.0000	-SN BR	9999	2000	0	0	0
2020/09/04 05:25:01	BASE	4.08	240	5.04	247	-9.1	89	-10.6	0	0	1011.5	NA	0.0000	-SN BR	9999	1670	0	0	0
2020/09/04 05:26:01	BASE	4.42	240	5.04	247	-9.1	89	-10.6	0	0	1011.5	NA	0.0000	-SN BR	9999	430	1640	0	0
2020/09/04 05:27:01	BASE	4.38	239	5.04	247	-9.1	89	-10.6	0	0	1011.5	NA	0.0000	-SN BR	9999	460	2030	0	0
2020/09/04 05:28:01	BASE	3.99	239	5.04	247	-9.1	89	-10.6	0	0	1011.5	NA	0.0000	-SN BR	9999	330	2030	0	0
2020/09/04 05:29:01	BASE	4.16	242	5.04	247	-9.1	89	-10.6	0	0	1011.5	NA	0.0000	-SN BR	5000	360	2130	0	0
2020/09/04 05:30:01	BASE	4.50	244	5.04	248	-9.1	89	-10.6	0	0	1011.5	NA	0.0000	-SN BR	9999	490	1670	0	0
2020/09/04 05:31:01	BASE	4.38	247	5.04	248	-9.1	89	-10.6	0	0	1011.5	NA	0.0000	-SN BR	9999	560	0	0	0
2020/09/04 05:32:01	BASE	4.43	247	5.04	245	-9.1	89	-10.6	0	0	1011.5	NA	0.0000	-SN	9999	390	0	0	0
2020/09/04 05:33:01	BASE	4.51	246	5.35	251	-9.1	89	-10.6	0	0	1011.5	NA	0.0000	-SN	9999	820	0	0	0
2020/09/04 05:34:01	BASE	4.31	247	5.35	251	-9.1	89	-10.6	0	0	1011.5	NA	0.0000	-SN	9999	300	2000	0	0
2020/09/04 05:35:01	BASE	4.39	246	5.35	247	-9.1	89	-10.6	0	0	1011.5	NA	0.0000	-SN	8000	300	1210	0	0
2020/09/04 05:36:01	BASE	4.57	248	5.35	247	-9.1	89	-10.6	0	0	1011.5	NA	0.0000	-SN	6000	620	2130	0	0
2020/09/04 05:37:01	BASE	4.42	251	5.35	247	-9.1	89	-10.6	0	0	1011.4	NA	0.0000	-SN	9999	430	2070	0	0
2020/09/04 05:38:01	BASE	4.04	254	5.35	247	-9.1	89	-10.6	0	0	1011.4	NA	0.0000	-SN	9999	520	2070	0	0
2020/09/04 05:39:01	BASE	3.66	256	5.35	247	-9.1	88	-10.7	0	0	1011.4	NA	0.0000	-SN	9999	660	0	0	0
2020/09/04 05:40:01	BASE	3.86	253	5.35	247	-9.1	88	-10.7	0	0	1011.4	NA	0.0000	-SN	9999	1310	2170	0	0
2020/09/04 05:41:01	BASE	4.25	248	5.35	247	-9.1	88	-10.7	0	0	1011.4	NA	0.0000	-SN	9999	1570	0	0	0
2020/09/04 05:42:01	BASE	4.30	244	5.35	247	-9.1	88	-10.7	0	0	1011.4	NA	0.0000	-SN	9999	750	0	0	0
2020/09/04 05:43:01	BASE	4.15	243	5.35	247	-9.1	88	-10.7	0	0	1011.4	NA	0.0000	-SN	9999	330	0	0	0
2020/09/04 05:44:01	BASE	4.19	245	5.35	247	-9.1	88	-10.7	0	0	1011.4	NA	0.0000	-SN	9999	690	1740	0	0
2020/09/04 05:45:01	BASE	4.22	245	4.89	246	-9.1	88	-10.7	0	0	1011.4	NA	0.0000	-SN	9999	490	1570	0	0
2020/09/04 05:46:01	BASE	4.25	246	4.78	253	-9.1	88	-10.7	0	0	1011.4	NA	0.0000	-SN	9999	590	1480	0	0
2020/09/04 05:47:01	BASE	4.16	247	4.73	241	-9.1	88	-10.7	0	0	1011.5	NA	0.0000	-SN	9999	300	1250	0	0
2020/09/04 05:48:01	BASE	3.78	250	4.73	241	-9.1	88	-10.7	0	0	1011.5	NA	0.0000	-SN	7000	360	0	0	0
2020/09/04 05:49:01	BASE	3.65	253	4.73	241	-9.1	88	-10.7	0	0	1011.5	NA	0.0000	-SN	7000	360	2070	0	0
2020/09/04 05:50:01	BASE	3.58	254	4.73	241	-9.1	88	-10.7	0	0	1011.5	NA	0.0000	-SN	9999	390	0	0	0
2020/09/04 05:51:01	BASE	3.29	252	4.68	247	-9.1	88	-10.7	0	0	1011.5	NA	0.0000	-SN	9999	430	1380	0	0
2020/09/04 05:52:01	BASE	3.12	250	4.68	247	-9.1	88	-10.7	0	0	1011.5	NA	0.0000	-SN	9999	1870	0	0	0
2020/09/04 05:53:01	BASE	3.21	248	4.68	247	-9.1	88	-10.7	0	0	1011.5	NA	0.0000	-SN	9999	1940	0	0	0
2020/09/04 05:54:01	BASE	3.53	246	4.68	247	-9.1	88	-10.7	0	0	1011.5	NA	0.0000	-SN	9999	490	0	0	0
2020/09/04 05:55:01	BASE	3.62	247	4.68	247	-9.1	88	-10.7	0	0	1011.5	NA	0.0000	-SN	9999	390	1280	0	0
2020/09/04 05:56:01	BASE	3.48	249	4.48	245	-9.0	88	-10.7	0	0	1011.4	NA	0.0000	-SN	9999	390	0	0	0
2020/09/04 05:57:01	BASE	3.61	251	4.22	248	-9.0	88	-10.7	0	0	1011.4	NA	0.0000	-SN	9999	790	0	0	0
2020/09/04 05:58:01	BASE	3.86	248	4.48	240	-9.0	88	-10.7	0	0	1011.4	NA	0.0000	-SN	9999	1800	0	0	0
2020/09/04 05:59:01	BASE	4.01	244	4.48	240	-9.0	88	-10.7	0	0	1011.4	NA	0.0000	-SN	9999	520	0	0	0
2020/09/04 06:00:01	BASE	4.16	237	4.94	232	-9.0	88	-10.7	0	0	1011.4	NA	0.0000	-SN	9999	390	1770	0	0
2020/09/04 06:01:01	BASE	4.28	232	4.94	232	-9.0	88	-10.7	0	0	1011.4	NA	0.0000	-SN	8000	260	1670	0	0
2020/09/04 06:02:01	BASE	4.08	233	4.94	232	-9.0	88	-10.6	0	0	1011.4	NA	0.0000	-SN	8000	430	1870	0	0
2020/09/04 06:03:01	BASE	3.60	231	4.94	232	-9.0	88	-10.6	0	0	1011.4	NA	0.0000	-SN	9999	1050	0	0	0
2020/09/04 06:04:01	BASE	3.36	237	4.94	232	-9.0	88	-10.6	0	0	1011.4	NA	0.0000	-SN	9999	390	1640	0	0
2020/09/04 06:05:01	BASE	3.29	248	4.94	232	-9.0	88	-10.7	0	0	1011.4	NA	0.0000	-SN	9999	560	1480	0	0
2020/09/04 06:06:01	BASE	3.46	251	4.94	232	-9.0	88	-10.7	0	0	1011.4	NA	0.0000	-SN	9999	430	0	0	0
2020/09/04 06:07:01	BASE	3.59	251	4.94	232	-9.0	87	-10.7	0	0	1011.4	NA	0.0000	-SN	9999	750	0	0	0
2020/09/04 06:08:01	BASE	3.28	254	4.94	232	-9.0	87	-10.7	0	0	1011.4	NA	0.0000	-SN	9999	1080	0	0	0
2020/09/04 06:09:01	BASE	3.13	253	4.94	232	-9.0	87	-10.8	0	0	1011.4	NA	0.0000	-SN	9999	1020	0	0	0
2020/09/04 06:10:01	BASE	3.14	244	4.84	228	-9.0	87	-10.8	0	0	1011.5	NA	0.0000	-SN	9999	360	2170	0	0
2020/09/04 06:11:01	BASE	3.05	235	4.84	228	-9.0	87	-10.8	0	0	1011.5	NA	0.0000	-SN	9999	390	1940	0	0
2020/09/04 06:12:01	BASE	3.21	236	4.37	240	-9.0	87	-10.8	0	0	1011.5	NA	0.0000	-SN	9999	390	1840	0	0
2020/09/04 06:13:01	BASE	3.28	240	4.37	240	-9.0	87	-10.8	0	0	1011.5	NA	0.0000	-SN	9999	1020	2100	0	0
2020/09/04 06:14:01	BASE	3.37	239	4.37	240	-9.0	87	-10.8	0	0	1011.5	NA	0.0000	-SN	9999	390	1210	0	0
2020/09/04 06:15:01	BASE	3.60	239	4.37	240	-9.0	87	-10.8	0	0	1011.5	NA	0.0000	-SN	9999	330	0	0	0
2020/09/04 06:16:01	BASE	3.25	243	3.96	249	-9.0	87	-10.8	0	0	1011.5	NA	0.0000	-SN	9000	300	2030	0	0
2020/09/04 06:17:01	BASE	3.26	244	4.32	235	-9.0	87	-10.8	0	0	1011.5	NA	0.0000	-SN	4000	890	1670	0	0
2020/09/04 06:18:01	BASE	3.78	236	4.48	231	-9.0	87	-10.8	0	0	1011.5	NA	0.0000	-SN	9999	390	2300	0	0
2020/09/04 06:19:01	BASE	3.66	232	4.48	231	-9.0	86	-10.8	0	0	1011.5	NA	0.0000	-SN BR	5000	300	0	0	0
2020/09/04 06:20:01	BASE	3.33	235	4.48	231	-9.0	86	-10.8	0	0	1011.5	NA	0.0000	-SN BR	5000	330	0	0	0
2020/09/04 06:21:01	BASE	3.26	240	4.48	231	-9.0	86	-10.9	0	0	1011.5	NA	0.0000	-SN BR	5000	260	1940	0	0
2020/09/04 06:22:01	BASE	3.08	245	4.48	231	-9.0	86	-10.9	0	0	1011.4	NA	0.0000	-SN BR	5000	430	1770	0	0
2020/09/04 06:23:01	BASE	2.98	248	4.48	231	-9.0	86	-10.9	0	0	1011.4	NA	0.0000	-SN BR	9999	460	0	0	0
2020/09/04 06:24:01	BASE	3.03	251	4.48	231	-9.0	86	-10.9	0	0	1011.4	NA	0.0000	-SN BR	9999	560	1440	0	0
2020/09/04 06:25:01	BASE	3.48	250	4.48	231	-9.0	86	-10.9	0	0	1011.4	NA	0.0000	-SN BR	9999	390	1570	0	0
2020/09/04 06:26:01	BASE	3.96	242	4.48	231	-9.0	86	-10.9	0	0	1011.4	NA	0.0000	-SN BR	9999	300	2170	0	0
2020/09/04 06:27:01	BASE	3.64	240	4.48	231	-9.0	86	-10.9	0	0	1011.4	NA	0.0000	-SN BR	5000	360	0	0	0
2020/09/04 06:28:01	BASE	3.19	238	4.37	238	-9.0	87	-10.8	0	0	1011.4	NA	0.0000	-SN BR	9999	390	0	0	0
2020/09/04 06:29:01	BASE	2.94	235	4.37	238	-9.0	87	-10.8	0	0	1011.5	NA	0.0000	-SN BR	9999	1150	1710	0	0
2020/09/04 06:30:01	BASE	2.60	234	4.37	238	-9.0	87	-10.8	0	0	1011.5	NA	0.0000	-SN BR	9999	1310	2130	0	0
2020/09/04 06:31:01	BASE	2.49	233	4.37	238	-9.0	87	-10.8	0	0	1011.5	NA	0.0000	-SN	9999	430	0	0	0
2020/09/04 06:32:01	BASE	2.61	232	4.37	238	-9.0	87	-10.8	0	0	1011.5	NA	0.0000	-SN	9999	950	0	0	0
2020/09/04 06:33:01	BASE	3.00	229	4.37	238	-9.0	87	-10.7	0	0	1011.4	NA	0.0000	-SN	9999	430	0	0	0
2020/09/04 06:34:01	BASE	3.38	229	4.37	238	-9.0	87	-10.7	0	0	1011.4	NA	0.0000	-SN BR	3700	0	0	0	2230
2020/09/04 06:35:01	BASE	3.41	229	4.37	238	-9.0	87	-10.7	0	0	1011.4	NA	0.0000	-SN BR	3500	360	0	0	0
2020/09/04 06:36:01	BASE	3.35	229	3.91	236	-9.0	87	-10.7	0	0	1011.4	NA	0.0000	-SN BR	7000	430	1900	0	0
2020/09/04 06:37:01	BASE	3.20	235	3.96	236	-9.0	87	-10.8	0	0	1011.4	NA	0.0000	-SN BR	7000	360	0	0	0
2020/09/04 06:38:01	BASE	3.49	233	4.73	217	-9.0	87	-10.8	0	0	1011.4	NA	0.0000	-SN BR	8000	850	0	0	0
2020/09/04 06:39:01	BASE	4.20	220	4.73	217	-9.0	87	-10.8	0	0	1011.4	NA	0.0000	-SN BR	9999	1250	0	0	0
2020/09/04 06:40:01	BASE	4.12	214	4.73	217	-9.0	87	-10.8	0	0	1011.4	NA	0.0000	-SN BR	9999	460	1900	0	0
2020/09/04 06:41:01	BASE	3.68	218	4.73	217	-9.0	87	-10.7	0	0	1011.4	NA	0.0000	-SN BR	9999	720	1940	0	0
2020/09/04 06:42:01	BASE	3.93	222	4.73	217	-9.0	87	-10.7	0	0	1011.4	NA	0.0000	-SN BR	9999	430	1900	0	0
2020/09/04 06:43:01	BASE	4.41	227	4.99	233	-9.0	87	-10.7	0	0	1011.3	NA	0.0000	-SN BR	9999	430	0	0	0
2020/09/04 06:44:01	BASE	4.39	232	4.99	233	-9.0	87	-10.7	0	0	1011.3	NA	0.0000	-SN BR	9999	460	1740	0	0
2020/09/04 06:45:01	BASE	3.85	233	4.99	233	-9.0	87	-10.7	0	0	1011.3	NA	0.0000	-SN	9999	460	1350	0	0
2020/09/04 06:46:01	BASE	3.60	233	4.99	233	-9.0	87	-10.8	0	0	1011.3	NA	0.0000	-SN	9999	690	0	0	0
2020/09/04 06:47:01	BASE	3.50	232	4.99	233	-9.0	87	-10.8	0	0	1011.3	NA	0.0000	-SN	9999	460	1800	0	0
2020/09/04 06:48:01	BASE	3.12	238	4.99	233	-9.0	87	-10.8	0	0	1011.3	NA	0.0000	-SN	9999	360	0	0	0
2020/09/04 06:49:01	BASE	2.81	243	4.99	233	-9.0	87	-10.8	0	0	1011.3	NA	0.0000	-SN	9999	660	0	0	0
2020/09/04 06:50:01	BASE	2.61	241	4.99	233	-9.1	87	-10.8	0	0	1011.3	NA	0.0000	-SN	9999	660	0	0	0
2020/09/04 06:51:01	BASE	2.42	236	4.99	233	-9.1	87	-10.9	0	0	1011.4	NA	0.0000	-SN	9999	1080	0	0	0
2020/09/04 06:52:01	BASE	2.27	233	4.99	233	-9.1	87	-10.9	0	0	1011.4	NA	0.0000	-SN	9999	390	1940	0	0
2020/09/04 06:53:01	BASE	2.48	232	4.58	231	-9.1	86	-10.9	0	0	1011.3	NA	0.0000	-SN	7000	390	2030	0	0
2020/09/04 06:54:01	BASE	2.82	230	4.37	232	-9.1	86	-10.9	0	0	1011.3	NA	0.0000	-SN	9999	330	0	0	0
2020/09/04 06:55:01	BASE	2.65	233	4.37	232	-9.0	86	-10.9	0	0	1011.3	NA	0.0000	-SN	4100	360	1900	0	0
2020/09/04 06:56:01	BASE	2.68	233	3.76	236	-9.0	86	-10.9	0	0	1011.3	NA	0.0000	-SN BR	4300	1380	0	0	0
2020/09/04 06:57:01	BASE	3.14	231	3.50	230	-9.0	86	-10.9	0	0	1011.3	NA	0.0000	-SN BR	9999	620	0	0	0
2020/09/04 06:58:01	BASE	3.28	230	3.60	231	-9.0	86	-11.0	0	0	1011.3	NA	0.0000	-SN BR	4400	360	1540	0	0
2020/09/04 06:59:01	BASE	3.06	227	3.60	231	-9.0	85	-11.0	0	0	1011.3	NA	0.0000	-SN BR	9999	690	0	0	0
2020/09/04 07:00:00	BASE	2.81	225	3.60	231	-9.0	85	-11.0	0	0	1011.3	NA	0.0000	-SN BR	9999	490	1670	0	0
2020/09/04 07:01:01	BASE	2.89	226	3.60	231	-9.0	85	-11.0	0	0	1011.3	NA	0.0000	-SN BR	9999	490	1410	0	0
2020/09/04 07:02:01	BASE	3.04	228	3.60	231	-9.0	85	-11.0	0	0	1011.3	NA	0.0000	-SN BR	9999	430	0	0	0
2020/09/04 07:03:01	BASE	3.10	231	3.60	231	-8.9	85	-11.0	0	0	1011.3	NA	0.0000	-SN BR	9999	1510	0	0	0
2020/09/04 07:04:01	BASE	2.93	235	3.60	231	-8.9	85	-11.0	0	0	1011.3	NA	0.0000	-SN BR	9999	1380	0	0	0
2020/09/04 07:05:01	BASE	2.62	238	3.60	231	-8.9	85	-11.0	0	0	1011.3	NA	0.0000	-SN BR	9999	1510	0	0	0
2020/09/04 07:06:01	BASE	2.73	240	3.60	231	-8.9	85	-11.0	0	0	1011.3	NA	0.0000	-SN	9999	1570	0	0	0
2020/09/04 07:07:01	BASE	3.07	243	3.60	231	-8.9	85	-11.0	0	0	1011.3	NA	0.0000	-SN	9999	1540	0	0	0
2020/09/04 07:08:01	BASE	2.95	242	3.55	229	-8.9	85	-11.0	0	0	1011.3	NA	0.0000	-SN	9999	1610	0	0	0
2020/09/04 07:09:01	BASE	2.52	241	3.55	229	-8.9	85	-11.0	0	0	1011.3	NA	0.0000	-SN	9999	1510	0	0	0
2020/09/04 07:10:01	BASE	2.50	241	3.55	229	-8.9	85	-11.0	0	0	1011.3	NA	0.0000	-SN	9999	490	0	0	0
2020/09/04 07:11:01	BASE	2.37	232	3.55	229	-9.0	85	-11.0	0	0	1011.3	NA	0.0000	-SN	9999	1570	0	0	0
2020/09/04 07:12:01	BASE	2.61	230	3.76	233	-9.0	85	-11.0	0	0	1011.3	NA	0.0000	-SN	9999	1640	0	0	0
2020/09/04 07:13:01	BASE	3.12	223	3.76	233	-9.0	85	-11.0	0	0	1011.3	NA	0.0000		9999	620	1670	0	0
2020/09/04 07:14:01	BASE	3.08	212	3.76	233	-9.0	85	-11.0	0	0	1011.3	NA	0.0000		9999	850	1710	0	0
2020/09/04 07:15:01	BASE	2.87	218	3.76	233	-8.9	85	-11.0	0	0	1011.3	NA	0.0000		9999	490	0	0	0
2020/09/04 07:16:01	BASE	2.60	230	3.76	233	-8.9	85	-11.0	0	0	1011.3	NA	0.0000	-SN	9999	1610	0	0	0
2020/09/04 07:17:01	BASE	2.62	235	3.76	233	-8.9	84	-11.1	0	0	1011.3	NA	0.0000	-SN	9999	1740	0	0	0
2020/09/04 07:18:01	BASE	2.78	241	3.76	233	-8.9	84	-11.1	0	0	1011.3	NA	0.0000	-SN	9000	430	0	0	0
2020/09/04 07:19:01	BASE	2.60	248	3.76	233	-8.9	84	-11.1	0	0	1011.3	NA	0.0000	-SN	9999	980	1840	0	0
2020/09/04 07:20:01	BASE	2.34	249	3.76	233	-8.9	84	-11.1	0	0	1011.3	NA	0.0000	-SN	5000	520	1900	0	0
2020/09/04 07:21:01	BASE	2.65	249	3.76	233	-8.9	84	-11.1	0	0	1011.4	NA	0.0000	-SN	9999	620	1900	0	0
2020/09/04 07:22:01	BASE	2.89	248	3.45	216	-8.9	84	-11.1	0	0	1011.4	NA	0.0000	-SN	9999	1210	0	0	0
2020/09/04 07:23:01	BASE	2.62	248	3.34	249	-8.9	84	-11.1	0	0	1011.4	NA	0.0000	-SN	9999	980	0	0	0
2020/09/04 07:24:01	BASE	2.58	247	3.34	249	-8.9	84	-11.2	0	0	1011.4	NA	0.0000	-SN	9999	660	1770	0	0
2020/09/04 07:25:01	BASE	2.66	245	3.34	249	-9.0	84	-11.2	0	0	1011.4	NA	0.0000	-SN	9999	890	0	0	0
2020/09/04 07:26:01	BASE	2.67	244	3.45	248	-9.0	84	-11.2	0	0	1011.4	NA	0.0000	-SN	9999	1350	0	0	0
2020/09/04 07:27:01	BASE	2.98	246	3.65	245	-9.0	84	-11.2	0	0	1011.4	NA	0.0000	-SN	9999	1710	0	0	0
2020/09/04 07:28:01	BASE	3.16	246	3.65	245	-9.0	84	-11.2	0	0	1011.4	NA	0.0000	-SN	9999	1640	0	0	0
2020/09/04 07:29:01	BASE	2.89	245	3.65	245	-8.9	84	-11.2	0	0	1011.4	NA	0.0000	-SN	9999	1410	0	0	0
2020/09/04 07:30:01	BASE	2.75	247	3.65	245	-8.9	84	-11.2	0	0	1011.5	NA	0.0000	-SN	9999	1710	0	0	0
2020/09/04 07:31:01	BASE	2.84	245	3.65	245	-8.9	84	-11.1	0	0	1011.5	NA	0.0000	-SN	9999	1310	0	0	0
2020/09/04 07:32:01	BASE	2.82	241	3.65	245	-8.9	84	-11.1	0	0	1011.5	NA	0.0000	-SN	9999	1180	0	0	0
2020/09/04 07:33:01	BASE	3.19	238	4.27	230	-8.9	84	-11.2	0	0	1011.4	NA	0.0000	-SN	9999	490	0	0	0
2020/09/04 07:34:01	BASE	3.57	237	4.27	230	-8.9	84	-11.2	0	0	1011.4	NA	0.0000	-SN	9999	360	1870	0	0
2020/09/04 07:35:01	BASE	3.36	240	4.27	230	-8.9	83	-11.2	0	0	1011.4	NA	0.0000	-SN	9999	300	1840	0	0
2020/09/04 07:36:01	BASE	3.32	243	4.27	230	-8.9	83	-11.2	0	0	1011.4	NA	0.0000	-SN	8000	360	1510	0	0
2020/09/04 07:37:01	BASE	3.52	245	4.27	230	-8.9	83	-11.3	0	0	1011.4	NA	0.0000		9999	1020	0	0	0
2020/09/04 07:38:01	BASE	3.56	242	4.27	234	-8.9	83	-11.3	0	0	1011.4	NA	0.0000		9999	360	1610	0	0
2020/09/04 07:39:01	BASE	3.50	242	4.27	234	-8.9	83	-11.2	0	0	1011.4	NA	0.0000		9999	360	1770	0	0
2020/09/04 07:40:01	BASE	3.49	243	4.27	234	-8.9	83	-11.2	0	0	1011.4	NA	0.0000		9999	360	0	0	0
2020/09/04 07:41:01	BASE	3.45	240	4.27	234	-8.9	84	-11.2	0	0	1011.4	NA	0.0000		9999	590	0	0	0
2020/09/04 07:42:01	BASE	3.28	236	4.27	234	-8.9	84	-11.1	0	0	1011.3	NA	0.0000		9999	520	0	0	0
2020/09/04 07:43:01	BASE	3.10	235	4.27	234	-8.9	84	-11.1	0	0	1011.3	NA	0.0000		9999	430	1800	0	0
2020/09/04 07:44:01	BASE	2.92	232	4.27	234	-8.9	84	-11.1	0	0	1011.3	NA	0.0000	-SN	8000	590	1710	0	0
2020/09/04 07:45:01	BASE	2.56	231	4.27	234	-8.9	84	-11.1	0	0	1011.3	NA	0.0000	-SN	9999	690	0	0	0
2020/09/04 07:46:01	BASE	2.60	232	4.53	244	-8.9	84	-11.1	0	0	1011.3	NA	0.0000	-SN	9999	950	0	0	0
2020/09/04 07:47:01	BASE	3.23	233	4.53	244	-8.9	84	-11.1	0	0	1011.2	NA	0.0000	-SN	9999	390	0	0	0
2020/09/04 07:48:01	BASE	3.46	235	4.53	244	-8.9	84	-11.1	0	0	1011.2	NA	0.0000	-SN	5000	360	0	0	0
2020/09/04 07:49:01	BASE	3.45	234	4.58	237	-8.9	84	-11.1	0	0	1011.1	NA	0.0000	-SN	9999	690	0	0	0
2020/09/04 07:50:01	BASE	3.44	232	4.58	237	-8.9	84	-11.1	0	0	1011.1	NA	0.0000	-SN	9999	1570	0	0	0
2020/09/04 07:51:01	BASE	3.34	231	4.58	237	-8.9	84	-11.1	0	0	1011.1	NA	0.0000	-SN	9999	660	1670	0	0
2020/09/04 07:52:01	BASE	3.56	231	4.58	237	-8.9	84	-11.1	0	0	1011.1	NA	0.0000	-SN	9999	1440	0	0	0
2020/09/04 07:53:01	BASE	4.09	229	4.89	231	-8.9	84	-11.1	0	0	1011.1	NA	0.0000	-SN	9999	1540	0	0	0
2020/09/04 07:54:01	BASE	4.41	224	4.89	231	-8.9	84	-11.2	0	0	1011.1	NA	0.0000	-SN	9999	1410	0	0	0
2020/09/04 07:55:01	BASE	4.23	220	4.89	231	-8.9	84	-11.1	0	0	1011.1	NA	0.0000	-SN	9999	1280	0	0	0
2020/09/04 07:56:01	BASE	3.86	220	4.89	231	-8.9	84	-11.1	0	0	1011.1	NA	0.0000	-SN	9999	1250	0	0	0
2020/09/04 07:57:01	BASE	3.50	224	4.89	231	-8.9	84	-11.1	0	0	1011.1	NA	0.0000		9999	980	0	0	0
2020/09/04 07:58:01	BASE	3.45	226	4.89	231	-8.9	84	-11.1	0	0	1011.1	NA	0.0000		9999	1510	0	0	0
2020/09/04 07:59:01	BASE	3.48	222	4.89	231	-8.9	84	-11.1	0	0	1011.1	NA	0.0000		9999	920	0	0	0
2020/09/04 08:00:01	BASE	3.44	220	4.89	231	-8.9	84	-11.1	0	0	1011.1	NA	0.0000		9999	1440	0	0	0
2020/09/04 08:01:01	BASE	3.55	220	4.89	231	-8.9	84	-11.1	0	0	1011.1	NA	0.0000		9999	1540	0	0	0
2020/09/04 08:02:01	BASE	3.43	226	4.89	231	-8.9	84	-11.1	0	0	1011.1	NA	0.0000		9999	1350	0	0	0
2020/09/04 08:03:01	BASE	3.39	234	4.84	229	-8.9	84	-11.1	0	0	1011.1	NA	0.0000		8000	750	0	0	0
2020/09/04 08:04:01	BASE	3.65	232	4.48	221	-8.9	84	-11.1	0	0	1011.1	NA	0.0000	-SN	4600	1540	0	0	0
2020/09/04 08:05:01	BASE	3.89	232	4.42	236	-8.9	84	-11.1	0	0	1011.1	NA	0.0000	-SN	9999	1480	0	0	0
2020/09/04 08:06:01	BASE	4.04	234	4.42	236	-8.9	84	-11.1	0	0	1011.1	NA	0.0000	-SN	9999	1540	0	0	0
2020/09/04 08:07:01	BASE	3.97	239	4.42	236	-8.9	84	-11.1	0	0	1011.1	NA	0.0000	-SN	9999	1280	0	0	0
2020/09/04 08:08:01	BASE	3.94	239	4.58	239	-8.9	84	-11.1	0	0	1011.1	NA	0.0000	-SN	9999	790	0	0	0
2020/09/04 08:09:01	BASE	3.82	236	4.58	239	-8.9	84	-11.2	0	0	1011.1	NA	0.0000	-SN	9999	660	0	0	0
2020/09/04 08:10:01	BASE	3.54	232	4.58	239	-8.9	83	-11.2	0	0	1011.1	NA	0.0000	-SN	9999	1440	0	0	0
2020/09/04 08:11:01	BASE	3.41	229	4.58	239	-8.9	83	-11.2	0	0	1011.1	NA	0.0000	-SN	8000	1210	0	0	0
2020/09/04 08:12:01	BASE	3.60	231	4.58	239	-8.9	83	-11.3	0	0	1011.1	NA	0.0000	-SN	9999	720	0	0	0
2020/09/04 08:13:01	BASE	3.54	231	4.58	239	-8.9	83	-11.3	0	0	1011.1	NA	0.0000	-SN	9999	620	0	0	0
2020/09/04 08:14:01	BASE	3.53	230	4.58	239	-8.9	83	-11.3	0	0	1011.1	NA	0.0000	-SN	9999	920	0	0	0
2020/09/04 08:15:01	BASE	3.97	228	4.78	224	-8.9	83	-11.3	0	0	1011.1	NA	0.0000	-SN	9999	1080	0	0	0
2020/09/04 08:16:01	BASE	4.38	228	5.04	228	-8.9	83	-11.3	0	0	1011.1	NA	0.0000	-SN	9999	390	0	0	0
2020/09/04 08:17:00	BASE	4.64	230	5.35	227	-8.9	83	-11.3	0	0	1011.1	NA	0.0000	-SN	9999	490	0	0	0
2020/09/04 08:18:01	BASE	4.72	229	5.35	227	-8.9	83	-11.3	0	0	1011.1	NA	0.0000	-SN	9999	560	0	0	0
2020/09/04 08:19:01	BASE	4.67	228	5.35	227	-8.9	83	-11.3	0	0	1011.1	NA	0.0000	-SN	9999	390	0	0	0
2020/09/04 08:20:01	BASE	4.65	226	5.35	228	-8.9	83	-11.3	0	0	1011.1	NA	0.0000	-SN	7000	260	1710	0	0
2020/09/04 08:21:01	BASE	4.48	227	5.35	228	-8.9	83	-11.3	0	0	1011.1	NA	0.0000	-SN	5000	330	1440	0	0
2020/09/04 08:22:01	BASE	4.43	228	5.35	228	-8.9	83	-11.3	0	0	1011.1	NA	0.0000	-SN	9999	360	0	0	0
2020/09/04 08:23:01	BASE	4.65	228	5.71	228	-8.9	83	-11.2	0	0	1011.1	NA	0.0000	-SN	9999	460	1540	0	0
2020/09/04 08:24:01	BASE	4.84	230	5.71	228	-8.9	83	-11.2	0	0	1011.1	NA	0.0000	-SN	9999	560	0	0	0
2020/09/04 08:25:01	BASE	4.69	231	5.71	228	-8.9	84	-11.2	0	0	1011.1	NA	0.0000	-SN	9999	1610	0	0	0
2020/09/04 08:26:01	BASE	4.13	229	5.71	228	-8.9	84	-11.2	0	0	1011.1	NA	0.0000	-SN	9999	1440	0	0	0
2020/09/04 08:27:01	BASE	3.63	226	5.71	228	-8.9	84	-11.2	0	0	1011.1	NA	0.0000	-SN	9999	1440	0	0	0
2020/09/04 08:28:01	BASE	3.45	228	5.71	228	-8.9	84	-11.2	0	0	1011.1	NA	0.0000	-SN	9999	1510	0	0	0
2020/09/04 08:29:00	BASE	3.64	229	5.71	228	-9.0	84	-11.2	0	0	1011.0	NA	0.0000	-SN	9999	1610	0	0	0
2020/09/04 08:30:01	BASE	3.77	227	5.71	228	-9.0	84	-11.2	0	0	1011.0	NA	0.0000	-SN	9999	1640	0	0	0
2020/09/04 08:31:01	BASE	4.14	225	5.71	228	-9.0	83	-11.3	0	0	1011.0	NA	0.0000		9999	1540	0	0	0
2020/09/04 08:32:01	BASE	4.78	223	5.76	220	-9.0	83	-11.3	0	0	1010.9	NA	0.0000		9999	1510	0	0	0
2020/09/04 08:33:01	BASE	5.19	221	5.92	219	-9.0	83	-11.3	0	0	1010.9	NA	0.0000		9999	1480	0	0	0
2020/09/04 08:34:00	BASE	4.85	224	5.92	219	-9.0	83	-11.3	0	0	1010.9	NA	0.0000		9999	1540	0	0	0
2020/09/04 08:35:00	BASE	4.35	225	5.92	219	-9.0	83	-11.3	0	0	1010.9	NA	0.0000		9999	1510	0	0	0
2020/09/04 08:36:00	BASE	4.01	221	5.92	219	-9.0	83	-11.3	0	0	1010.9	NA	0.0000		9999	1540	0	0	0
2020/09/04 08:37:00	BASE	3.73	216	5.92	219	-9.0	83	-11.3	0	0	1010.9	NA	0.0000		9999	1510	0	0	0
2020/09/04 08:38:00	BASE	3.63	210	5.92	219	-9.0	83	-11.4	0	0	1010.9	NA	0.0000		9999	1410	0	0	0
2020/09/04 08:39:01	BASE	3.40	213	5.92	219	-9.0	83	-11.4	0	0	1010.9	NA	0.0000		9999	360	0	0	0
2020/09/04 08:40:01	BASE	3.41	216	5.92	219	-9.0	83	-11.4	0	0	1010.9	NA	0.0000		9999	360	0	0	0
2020/09/04 08:41:00	BASE	3.24	216	5.92	219	-9.0	83	-11.4	0	0	1010.9	NA	0.0000	-SN	4400	330	0	0	0
2020/09/04 08:42:00	BASE	3.10	217	5.92	219	-9.0	83	-11.4	0	0	1010.9	NA	0.0000	-SN	6000	360	0	0	0
2020/09/04 08:43:00	BASE	3.21	217	4.58	225	-9.0	83	-11.4	0	0	1010.9	NA	0.0000	-SN	3900	330	0	0	0
2020/09/04 08:44:00	BASE	3.26	211	4.58	225	-8.9	82	-11.4	0	0	1010.9	NA	0.0000	-SN	3700	520	0	0	0
2020/09/04 08:45:00	BASE	3.65	202	4.32	199	-8.9	82	-11.4	0	0	1010.9	NA	0.0000	-SN	9999	1540	0	0	0
2020/09/04 08:46:01	BASE	3.62	207	4.32	199	-8.9	82	-11.5	0	0	1010.9	NA	0.0000	-SN	9999	1480	0	0	0
2020/09/04 08:47:00	BASE	2.80	231	4.32	199	-9.0	82	-11.5	0	0	1010.9	NA	0.0000	-SN	9999	1410	0	0	0
2020/09/04 08:48:00	BASE	2.01	240	4.32	199	-9.0	82	-11.5	0	0	1010.9	NA	0.0000	-SN	9999	1540	0	0	0
2020/09/04 08:49:01	BASE	1.91	226	4.32	199	-9.0	82	-11.5	0	0	1010.9	NA	0.0000	-SN	9999	920	1610	0	0
2020/09/04 08:50:01	BASE	2.18	217	4.32	199	-9.0	82	-11.5	0	0	1010.9	NA	0.0000	-SN	9999	1380	0	0	0
2020/09/04 08:51:00	BASE	2.42	218	4.32	199	-9.0	82	-11.5	0	0	1010.9	NA	0.0000	-SN	9999	1350	0	0	0
2020/09/04 08:52:00	BASE	2.69	221	4.32	199	-9.0	82	-11.5	0	0	1010.9	NA	0.0000	-SN	9999	920	0	0	0
2020/09/04 08:53:01	BASE	2.73	225	4.32	199	-9.0	82	-11.5	0	0	1010.8	NA	0.0000		9999	1510	0	0	0
2020/09/04 08:54:00	BASE	2.78	223	4.32	199	-8.9	82	-11.5	0	0	1010.8	NA	0.0000		9999	1540	0	0	0
2020/09/04 08:55:00	BASE	2.63	223	3.65	252	-8.9	82	-11.4	0	0	1010.8	NA	0.0000		9999	1510	0	0	0
2020/09/04 08:56:00	BASE	2.35	222	3.65	252	-8.9	82	-11.4	0	0	1010.8	NA	0.0000		9999	430	0	0	0
2020/09/04 08:57:00	BASE	2.28	221	3.34	227	-8.9	82	-11.5	0	0	1010.8	NA	0.0000		9999	1570	0	0	0
2020/09/04 08:58:00	BASE	2.13	226	3.34	227	-8.9	82	-11.5	0	0	1010.8	NA	0.0000		9999	1570	0	0	0
2020/09/04 08:59:00	BASE	2.52	227	3.81	229	-9.0	82	-11.5	0	0	1010.8	NA	0.0000		9999	1510	0	0	0
2020/09/04 09:00:01	BASE	3.02	230	3.81	229	-9.0	82	-11.5	0	0	1010.8	NA	0.0000		9999	1540	0	0	0
2020/09/04 09:01:00	BASE	2.86	234	3.81	229	-9.0	82	-11.5	0	0	1010.8	NA	0.0000		9999	1480	0	0	0
2020/09/04 09:02:00	BASE	2.87	239	3.81	229	-9.0	82	-11.5	0	0	1010.8	NA	0.0000		9999	1480	0	0	0
2020/09/04 09:03:00	BASE	3.01	242	3.81	229	-9.0	82	-11.5	0	0	1010.7	NA	0.0000		9999	1480	0	0	0
2020/09/04 09:04:00	BASE	3.26	241	3.81	229	-9.0	82	-11.6	0	0	1010.7	NA	0.0000		9999	1480	0	0	0
2020/09/04 09:05:00	BASE	3.19	239	3.81	229	-9.1	82	-11.6	0	0	1010.7	NA	0.0000		9999	1480	0	0	0
2020/09/04 09:06:00	BASE	2.82	242	3.81	229	-9.1	82	-11.6	0	0	1010.8	NA	0.0000		9999	1440	0	0	0
2020/09/04 09:07:00	BASE	2.71	246	3.81	229	-9.1	82	-11.6	0	0	1010.8	NA	0.0000		9999	1480	0	0	0
2020/09/04 09:08:00	BASE	2.89	241	3.81	229	-9.1	82	-11.6	0	0	1010.8	NA	0.0000		9999	1350	0	0	0
2020/09/04 09:09:01	BASE	3.22	232	3.76	230	-9.1	82	-11.5	0	0	1010.8	NA	0.0000		9999	1380	0	0	0
2020/09/04 09:10:01	BASE	3.22	231	3.76	230	-9.1	82	-11.5	0	0	1010.8	NA	0.0000		9999	660	0	0	0
2020/09/04 09:11:01	BASE	2.94	235	3.76	230	-9.0	83	-11.5	0	0	1010.8	NA	0.0000		9999	620	1540	0	0
2020/09/04 09:12:00	BASE	2.84	240	3.76	230	-9.0	83	-11.4	0	0	1010.7	NA	0.0000		9999	820	0	0	0
2020/09/04 09:13:00	BASE	2.63	247	3.76	230	-9.0	83	-11.4	0	0	1010.7	NA	0.0000		9999	1440	0	0	0
2020/09/04 09:14:00	BASE	2.73	248	3.76	230	-9.0	83	-11.4	0	0	1010.7	NA	0.0000		9999	1310	0	0	0
2020/09/04 09:15:00	BASE	3.02	236	3.76	230	-9.0	83	-11.4	0	0	1010.7	NA	0.0000		9999	1280	0	0	0
2020/09/04 09:16:01	BASE	3.11	220	3.81	220	-9.0	83	-11.3	0	0	1010.7	NA	0.0000		9999	1310	0	0	0
2020/09/04 09:17:01	BASE	3.40	211	3.81	210	-9.0	83	-11.3	0	0	1010.7	NA	0.0000		9999	1540	0	0	0
2020/09/04 09:18:00	BASE	3.33	210	3.81	210	-8.9	83	-11.3	0	0	1010.7	NA	0.0000		9999	1410	0	0	0
2020/09/04 09:19:00	BASE	3.59	212	4.37	216	-8.9	83	-11.3	0	0	1010.7	NA	0.0000	-SN	9999	1410	0	0	0
2020/09/04 09:20:00	BASE	4.05	212	4.94	203	-8.9	83	-11.3	0	0	1010.7	NA	0.0000	-SN	9999	1410	0	0	0
2020/09/04 09:21:00	BASE	4.12	212	4.94	203	-8.9	83	-11.3	0	0	1010.7	NA	0.0000	-SN	9999	1380	0	0	0
2020/09/04 09:22:00	BASE	4.20	205	4.94	203	-8.9	83	-11.3	0	0	1010.7	NA	0.0000	-SN	9999	1410	0	0	0
2020/09/04 09:23:00	BASE	4.05	200	4.94	203	-8.9	83	-11.3	0	0	1010.7	NA	0.0000	-SN	9999	790	1380	0	0
2020/09/04 09:24:00	BASE	3.65	201	4.94	203	-8.9	83	-11.3	0	0	1010.7	NA	0.0000	-SN	9999	430	0	0	0
2020/09/04 09:25:00	BASE	3.19	198	4.94	203	-9.0	83	-11.3	0	0	1010.8	NA	0.0000	-SN	9999	460	0	0	0
2020/09/04 09:26:01	BASE	2.78	200	4.94	203	-9.0	83	-11.3	0	0	1010.7	NA	0.0000	-SN	9999	430	0	0	0
2020/09/04 09:27:00	BASE	2.71	202	4.94	203	-9.0	83	-11.4	0	0	1010.8	NA	0.0000	-SN	8000	330	0	0	0
2020/09/04 09:28:00	BASE	2.80	205	4.94	203	-9.0	83	-11.4	0	0	1010.7	NA	0.0000	-SN	3900	360	0	0	0
2020/09/04 09:29:00	BASE	2.91	211	4.94	203	-9.0	83	-11.3	0	0	1010.7	NA	0.0000	-SN	3200	360	0	0	0
2020/09/04 09:30:00	BASE	3.27	211	4.89	193	-9.0	83	-11.3	0	0	1010.7	NA	0.0000	-SN	4000	390	0	0	0
2020/09/04 09:31:00	BASE	3.85	212	4.89	193	-8.9	83	-11.3	0	0	1010.7	NA	0.0000	-SN	4000	330	0	0	0
2020/09/04 09:32:01	BASE	4.08	215	4.68	218	-8.9	83	-11.3	0	0	1010.7	NA	0.0000	-SN	9000	1310	0	0	0
2020/09/04 09:33:00	BASE	4.06	212	4.68	218	-8.9	83	-11.3	0	0	1010.7	NA	0.0000	-SN	9999	1280	0	0	0
2020/09/04 09:34:00	BASE	4.46	214	5.81	227	-8.9	83	-11.3	0	0	1010.7	NA	0.0000	-SN	9999	1480	0	0	0
2020/09/04 09:35:00	BASE	4.80	216	5.81	227	-8.9	83	-11.3	0	0	1010.7	NA	0.0000	-SN	9999	1410	0	0	0
2020/09/04 09:36:00	BASE	4.15	210	5.81	227	-9.0	83	-11.3	0	0	1010.8	NA	0.0000	-SN	9999	1210	0	0	0
2020/09/04 09:37:00	BASE	3.49	212	5.81	227	-9.0	83	-11.4	0	0	1010.8	NA	0.0000	-SN	9999	1280	0	0	0
2020/09/04 09:38:00	BASE	3.29	222	5.81	227	-9.0	83	-11.4	0	0	1010.8	NA	0.0000	-SN	9999	1310	0	0	0
2020/09/04 09:39:00	BASE	2.87	225	5.81	227	-9.0	83	-11.4	0	0	1010.8	NA	0.0000	-SN	9999	1250	0	0	0
2020/09/04 09:40:00	BASE	2.51	226	5.81	227	-9.0	83	-11.4	0	0	1010.8	NA	0.0000	-SN	9999	1350	0	0	0
2020/09/04 09:41:00	BASE	2.40	227	5.81	227	-9.0	83	-11.4	0	0	1010.8	NA	0.0000		9999	1310	0	0	0
2020/09/04 09:42:00	BASE	2.65	227	5.81	227	-9.0	83	-11.4	0	0	1010.8	NA	0.0000		9999	1310	0	0	0
2020/09/04 09:43:00	BASE	2.72	228	5.81	227	-9.0	83	-11.4	0	0	1010.8	NA	0.0000		9999	1350	0	0	0
2020/09/04 09:44:00	BASE	2.42	234	5.61	217	-9.0	83	-11.4	0	0	1010.8	NA	0.0000		9999	1310	0	0	0
2020/09/04 09:45:00	BASE	2.39	242	3.91	203	-9.0	83	-11.4	0	0	1010.8	NA	0.0000		9999	1410	0	0	0
2020/09/04 09:46:00	BASE	2.42	244	3.81	217	-9.0	83	-11.4	0	0	1010.8	NA	0.0000		9999	1280	0	0	0
2020/09/04 09:47:00	BASE	2.92	241	3.86	239	-9.0	83	-11.4	0	0	1010.7	NA	0.0000		9999	1250	0	0	0
2020/09/04 09:48:00	BASE	3.21	237	3.86	239	-9.0	83	-11.4	0	0	1010.7	NA	0.0000		9999	1210	0	0	0
2020/09/04 09:49:00	BASE	2.85	233	3.86	239	-9.0	83	-11.4	0	0	1010.7	NA	0.0000		9999	1350	0	0	0
2020/09/04 09:50:00	BASE	3.15	238	3.91	246	-9.0	83	-11.4	0	0	1010.7	NA	0.0000		9999	1250	0	0	0
2020/09/04 09:51:00	BASE	3.35	239	3.91	246	-9.0	83	-11.4	0	0	1010.7	NA	0.0000		9999	1120	0	0	0
2020/09/04 09:52:00	BASE	2.88	234	3.91	246	-9.0	83	-11.4	0	0	1010.7	NA	0.0000		9999	1310	0	0	0
2020/09/04 09:53:00	BASE	2.54	234	3.91	246	-9.0	83	-11.4	0	0	1010.7	NA	0.0000		9999	1350	0	0	0
2020/09/04 09:54:00	BASE	2.60	238	3.91	246	-9.0	83	-11.4	0	0	1010.7	NA	0.0000		9999	1380	0	0	0
2020/09/04 09:55:00	BASE	2.75	237	3.91	246	-9.0	83	-11.4	0	0	1010.7	NA	0.0000		9999	1410	0	0	0
2020/09/04 09:56:00	BASE	2.69	233	3.91	246	-9.0	83	-11.4	0	0	1010.7	NA	0.0000		9999	1410	0	0	0
2020/09/04 09:57:00	BASE	2.83	230	3.91	246	-9.0	83	-11.3	0	0	1010.7	NA	0.0000		9999	820	0	0	0
2020/09/04 09:58:00	BASE	3.00	230	3.91	246	-9.0	83	-11.3	0	0	1010.7	NA	0.0000		9999	1440	0	0	0
2020/09/04 09:59:00	BASE	3.08	235	3.91	246	-9.0	84	-11.3	0	0	1010.7	NA	0.0000		9999	1440	0	0	0
2020/09/04 10:00:00	BASE	3.60	231	4.32	228	-9.0	84	-11.2	0	0	1010.7	NA	0.0000		9999	520	0	0	0
2020/09/04 10:01:00	BASE	3.74	223	4.68	220	-9.0	84	-11.2	0	0	1010.7	NA	0.0000		9999	1410	0	0	0
2020/09/04 10:02:00	BASE	3.37	224	4.68	220	-8.9	84	-11.2	0	0	1010.7	NA	0.0000		9999	1310	0	0	0
2020/09/04 10:03:00	BASE	3.23	225	4.68	220	-8.9	84	-11.1	0	0	1010.7	NA	0.0000	-SN	9999	1480	0	0	0
2020/09/04 10:04:00	BASE	3.58	219	4.68	220	-8.9	84	-11.1	0	0	1010.7	NA	0.0000	-SN	9999	1440	0	0	0
2020/09/04 10:05:00	BASE	3.83	222	4.68	220	-8.9	84	-11.1	0	0	1010.7	NA	0.0000	-SN	9999	1310	0	0	0
2020/09/04 10:06:00	BASE	3.46	230	4.68	220	-8.9	84	-11.2	0	0	1010.7	NA	0.0000	-SN	9999	1310	0	0	0
2020/09/04 10:07:00	BASE	3.08	233	4.68	220	-9.0	84	-11.2	0	0	1010.7	NA	0.0000	-SN	5000	920	0	0	0
2020/09/04 10:08:00	BASE	3.02	234	4.68	220	-9.0	84	-11.2	0	0	1010.7	NA	0.0000	-SN	7000	430	0	0	0
2020/09/04 10:09:00	BASE	3.24	235	4.68	220	-9.0	84	-11.2	0	0	1010.7	NA	0.0000	-SN	9999	1310	0	0	0
2020/09/04 10:10:00	BASE	3.50	233	4.68	220	-9.0	84	-11.2	0	0	1010.7	NA	0.0000	-SN	9999	1280	0	0	0
2020/09/04 10:11:00	BASE	3.36	225	4.37	219	-8.9	84	-11.2	0	0	1010.7	NA	0.0000	-SN	9999	1210	0	0	0
2020/09/04 10:12:00	BASE	3.04	211	4.37	219	-8.9	84	-11.2	0	0	1010.7	NA	0.0000	-SN	9999	1280	0	0	0
2020/09/04 10:13:00	BASE	2.91	213	4.37	219	-9.0	84	-11.2	0	0	1010.7	NA	0.0000	-SN	9999	1310	0	0	0
2020/09/04 10:14:00	BASE	3.10	221	4.78	231	-9.0	84	-11.2	0	0	1010.7	NA	0.0000	-SN	9999	1310	0	0	0
2020/09/04 10:15:00	BASE	3.78	227	4.78	231	-9.0	84	-11.2	0	0	1010.7	NA	0.0000	-SN	9999	1310	0	0	0
2020/09/04 10:16:00	BASE	3.74	225	4.78	231	-9.0	84	-11.2	0	0	1010.7	NA	0.0000	-SN	9999	820	0	0	0
2020/09/04 10:17:00	BASE	2.70	209	4.78	231	-9.0	84	-11.2	0	0	1010.7	NA	0.0000	-SN	8000	1350	0	0	0
2020/09/04 10:18:00	BASE	2.13	204	4.78	231	-9.0	84	-11.2	0	0	1010.7	NA	0.0000	-SN	9999	1280	0	0	0
2020/09/04 10:19:00	BASE	2.21	212	4.78	231	-9.0	84	-11.2	0	0	1010.7	NA	0.0000	-SN	9999	1210	0	0	0
2020/09/04 10:20:00	BASE	2.17	220	4.78	231	-9.0	84	-11.2	0	0	1010.7	NA	0.0000	-SN	9999	1350	0	0	0
2020/09/04 10:21:00	BASE	2.23	220	4.78	231	-9.0	84	-11.2	0	0	1010.7	NA	0.0000	-SN	9999	1380	0	0	0
2020/09/04 10:22:00	BASE	2.81	223	4.78	231	-9.0	84	-11.2	0	0	1010.7	NA	0.0000	-SN	9999	1380	0	0	0
2020/09/04 10:23:00	BASE	3.53	235	4.78	231	-9.0	84	-11.2	0	0	1010.7	NA	0.0000	-SN	9999	1410	0	0	0
2020/09/04 10:24:00	BASE	3.93	242	4.78	245	-9.0	84	-11.2	0	0	1010.7	NA	0.0000	-SN	9999	1350	0	0	0
2020/09/04 10:25:00	BASE	4.54	241	6.02	247	-9.0	84	-11.2	0	0	1010.6	NA	0.0000	-SN	9999	1210	0	0	0
2020/09/04 10:26:00	BASE	4.00	235	6.02	247	-9.0	84	-11.3	0	0	1010.7	NA	0.0000	-SN	9999	1350	0	0	0
2020/09/04 10:27:00	BASE	2.14	241	6.02	247	-9.1	84	-11.3	0	0	1010.7	NA	0.0000	-SN	9999	1410	0	0	0
2020/09/04 10:28:00	BASE	1.90	247	6.02	247	-9.1	84	-11.3	0	0	1010.7	NA	0.0000	-SN	9999	1440	0	0	0
2020/09/04 10:29:00	BASE	2.82	231	6.02	247	-9.1	84	-11.3	0	0	1010.7	NA	0.0000	-SN	9999	1510	0	0	0
2020/09/04 10:30:00	BASE	3.01	218	6.02	247	-9.1	84	-11.3	0	0	1010.7	NA	0.0000	-SN	9999	1510	0	0	0
2020/09/04 10:31:00	BASE	3.15	211	6.02	247	-9.1	84	-11.3	0	0	1010.7	NA	0.0000	-SN	9999	1380	0	0	0
2020/09/04 10:32:00	BASE	3.58	205	6.02	247	-9.1	84	-11.3	0	0	1010.7	NA	0.0000	-SN	9999	1380	0	0	0
2020/09/04 10:33:00	BASE	3.70	204	6.02	247	-9.1	84	-11.3	1	0	1010.7	NA	0.0000	-SN	9999	1310	0	0	0
2020/09/04 10:34:00	BASE	3.60	202	6.02	247	-9.1	84	-11.3	1	0	1010.7	NA	0.0000	-SN	9999	1250	0	0	0
2020/09/04 10:35:00	BASE	3.28	204	4.01	202	-9.1	84	-11.3	1	0	1010.7	NA	0.0000	-SN	9999	1350	0	0	0
2020/09/04 10:36:00	BASE	3.06	211	4.01	202	-9.1	84	-11.3	1	0	1010.7	NA	0.0000	-SN	9999	1310	0	0	0
2020/09/04 10:37:00	BASE	3.05	217	4.01	202	-9.1	84	-11.3	1	0	1010.7	NA	0.0000	-SN	9999	1210	0	0	0
2020/09/04 10:38:00	BASE	3.06	221	4.01	202	-9.1	84	-11.3	1	0	1010.7	NA	0.0000	-SN	9999	1150	0	0	0
2020/09/04 10:39:00	BASE	2.96	219	4.01	202	-9.0	84	-11.2	1	0	1010.7	NA	0.0000	-SN	9999	660	0	0	0
2020/09/04 10:40:00	BASE	2.75	216	4.01	202	-9.0	84	-11.2	1	0	1010.7	NA	0.0000	-SN	6000	360	0	0	0
2020/09/04 10:41:00	BASE	2.60	220	4.01	202	-9.0	84	-11.2	1	0	1010.7	NA	0.0000	-SN	4800	1210	0	0	0
2020/09/04 10:42:00	BASE	2.81	224	4.01	202	-9.0	84	-11.2	1	0	1010.7	NA	0.0000	-SN BR	9999	1120	0	0	0
2020/09/04 10:43:00	BASE	2.86	229	3.65	230	-9.0	84	-11.2	1	0	1010.7	NA	0.0000	-SN BR	9999	660	0	0	0
2020/09/04 10:44:00	BASE	2.61	232	3.65	230	-9.0	84	-11.2	1	0	1010.7	NA	0.0000	-SN BR	9999	430	0	0	0
2020/09/04 10:45:00	BASE	2.47	238	3.65	230	-9.0	84	-11.2	1	0	1010.7	NA	0.0000	-SN BR	9000	620	0	0	0
2020/09/04 10:46:00	BASE	2.45	242	3.65	230	-9.0	84	-11.2	1	0	1010.7	NA	0.0000	-SN BR	9000	390	0	0	0
2020/09/04 10:47:00	BASE	2.42	237	3.65	230	-9.0	84	-11.2	1	0	1010.7	NA	0.0000	-SN BR	9999	720	0	0	0
2020/09/04 10:48:00	BASE	2.38	234	3.65	230	-9.0	84	-11.2	1	0	1010.7	NA	0.0000	-SN BR	9999	390	0	0	0
2020/09/04 10:49:00	BASE	2.88	229	3.70	228	-9.0	84	-11.2	2	0	1010.7	NA	0.0000	-SN BR	9000	390	0	0	0
2020/09/04 10:50:00	BASE	3.18	221	3.70	228	-9.0	84	-11.2	2	0	1010.8	NA	0.0000	-SN BR	9999	1280	0	0	0
2020/09/04 10:51:00	BASE	2.92	212	3.70	228	-9.0	84	-11.1	2	0	1010.8	NA	0.0000	-SN	9000	1280	0	0	0
2020/09/04 10:52:00	BASE	2.71	209	3.70	228	-9.0	85	-11.1	2	0	1010.8	NA	0.0000	-SN	7000	1310	0	0	0
2020/09/04 10:53:00	BASE	2.98	209	4.58	208	-9.0	85	-11.1	2	0	1010.8	NA	0.0000	-SN BR	9999	560	0	0	0
2020/09/04 10:54:00	BASE	3.71	213	4.58	208	-9.0	85	-11.1	2	0	1010.8	NA	0.0000	-SN BR	9999	1350	0	0	0
2020/09/04 10:55:00	BASE	4.35	221	5.30	225	-9.0	85	-11.1	2	0	1010.8	NA	0.0000	-SN	9999	980	0	0	0
2020/09/04 10:56:00	BASE	4.41	226	5.30	225	-9.0	85	-11.1	3	0	1010.8	NA	0.0000	-SN	9999	720	0	0	0
2020/09/04 10:57:00	BASE	4.25	227	5.30	225	-9.0	85	-11.1	3	0	1010.9	NA	0.0000	-SN	9999	1250	0	0	0
2020/09/04 10:58:00	BASE	4.23	225	5.30	225	-9.0	85	-11.1	3	0	1010.9	NA	0.0000	-SN	9999	560	0	0	0
2020/09/04 10:59:00	BASE	3.79	223	5.30	225	-9.0	85	-11.1	3	0	1010.9	NA	0.0000	-SN	9999	1180	0	0	0
2020/09/04 11:00:00	BASE	3.11	227	5.30	225	-9.1	85	-11.1	3	0	1010.9	NA	0.0000	-SN	9999	1210	0	0	0
2020/09/04 11:01:00	BASE	2.53	226	5.30	225	-9.1	85	-11.1	3	0	1010.9	NA	0.0000	-SN	9999	1280	0	0	0
2020/09/04 11:02:00	BASE	2.56	219	5.30	225	-9.1	85	-11.1	3	0	1010.9	NA	0.0000	-SN	9999	820	0	0	0
2020/09/04 11:03:00	BASE	3.01	209	5.30	225	-9.1	85	-11.2	4	0	1010.9	NA	0.0000	-SN	9999	850	0	0	0
2020/09/04 11:04:00	BASE	3.49	202	5.30	225	-9.1	85	-11.2	4	0	1010.9	NA	0.0000	-SN	9999	790	0	0	0
2020/09/04 11:05:00	BASE	3.77	204	4.99	222	-9.1	85	-11.2	4	0	1010.9	NA	0.0000	-SN	9999	1350	0	0	0
2020/09/04 11:06:00	BASE	3.69	202	4.99	222	-9.1	85	-11.2	4	0	1010.9	NA	0.0000	-SN	9999	1350	0	0	0
2020/09/04 11:07:00	BASE	4.24	202	5.35	211	-9.1	85	-11.2	4	0	1010.9	NA	0.0000	-SN	9999	1380	0	0	0
2020/09/04 11:08:00	BASE	4.71	205	5.35	211	-9.1	85	-11.2	4	0	1010.9	NA	0.0000	-SN	9999	1180	0	0	0
2020/09/04 11:09:00	BASE	4.52	200	5.35	211	-9.1	85	-11.2	5	0	1010.9	NA	0.0000	-SN	9999	1210	0	0	0
2020/09/04 11:10:00	BASE	4.18	198	5.35	211	-9.1	85	-11.2	5	0	1010.9	NA	0.0000	-SN	8000	1280	0	0	0
2020/09/04 11:11:00	BASE	3.23	200	5.35	211	-9.1	85	-11.2	5	0	1010.9	NA	0.0000	-SN	9000	690	0	0	0
2020/09/04 11:12:00	BASE	2.55	199	5.35	211	-9.2	85	-11.2	6	0	1010.9	NA	0.0000	-SN	9999	920	0	0	0
2020/09/04 11:13:00	BASE	2.53	193	5.35	211	-9.2	85	-11.2	6	0	1010.9	NA	0.0000	-SN	9999	1310	0	0	0
2020/09/04 11:14:00	BASE	2.60	189	5.35	211	-9.2	85	-11.2	6	0	1010.9	NA	0.0000	-SN	9999	1150	0	0	0
2020/09/04 11:15:00	BASE	2.78	190	5.35	211	-9.2	85	-11.2	7	0	1010.9	NA	0.0000	-SN	9999	1150	0	0	0
2020/09/04 11:16:00	BASE	2.77	196	5.35	211	-9.2	85	-11.2	7	0	1010.9	NA	0.0000	-SN	9999	460	0	0	0
2020/09/04 11:17:00	BASE	2.64	206	5.04	196	-9.1	85	-11.2	7	0	1010.9	NA	0.0000	-SN	6000	390	1210	0	0
2020/09/04 11:18:00	BASE	2.47	212	5.04	196	-9.1	85	-11.2	8	0	1010.9	NA	0.0000	-SN BR	5000	390	0	0	0
2020/09/04 11:19:00	BASE	2.35	215	4.58	194	-9.1	85	-11.2	8	0	1010.9	NA	0.0000	-SN BR	9999	390	1350	0	0
2020/09/04 11:20:00	BASE	2.60	212	3.34	212	-9.1	85	-11.2	8	0	1010.9	NA	0.0000	-SN BR	3000	430	0	0	0
2020/09/04 11:21:00	BASE	3.25	212	4.12	218	-9.1	85	-11.1	8	0	1010.9	NA	0.0000	-SN BR	9999	1250	0	0	0
2020/09/04 11:22:00	BASE	3.72	224	4.48	235	-9.1	85	-11.1	9	0	1010.9	NA	0.0000	-SN BR	9999	1180	0	0	0
2020/09/04 11:23:00	BASE	3.62	237	4.48	235	-9.1	85	-11.1	9	0	1011.0	NA	0.0000	-SN BR	9999	1120	0	0	0
2020/09/04 11:24:00	BASE	3.65	243	4.63	238	-9.1	85	-11.1	9	0	1011.1	NA	0.0000	-SN BR	9999	1310	0	0	0
2020/09/04 11:25:00	BASE	4.02	247	4.63	238	-9.1	85	-11.1	9	0	1011.1	NA	0.0000	-SN BR	9999	1210	0	0	0
2020/09/04 11:26:00	BASE	4.23	252	4.68	251	-9.1	85	-11.2	10	0	1011.1	NA	0.0000	-SN BR	9999	1210	0	0	0
2020/09/04 11:27:00	BASE	3.99	253	4.68	251	-9.1	85	-11.2	10	0	1011.1	NA	0.0000	-SN BR	9999	430	0	0	0
2020/09/04 11:28:00	BASE	3.39	250	4.68	251	-9.1	85	-11.2	10	0	1011.1	NA	0.0000	-SN BR	9999	460	0	0	0
2020/09/04 11:29:00	BASE	3.21	247	4.68	251	-9.1	85	-11.2	11	0	1011.1	NA	0.0000	-SN BR	9999	520	0	0	0
2020/09/04 11:30:00	BASE	3.51	238	4.68	251	-9.1	85	-11.2	11	0	1011.1	NA	0.0000		9999	1250	0	0	0
2020/09/04 11:31:00	BASE	3.56	226	4.68	251	-9.1	85	-11.2	12	0	1011.1	NA	0.0000		9999	1050	0	0	0
2020/09/04 11:32:00	BASE	3.17	222	4.68	251	-9.1	85	-11.2	12	0	1011.1	NA	0.0000		9999	460	0	0	0
2020/09/04 11:33:00	BASE	2.95	218	4.68	251	-9.1	85	-11.2	13	0	1011.1	NA	0.0000		9999	720	0	0	0
2020/09/04 11:34:00	BASE	2.74	216	4.68	251	-9.1	85	-11.2	14	0	1011.1	NA	0.0000		9999	1310	0	0	0
2020/09/04 11:35:00	BASE	2.62	224	4.68	251	-9.1	85	-11.2	14	0	1011.1	NA	0.0000		9999	980	0	0	0
2020/09/04 11:36:00	BASE	2.90	228	4.32	254	-9.1	85	-11.2	14	0	1011.1	NA	0.0000		9999	850	0	0	0
2020/09/04 11:37:00	BASE	3.22	223	4.06	225	-9.1	85	-11.2	15	0	1011.1	NA	0.0000	-SN	9999	1310	0	0	0
2020/09/04 11:38:00	BASE	3.73	225	4.48	226	-9.1	85	-11.2	15	0	1011.1	NA	0.0000	-SN	9999	1280	0	0	0
2020/09/04 11:39:00	BASE	3.75	228	4.48	226	-9.1	85	-11.2	15	0	1011.1	NA	0.0000	-SN	9999	1280	0	0	0
2020/09/04 11:40:00	BASE	3.19	228	4.48	226	-9.1	85	-11.2	15	0	1011.1	NA	0.0000	-SN	9999	1250	0	0	0
2020/09/04 11:41:00	BASE	3.05	231	4.48	226	-9.1	85	-11.2	15	0	1011.1	NA	0.0000	-SN	9999	1250	0	0	0
2020/09/04 11:42:00	BASE	2.84	240	4.48	226	-9.1	85	-11.2	15	0	1011.1	NA	0.0000	-SN	9999	1310	0	0	0
2020/09/04 11:43:00	BASE	2.39	240	4.48	226	-9.1	85	-11.2	16	0	1011.1	NA	0.0000	-SN	9999	1350	0	0	0
2020/09/04 11:44:00	BASE	2.52	231	4.48	226	-9.2	85	-11.2	17	0	1010.9	NA	0.0000	-SN	9999	1150	0	0	0
2020/09/04 11:45:00	BASE	2.67	229	4.48	226	-9.2	85	-11.2	17	0	1010.9	NA	0.0000		9999	1180	0	0	0
2020/09/04 11:46:00	BASE	2.71	230	4.48	226	-9.2	85	-11.2	18	0	1010.9	NA	0.0000		9999	790	0	0	0
2020/09/04 11:47:00	BASE	3.14	227	4.48	226	-9.2	85	-11.2	18	0	1010.9	NA	0.0000		9999	430	0	0	0
2020/09/04 11:48:00	BASE	3.20	226	4.01	223	-9.1	85	-11.2	19	0	1010.9	NA	0.0000	-SN	9999	430	0	0	0
2020/09/04 11:49:00	BASE	3.00	227	4.01	223	-9.1	85	-11.2	19	0	1010.9	NA	0.0000	-SN	9999	620	1310	0	0
2020/09/04 11:50:00	BASE	3.07	221	4.01	223	-9.1	85	-11.2	19	0	1010.9	NA	0.0000	-SN	9999	660	0	0	0
2020/09/04 11:51:00	BASE	2.54	215	4.01	223	-9.1	85	-11.2	19	0	1010.9	NA	0.0000	-SN	9999	490	0	0	0
2020/09/04 11:52:00	BASE	2.19	222	4.01	223	-9.1	85	-11.2	19	0	1010.9	NA	0.0000	-SN	9999	980	0	0	0
2020/09/04 11:53:00	BASE	2.75	223	4.01	223	-9.1	85	-11.2	20	0	1010.9	NA	0.0000	-SN	9999	590	1380	0	0
2020/09/04 11:54:00	BASE	3.22	214	4.01	211	-9.1	85	-11.2	20	0	1010.9	NA	0.0000	-SN	9999	660	0	0	0
2020/09/04 11:55:00	BASE	3.44	208	4.12	210	-9.1	85	-11.2	20	0	1010.9	NA	0.0000	-SN	9999	390	0	0	0
2020/09/04 11:56:00	BASE	3.29	199	4.12	210	-9.1	85	-11.2	21	0	1010.9	NA	0.0000	-SN	9000	390	0	0	0
2020/09/04 11:57:00	BASE	2.94	194	4.12	210	-9.1	85	-11.2	22	0	1010.9	NA	0.0000	-SN	8000	1280	0	0	0
2020/09/04 11:58:00	BASE	2.99	197	4.12	210	-9.1	85	-11.2	22	0	1010.9	NA	0.0000	-SN	9999	430	0	0	0
2020/09/04 11:59:00	BASE	3.09	197	4.12	210	-9.2	85	-11.2	23	0	1010.9	NA	0.0000	-SN	9999	850	0	0	0
2020/09/04 12:00:00	BASE	2.90	197	4.12	210	-9.2	85	-11.2	23	0	1010.9	NA	0.0000	-SN	9999	590	0	0	0
2020/09/04 12:01:00	BASE	2.95	193	4.12	210	-9.2	85	-11.2	24	0	1010.9	NA	0.0000	-SN	9999	1150	0	0	0
2020/09/04 12:02:00	BASE	3.27	189	4.12	210	-9.2	85	-11.2	24	0	1010.9	NA	0.0000	-SN	9999	980	0	0	0
2020/09/04 12:03:00	BASE	3.25	190	4.12	210	-9.2	85	-11.2	24	0	1010.9	NA	0.0000	-SN	9999	1180	0	0	0
2020/09/04 12:04:00	BASE	3.19	194	4.12	210	-9.2	85	-11.2	25	0	1010.9	NA	0.0000	-SN	9999	620	0	0	0
2020/09/04 12:05:00	BASE	3.64	200	4.53	212	-9.2	85	-11.2	26	0	1010.9	NA	0.0000	-SN	7000	1250	0	0	0
2020/09/04 12:06:00	BASE	4.04	202	4.53	212	-9.2	85	-11.2	27	0	1010.9	NA	0.0000	-SN	9999	1250	0	0	0
2020/09/04 12:07:00	BASE	4.05	197	4.53	212	-9.2	85	-11.2	28	0	1010.9	NA	0.0000	-SN	9999	1310	0	0	0
2020/09/04 12:08:00	BASE	4.17	195	4.89	198	-9.2	85	-11.3	29	0	1010.9	NA	0.0000	-SN	9999	920	0	0	0
2020/09/04 12:09:00	BASE	3.96	191	4.89	198	-9.2	85	-11.3	29	0	1010.9	NA	0.0000	-SN	9999	1210	0	0	0
2020/09/04 12:10:00	BASE	3.39	187	4.89	198	-9.2	85	-11.3	30	0	1010.9	NA	0.0000	-SN BR	5000	950	0	0	0
2020/09/04 12:11:00	BASE	3.31	185	4.89	198	-9.2	85	-11.3	31	0	1010.9	NA	0.0000	-SN BR	9000	1210	0	0	0
2020/09/04 12:12:00	BASE	3.62	187	4.89	198	-9.2	85	-11.3	31	0	1010.9	NA	0.0000	-SN BR	7000	490	1210	0	0
2020/09/04 12:13:00	BASE	3.80	199	4.89	198	-9.2	85	-11.2	31	0	1010.9	NA	0.0000	-SN BR	9999	1250	0	0	0
2020/09/04 12:14:00	BASE	3.59	207	4.89	198	-9.2	85	-11.2	31	0	1010.9	NA	0.0000	-SN BR	9999	620	0	0	0
2020/09/04 12:15:00	BASE	3.64	208	4.89	198	-9.2	86	-11.2	31	0	1010.9	NA	0.0000	-SN BR	9999	690	0	0	0
2020/09/04 12:16:00	BASE	3.86	209	4.89	198	-9.2	86	-11.1	32	0	1010.9	NA	0.0000	-SN	9999	690	0	0	0
2020/09/04 12:17:00	BASE	4.09	210	4.89	198	-9.2	86	-11.1	34	0	1010.9	NA	0.0000	-SN	9999	790	0	0	0
2020/09/04 12:18:00	BASE	4.28	213	4.78	215	-9.2	86	-11.1	36	0	1010.9	NA	0.0000	-SN	9999	1180	0	0	0
2020/09/04 12:19:00	BASE	3.91	213	4.78	215	-9.2	86	-11.2	38	0	1010.9	NA	0.0000	-SN	9999	1310	0	0	0
2020/09/04 12:20:00	BASE	3.37	208	4.78	215	-9.2	86	-11.2	41	0	1010.9	NA	0.0000	-SN	9999	1350	0	0	0
2020/09/04 12:21:00	BASE	3.21	203	4.78	215	-9.2	86	-11.1	44	0	1010.9	NA	0.0000		9999	1350	0	0	0
2020/09/04 12:22:00	BASE	3.05	196	4.78	215	-9.2	86	-11.2	46	0	1010.9	NA	0.0000		9999	1150	0	0	0
2020/09/04 12:23:00	BASE	2.82	188	4.78	215	-9.2	86	-11.2	47	0	1010.9	NA	0.0000		9999	1150	0	0	0
2020/09/04 12:24:00	BASE	2.86	181	4.78	215	-9.2	85	-11.2	48	0	1010.9	NA	0.0000		9999	1180	0	0	0
2020/09/04 12:25:00	BASE	2.71	175	4.78	215	-9.3	85	-11.3	48	0	1010.9	NA	0.0000		9999	1210	0	0	0
2020/09/04 12:26:00	BASE	2.77	171	4.78	215	-9.3	85	-11.3	47	0	1010.9	NA	0.0000		9999	1250	0	0	0
2020/09/04 12:27:00	BASE	2.81	173	4.78	215	-9.3	85	-11.3	47	0	1010.9	NA	0.0000		9999	1250	0	0	0
2020/09/04 12:28:00	BASE	2.67	178	4.32	208	-9.3	85	-11.4	47	0	1010.9	NA	0.0000		9999	1250	0	0	0
2020/09/04 12:29:00	BASE	2.71	182	3.86	197	-9.3	85	-11.4	47	0	1010.9	NA	0.0000		9999	1210	0	0	0
2020/09/04 12:30:00	BASE	2.60	188	3.86	197	-9.3	85	-11.4	47	0	1010.9	NA	0.0000	-SN	9999	1250	0	0	0
2020/09/04 12:31:00	BASE	2.34	196	3.60	202	-9.3	85	-11.4	47	0	1010.9	NA	0.0000	-SN	9999	980	0	0	0
2020/09/04 12:32:00	BASE	1.97	197	3.45	167	-9.3	85	-11.4	48	0	1010.9	NA	0.0000	-SN	9999	1250	0	0	0
2020/09/04 12:33:00	BASE	1.85	199	3.45	167	-9.3	85	-11.4	50	0	1010.8	NA	0.0000	-SN	9999	1210	0	0	0
2020/09/04 12:34:00	BASE	1.95	209	3.45	167	-9.3	85	-11.4	52	0	1010.9	NA	0.0000	-SN	9999	1210	0	0	0
2020/09/04 12:35:00	BASE	2.23	221	3.45	167	-9.3	85	-11.3	54	0	1010.8	NA	0.0000	-SN	9999	1310	0	0	0
2020/09/04 12:36:00	BASE	2.88	223	4.01	222	-9.3	85	-11.3	56	0	1010.8	NA	0.0000	-SN	9999	1280	0	0	0
2020/09/04 12:37:00	BASE	3.58	220	4.01	227	-9.2	85	-11.3	56	0	1010.8	NA	0.0000	-SN	9999	1280	0	0	0
2020/09/04 12:38:00	BASE	3.99	219	4.42	215	-9.2	85	-11.2	57	0	1010.7	NA	0.0000	-SN	9999	1350	19820	0	0
2020/09/04 12:39:00	BASE	3.89	217	4.42	215	-9.2	85	-11.2	59	0	1010.7	NA	0.0000	-SN	9999	1380	0	0	0
2020/09/04 12:40:00	BASE	3.22	213	4.42	215	-9.2	85	-11.3	61	0	1010.7	NA	0.0000	-SN	9999	1180	0	0	0
2020/09/04 12:41:00	BASE	2.74	213	4.42	215	-9.2	85	-11.3	62	0	1010.7	NA	0.0000	-SN	9999	1210	0	0	0
2020/09/04 12:42:00	BASE	2.53	212	4.42	215	-9.2	85	-11.3	62	0	1010.7	NA	0.0000	-SN	9999	1180	0	0	0
2020/09/04 12:43:00	BASE	2.09	211	4.42	215	-9.3	85	-11.3	64	0	1010.7	NA	0.0000	-SN	9999	1180	19980	0	0
2020/09/04 12:44:00	BASE	1.74	215	4.42	215	-9.3	85	-11.3	65	0	1010.7	NA	0.0000		9999	1250	0	0	0
2020/09/04 12:45:00	BASE	1.99	219	4.42	215	-9.2	85	-11.3	67	0	1010.7	NA	0.0000		9999	1210	0	0	0
2020/09/04 12:46:00	BASE	2.23	224	4.42	215	-9.2	85	-11.3	67	0	1010.7	NA	0.0000		9999	1210	0	0	0
2020/09/04 12:47:00	BASE	2.07	217	4.42	215	-9.2	85	-11.3	65	0	1010.7	NA	0.0000		9999	1150	0	0	0
2020/09/04 12:48:00	BASE	2.00	212	4.37	214	-9.2	85	-11.3	65	0	1010.8	NA	0.0000		9999	1050	0	0	0
2020/09/04 12:49:00	BASE	2.19	221	3.14	211	-9.2	85	-11.3	64	0	1010.8	NA	0.0000		9999	590	0	0	0
2020/09/04 12:50:00	BASE	2.61	224	2.98	218	-9.2	85	-11.2	63	0	1010.8	NA	0.0000		9999	460	0	0	0
2020/09/04 12:51:00	BASE	2.71	216	2.98	218	-9.2	85	-11.2	64	0	1010.8	NA	0.0000		9999	360	0	0	0
2020/09/04 12:52:00	BASE	2.42	212	2.98	218	-9.2	86	-11.2	64	0	1010.8	NA	0.0000		9999	1120	0	0	0
2020/09/04 12:53:00	BASE	2.30	214	2.98	218	-9.2	86	-11.1	64	0	1010.8	NA	0.0000	-SN	9999	660	0	0	0
2020/09/04 12:54:00	BASE	2.78	222	3.50	226	-9.2	86	-11.1	65	0	1010.8	NA	0.0000	-SN	9999	560	0	0	0
2020/09/04 12:55:00	BASE	3.24	230	3.65	228	-9.2	86	-11.1	65	0	1010.8	NA	0.0000	-SN	9999	430	0	0	0
2020/09/04 12:56:00	BASE	3.12	231	3.65	228	-9.2	86	-11.1	65	0	1010.7	NA	0.0000	-SN	9999	790	0	0	0
2020/09/04 12:57:00	BASE	3.04	221	3.65	228	-9.2	86	-11.1	65	0	1010.7	NA	0.0000	-SN	9999	1080	0	0	0
2020/09/04 12:58:00	BASE	3.04	207	3.65	228	-9.2	86	-11.1	66	0	1010.7	NA	0.0000	-SN BR	3600	300	1250	0	0
2020/09/04 12:59:00	BASE	2.88	199	3.65	228	-9.2	86	-11.1	66	0	1010.7	NA	0.0000	-SN BR	6000	720	0	0	0
2020/09/04 13:00:00	BASE	2.84	196	3.65	228	-9.1	86	-11.0	66	0	1010.7	NA	0.0000	-SN BR	8000	1120	0	0	0
2020/09/04 13:01:00	BASE	2.87	193	3.65	228	-9.1	86	-11.0	66	0	1010.7	NA	0.0000	-SN BR	9999	1080	0	0	0
2020/09/04 13:02:00	BASE	2.66	189	3.65	228	-9.1	86	-11.0	66	0	1010.7	NA	0.0000	-SN BR	9999	1150	0	0	0
2020/09/04 13:03:00	BASE	2.57	193	3.65	228	-9.1	86	-11.1	66	0	1010.7	NA	0.0000	-SN BR	9999	1120	0	0	0
2020/09/04 13:04:00	BASE	2.47	197	3.65	228	-9.2	86	-11.1	68	0	1010.7	NA	0.0000	-SN BR	7000	360	0	0	0
2020/09/04 13:05:00	BASE	2.21	209	3.34	206	-9.2	86	-11.1	69	0	1010.7	NA	0.0000	-SN BR	5000	390	0	0	0
2020/09/04 13:06:00	BASE	2.39	225	3.40	226	-9.2	86	-11.1	71	0	1010.7	NA	0.0000	-SN BR	4800	1080	0	0	0
2020/09/04 13:07:00	BASE	2.80	226	3.40	226	-9.2	86	-11.1	71	0	1010.7	NA	0.0000	-SN BR	8000	1080	0	0	0
2020/09/04 13:08:00	BASE	2.99	223	3.40	226	-9.2	86	-11.1	73	0	1010.7	NA	0.0000	-SN BR	9000	430	0	0	0
2020/09/04 13:09:00	BASE	3.04	223	3.50	223	-9.2	86	-11.1	74	0	1010.7	NA	0.0000	-SN BR	4900	430	0	0	0
2020/09/04 13:10:00	BASE	3.08	224	3.50	223	-9.2	86	-11.1	75	0	1010.7	NA	0.0000	-SN BR	9999	390	0	0	0
2020/09/04 13:11:00	BASE	2.84	229	3.50	223	-9.2	86	-11.1	77	0	1010.7	NA	0.0000	-SN BR	9999	390	1180	0	0
2020/09/04 13:12:00	BASE	2.51	231	3.50	223	-9.2	86	-11.0	77	0	1010.7	NA	0.0000	-SN BR	9999	330	0	0	0
2020/09/04 13:13:00	BASE	2.44	230	3.50	223	-9.2	87	-11.0	76	0	1010.7	NA	0.0000	-SN BR	2800	330	0	0	0
2020/09/04 13:14:00	BASE	2.63	228	3.50	223	-9.2	87	-11.0	75	0	1010.6	NA	0.0000	-SN BR	3800	330	1080	0	0
2020/09/04 13:15:00	BASE	2.64	215	3.50	223	-9.2	87	-11.0	76	0	1010.6	NA	0.0000	-SN BR	5000	360	0	0	0
2020/09/04 13:16:00	BASE	2.25	212	3.50	223	-9.2	87	-11.0	76	0	1010.6	NA	0.0000	-SN BR	3200	430	0	0	0
2020/09/04 13:17:00	BASE	2.63	224	4.06	226	-9.2	87	-11.0	77	0	1010.6	NA	0.0000	-SN BR	4700	390	0	0	0
2020/09/04 13:18:00	BASE	3.09	211	4.06	226	-9.2	87	-11.0	79	0	1010.6	NA	0.0000	-SN BR	7000	390	0	0	0
2020/09/04 13:19:00	BASE	3.02	189	4.06	226	-9.2	87	-11.0	82	0	1010.6	NA	0.0000	-SN BR	3100	300	0	0	0
2020/09/04 13:20:00	BASE	3.16	195	4.06	226	-9.2	87	-11.0	84	0	1010.6	NA	0.0000	-SN BR	3000	360	0	0	0
2020/09/04 13:21:00	BASE	3.33	211	4.06	226	-9.2	87	-11.0	86	0	1010.6	NA	0.0000	-SN BR	9000	390	0	0	0
2020/09/04 13:22:00	BASE	3.48	217	4.06	226	-9.2	87	-11.0	86	0	1010.6	NA	0.0000	-SN BR	7000	720	0	0	0
2020/09/04 13:23:00	BASE	3.42	212	4.06	226	-9.2	87	-11.0	85	0	1010.6	NA	0.0000	-SN BR	9999	620	0	0	0
2020/09/04 13:24:00	BASE	3.28	205	4.06	226	-9.2	87	-11.0	86	0	1010.6	NA	0.0000	-SN BR	9999	1080	0	0	0
2020/09/04 13:25:00	BASE	3.08	201	4.06	226	-9.2	87	-11.0	88	0	1010.6	NA	0.0000	-SN BR	9999	1050	0	0	0
2020/09/04 13:26:00	BASE	2.66	204	4.06	226	-9.2	87	-11.0	90	0	1010.6	NA	0.0000	-SN BR	9999	1050	0	0	0
2020/09/04 13:27:00	BASE	2.36	209	3.86	218	-9.2	87	-11.0	90	0	1010.6	NA	0.0000	-SN BR	9999	1080	0	0	0
2020/09/04 13:28:00	BASE	2.76	208	3.86	218	-9.2	87	-11.0	93	0	1010.6	NA	0.0000	-SN BR	9999	1020	0	0	0
2020/09/04 13:29:00	BASE	3.51	208	4.32	210	-9.2	87	-11.0	96	0	1010.6	NA	0.0000	-SN BR	9999	1050	0	0	0
2020/09/04 13:30:00	BASE	4.00	207	4.37	210	-9.2	87	-11.0	98	0	1010.6	NA	0.0000	-SN	9999	980	0	0	0
2020/09/04 13:31:00	BASE	4.03	210	4.37	210	-9.3	87	-11.0	102	0	1010.6	NA	0.0000	-SN	9999	920	0	0	0
2020/09/04 13:32:00	BASE	3.87	220	4.37	210	-9.3	87	-11.0	105	0	1010.6	NA	0.0000	-SN	9999	1020	0	0	0
2020/09/04 13:33:00	BASE	3.70	229	4.37	210	-9.3	87	-11.0	106	0	1010.5	NA	0.0000	-SN	9999	1020	0	0	0
2020/09/04 13:34:00	BASE	3.60	232	4.37	210	-9.3	87	-11.0	106	0	1010.4	NA	0.0000	-SN	9999	1020	0	0	0
2020/09/04 13:35:00	BASE	3.53	234	4.37	210	-9.3	87	-11.0	107	0	1010.4	NA	0.0000	-SN	9999	1050	0	0	0
2020/09/04 13:36:00	BASE	3.12	240	4.37	210	-9.3	87	-11.1	106	0	1010.4	NA	0.0000	-SN	9999	1080	0	0	0
2020/09/04 13:37:00	BASE	2.74	241	4.37	210	-9.3	87	-11.1	106	0	1010.4	NA	0.0000		9999	1050	0	0	0
2020/09/04 13:38:00	BASE	3.11	221	4.37	210	-9.4	87	-11.1	106	0	1010.4	NA	0.0000		9999	1050	0	0	0
2020/09/04 13:39:00	BASE	2.96	213	4.37	210	-9.4	87	-11.1	107	0	1010.4	NA	0.0000		9999	950	0	0	0
2020/09/04 13:40:00	BASE	2.15	220	4.27	226	-9.4	87	-11.2	106	0	1010.4	NA	0.0000		9999	920	0	0	0
2020/09/04 13:41:00	BASE	1.73	212	4.27	226	-9.4	87	-11.2	106	0	1010.4	NA	0.0000		9999	920	0	0	0
2020/09/04 13:42:00	BASE	1.53	195	4.27	226	-9.4	87	-11.2	104	0	1010.4	NA	0.0000		9999	1020	23950	0	0
2020/09/04 13:43:00	BASE	1.62	176	4.12	200	-9.4	87	-11.2	106	0	1010.4	NA	0.0000		9999	1020	0	0	0
2020/09/04 13:44:00	BASE	1.37	168	4.12	200	-9.4	87	-11.1	107	0	1010.3	NA	0.0000		9999	1020	0	0	0
2020/09/04 13:45:00	BASE	0.57	164	4.12	200	-9.4	87	-11.1	107	0	1010.3	NA	0.0000		9999	980	0	0	0
2020/09/04 13:46:00	BASE	0.04	165	4.12	200	-9.3	88	-11.0	108	0	1010.3	NA	0.0000		9999	1050	0	0	0
2020/09/04 13:47:00	BASE	0.00	161	4.12	200	-9.3	88	-11.0	109	0	1010.3	NA	0.0000		9999	1050	0	0	0
2020/09/04 13:48:00	BASE	0.00	145	2.83	224	-9.3	88	-10.9	113	0	1010.3	NA	0.0000		9999	1050	0	0	0
2020/09/04 13:49:00	BASE	0.00	143	2.11	221	-9.3	88	-10.9	114	0	1010.3	NA	0.0000		9999	1050	0	0	0
2020/09/04 13:50:00	BASE	0.09	149	1.95	164	-9.3	88	-10.9	113	0	1010.3	NA	0.0000		9999	1080	0	0	0
2020/09/04 13:51:00	BASE	0.28	148	1.95	164	-9.3	88	-10.9	112	0	1010.3	NA	0.0000		9999	1080	0	0	0
2020/09/04 13:52:00	BASE	0.87	157	1.95	164	-9.3	88	-10.9	110	0	1010.3	NA	0.0000		9999	1080	0	0	0
2020/09/04 13:53:00	BASE	0.93	162	1.65	175	-9.3	88	-10.9	110	0	1010.3	NA	0.0000		9999	1080	0	0	0
2020/09/04 13:54:00	BASE	0.25	158	1.49	171	-9.3	88	-10.9	111	0	1010.3	NA	0.0000		9999	1120	0	0	0
2020/09/04 13:55:00	BASE	0.00	169	1.49	171	-9.3	88	-10.9	114	0	1010.3	NA	0.0000		9999	980	0	0	0
2020/09/04 13:56:00	BASE	0.00	168	1.49	171	-9.3	88	-10.9	116	0	1010.3	NA	0.0000		9999	980	22280	0	0
2020/09/04 13:57:00	BASE	0.05	159	1.49	171	-9.3	88	-10.9	115	0	1010.3	NA	0.0000		9999	1020	0	0	0
2020/09/04 13:58:00	BASE	0.05	168	1.49	171	-9.3	88	-10.9	115	0	1010.3	NA	0.0000		9999	1050	0	0	0
2020/09/04 13:59:00	BASE	0.00	166	1.49	171	-9.3	88	-10.9	114	0	1010.3	NA	0.0000	-SN	9999	1050	0	0	0
2020/09/04 14:00:00	BASE	0.00	165	1.49	171	-9.3	88	-10.9	116	0	1010.3	NA	0.0000	-SN	9999	1050	0	0	0
2020/09/04 14:01:00	BASE	0.00	169	1.49	171	-9.3	88	-10.9	117	0	1010.3	NA	0.0000	-SN	9999	1020	0	0	0
2020/09/04 14:02:00	BASE	0.00	171	1.39	162	-9.2	88	-10.9	120	0	1010.3	NA	0.0000	-SN	9999	980	0	0	0
2020/09/04 14:03:00	BASE	0.00	182	1.08	169	-9.2	88	-10.9	121	0	1010.3	NA	0.0000	-SN	9999	980	0	0	0
2020/09/04 14:04:00	BASE	0.00	202	1.08	169	-9.3	88	-10.9	122	0	1010.3	NA	0.0000	-SN	9999	1020	0	0	0
2020/09/04 14:05:00	BASE	0.00	214	1.08	169	-9.3	88	-10.9	122	0	1010.3	NA	0.0000	-SN	9999	1050	0	0	0
2020/09/04 14:06:00	BASE	0.74	229	2.21	240	-9.3	88	-10.9	120	0	1010.3	NA	0.0000	-SN	9999	1080	0	0	0
2020/09/04 14:07:01	BASE	1.98	235	2.98	216	-9.3	88	-10.9	118	0	1010.3	NA	0.0000	-SN	9999	1080	0	0	0
2020/09/04 14:08:00	BASE	2.50	231	2.98	225	-9.3	88	-10.9	119	0	1010.3	NA	0.0000	-SN	9999	1080	0	0	0
2020/09/04 14:09:00	BASE	2.61	230	3.24	231	-9.2	88	-10.9	120	0	1010.3	NA	0.0000	-SN	9999	1050	0	0	0
2020/09/04 14:10:00	BASE	2.76	230	3.24	231	-9.2	88	-10.9	119	0	1010.3	NA	0.0000	-SN	9999	1050	0	0	0
2020/09/04 14:11:00	BASE	2.57	227	3.24	231	-9.2	88	-10.9	119	0	1010.3	NA	0.0000		9999	1050	0	0	0
2020/09/04 14:12:00	BASE	2.13	224	3.24	231	-9.2	88	-10.9	119	0	1010.3	NA	0.0000		9999	980	0	0	0
2020/09/04 14:13:00	BASE	2.09	234	3.24	231	-9.3	88	-10.9	119	0	1010.3	NA	0.0000		9999	950	0	0	0
2020/09/04 14:14:00	BASE	2.18	234	3.24	231	-9.3	88	-10.9	120	0	1010.3	NA	0.0000		9999	1050	0	0	0
2020/09/04 14:15:00	BASE	2.42	227	3.24	231	-9.3	88	-10.9	118	0	1010.3	NA	0.0000	-SN	9999	1050	0	0	0
2020/09/04 14:16:00	BASE	2.62	231	3.24	231	-9.3	88	-10.9	118	0	1010.3	NA	0.0000		9999	1020	0	0	0
2020/09/04 14:17:00	BASE	2.68	233	3.24	231	-9.3	88	-10.9	117	0	1010.3	NA	0.0000		9999	1020	0	0	0
2020/09/04 14:18:00	BASE	2.87	226	3.34	227	-9.2	88	-10.9	118	0	1010.3	NA	0.0000		9999	1020	0	0	0
2020/09/04 14:19:00	BASE	3.27	222	3.86	224	-9.2	88	-10.8	118	0	1010.3	NA	0.0000		9999	1020	0	0	0
2020/09/04 14:20:00	BASE	3.40	219	3.86	224	-9.2	88	-10.8	122	0	1010.3	NA	0.0000		9999	1020	0	0	0
2020/09/04 14:21:00	BASE	3.76	217	4.58	217	-9.2	88	-10.8	126	0	1010.2	NA	0.0000		9999	1020	0	0	0
2020/09/04 14:22:00	BASE	4.36	217	4.94	209	-9.2	88	-10.8	127	0	1010.2	NA	0.0000		9999	950	0	0	0
2020/09/04 14:23:00	BASE	4.02	217	4.94	209	-9.2	88	-10.8	130	0	1010.2	NA	0.0000		9999	950	0	0	0
2020/09/04 14:24:00	BASE	3.44	215	4.94	209	-9.2	88	-10.9	133	0	1010.2	NA	0.0000		9999	950	0	0	0
2020/09/04 14:25:00	BASE	3.29	210	4.94	209	-9.3	88	-10.9	136	0	1010.2	NA	0.0000		9999	950	0	0	0
2020/09/04 14:26:00	BASE	3.65	213	4.94	209	-9.3	88	-10.9	141	0	1010.3	NA	0.0000		9999	980	0	0	0
2020/09/04 14:27:00	BASE	4.26	220	4.94	209	-9.3	88	-10.9	142	0	1010.2	NA	0.0000		9999	980	0	0	0
2020/09/04 14:28:00	BASE	4.33	224	4.94	209	-9.3	88	-10.9	140	0	1010.3	NA	0.0000		9999	920	0	0	0
2020/09/04 14:29:00	BASE	3.59	224	4.94	209	-9.3	88	-10.9	139	0	1010.3	NA	0.0000		9999	890	0	0	0
2020/09/04 14:30:00	BASE	3.02	219	4.94	209	-9.3	88	-10.9	138	0	1010.3	NA	0.0000		9999	850	21650	22640	0
2020/09/04 14:31:00	BASE	2.91	211	4.94	209	-9.3	88	-10.9	137	0	1010.3	NA	0.0000		9999	820	0	0	0
2020/09/04 14:32:00	BASE	2.47	200	4.84	221	-9.3	88	-10.9	138	0	1010.3	NA	0.0000		9999	850	0	0	0
2020/09/04 14:33:00	BASE	1.99	187	4.84	221	-9.3	89	-10.8	140	0	1010.3	NA	0.0000		9999	850	0	0	0
2020/09/04 14:34:00	BASE	1.73	182	4.84	221	-9.3	89	-10.8	141	0	1010.3	NA	0.0000		9999	890	0	0	0
2020/09/04 14:35:00	BASE	1.46	190	4.84	221	-9.3	89	-10.8	140	0	1010.3	NA	0.0000		9999	890	0	0	0
2020/09/04 14:36:00	BASE	0.97	194	4.84	221	-9.3	89	-10.8	138	0	1010.3	NA	0.0000		9999	980	0	0	0
2020/09/04 14:37:00	BASE	0.37	188	4.42	225	-9.3	89	-10.8	135	0	1010.3	NA	0.0000		9999	920	0	0	0
2020/09/04 14:38:00	BASE	0.52	168	3.29	228	-9.3	89	-10.8	135	0	1010.3	NA	0.0000		9999	1020	0	0	0
2020/09/04 14:39:00	BASE	0.74	159	3.14	208	-9.3	89	-10.8	138	0	1010.3	NA	0.0000		9999	1020	0	0	0
2020/09/04 14:40:00	BASE	0.31	157	3.14	208	-9.3	89	-10.7	139	0	1010.3	NA	0.0000		9999	1020	0	0	0
2020/09/04 14:41:00	BASE	0.00	161	2.26	210	-9.2	89	-10.7	139	0	1010.3	NA	0.0000		9999	1020	0	0	0
2020/09/04 14:42:00	BASE	0.00	199	2.11	174	-9.2	89	-10.7	141	0	1010.3	NA	0.0000		9999	980	20010	0	0
2020/09/04 14:43:00	BASE	0.00	231	1.65	188	-9.3	89	-10.7	142	0	1010.3	NA	0.0000		9999	980	0	0	0
2020/09/04 14:44:00	BASE	0.00	230	1.49	196	-9.3	89	-10.7	142	0	1010.3	NA	0.0000		9999	980	0	0	0
2020/09/04 14:45:00	BASE	0.00	217	1.34	158	-9.3	89	-10.8	139	0	1010.3	NA	0.0000		9999	950	21520	0	0
2020/09/04 14:46:00	BASE	0.60	223	2.06	247	-9.3	89	-10.7	142	0	1010.2	NA	0.0000		9999	920	0	0	0
2020/09/04 14:47:00	BASE	1.41	186	2.06	152	-9.2	89	-10.7	145	0	1010.2	NA	0.0000		9999	920	0	0	0
2020/09/04 14:48:00	BASE	1.88	157	2.62	169	-9.2	89	-10.7	139	0	1010.2	NA	0.0000		7000	980	0	0	0
2020/09/04 14:49:00	BASE	2.54	189	3.29	225	-9.2	89	-10.7	140	0	1010.2	NA	0.0000		7000	1020	0	0	0
2020/09/04 14:50:00	BASE	3.20	215	3.65	218	-9.2	89	-10.7	144	0	1010.2	NA	0.0000		9999	1020	0	0	0
2020/09/04 14:51:00	BASE	3.33	223	3.65	218	-9.2	89	-10.7	143	0	1010.3	NA	0.0000		9999	1020	0	0	0
2020/09/04 14:52:00	BASE	3.29	224	3.65	218	-9.3	89	-10.7	144	0	1010.3	NA	0.0000		9999	980	0	0	0
2020/09/04 14:53:00	BASE	3.22	221	3.65	218	-9.3	89	-10.7	145	0	1010.3	NA	0.0000		9999	980	0	0	0
2020/09/04 14:54:00	BASE	3.27	221	3.81	221	-9.3	89	-10.8	142	0	1010.3	NA	0.0000		9999	950	0	0	0
2020/09/04 14:55:00	BASE	3.49	224	3.81	224	-9.3	89	-10.8	142	0	1010.2	NA	0.0000		9999	950	0	0	0
2020/09/04 14:56:00	BASE	3.19	221	3.81	224	-9.3	89	-10.8	142	0	1010.3	NA	0.0000		9999	950	0	0	0
2020/09/04 14:57:00	BASE	3.14	216	3.91	213	-9.3	89	-10.8	142	0	1010.3	NA	0.0000		9999	950	0	0	0
2020/09/04 14:58:00	BASE	3.30	213	3.91	213	-9.3	89	-10.7	139	0	1010.2	NA	0.0000		9999	920	0	0	0
2020/09/04 14:59:00	BASE	2.92	210	3.91	213	-9.3	90	-10.7	140	0	1010.2	NA	0.0000		9999	820	0	0	0
2020/09/04 15:00:00	BASE	2.37	207	3.91	213	-9.3	90	-10.7	142	0	1010.2	NA	0.0000		9999	890	0	0	0
2020/09/04 15:01:00	BASE	2.03	208	3.91	213	-9.3	90	-10.6	143	0	1010.3	NA	0.0000		9999	820	0	0	0
2020/09/04 15:02:00	BASE	1.73	211	3.91	213	-9.3	90	-10.7	145	0	1010.3	NA	0.0000		9999	850	0	0	0
2020/09/04 15:03:00	BASE	1.32	209	3.91	213	-9.3	90	-10.7	144	0	1010.3	NA	0.0000		9999	890	0	0	0
2020/09/04 15:04:00	BASE	1.03	198	3.91	213	-9.3	90	-10.7	144	0	1010.3	NA	0.0000		9999	890	0	0	0
2020/09/04 15:05:00	BASE	0.56	191	3.91	213	-9.4	90	-10.7	146	0	1010.3	NA	0.0000		9999	850	0	0	0
2020/09/04 15:06:00	BASE	0.43	185	3.91	213	-9.4	90	-10.7	146	0	1010.2	NA	0.0000		9999	820	0	0	0
2020/09/04 15:07:00	BASE	0.46	179	3.60	208	-9.3	90	-10.7	148	0	1010.2	NA	0.0000		9999	890	0	0	0
2020/09/04 15:08:00	BASE	0.13	186	2.98	209	-9.3	90	-10.7	149	0	1010.2	NA	0.0000		9999	920	0	0	0
2020/09/04 15:09:00	BASE	0.00	179	2.21	215	-9.3	90	-10.6	149	0	1010.3	NA	0.0000		9999	980	0	0	0
2020/09/04 15:10:00	BASE	0.00	176	2.21	215	-9.3	90	-10.6	150	0	1010.3	NA	0.0000		9999	950	0	0	0
2020/09/04 15:11:00	BASE	0.00	180	1.80	220	-9.3	90	-10.6	151	0	1010.3	NA	0.0000		9999	950	0	0	0
2020/09/04 15:12:00	BASE	0.00	170	1.34	202	-9.3	90	-10.6	153	0	1010.3	NA	0.0000		9999	950	0	0	0
2020/09/04 15:13:00	BASE	0.00	166	1.18	186	-9.3	90	-10.6	156	0	1010.3	NA	0.0000		9999	950	0	0	0
2020/09/04 15:14:00	BASE	0.00	169	1.18	186	-9.2	90	-10.6	157	0	1010.3	NA	0.0000		9999	950	0	0	0
2020/09/04 15:15:00	BASE	0.00	169	1.18	186	-9.2	90	-10.6	159	0	1010.3	NA	0.0000		9999	950	0	0	0
2020/09/04 15:16:00	BASE	0.00	171	1.08	178	-9.2	90	-10.6	160	0	1010.3	NA	0.0000		9999	950	0	0	0
2020/09/04 15:17:00	BASE	0.00	172	M	M	-9.2	90	-10.6	162	0	1010.3	NA	0.0000		9999	950	19030	21490	0
2020/09/04 15:18:00	BASE	0.00	171	M	M	-9.3	90	-10.6	163	0	1010.3	NA	0.0000		9999	950	0	0	0
2020/09/04 15:19:00	BASE	0.00	168	M	M	-9.3	90	-10.6	164	0	1010.3	NA	0.0000		9999	980	0	0	0
2020/09/04 15:20:00	BASE	0.00	167	M	M	-9.3	90	-10.6	165	0	1010.3	NA	0.0000		9999	980	0	0	0
2020/09/04 15:21:00	BASE	0.00	167	M	M	-9.2	90	-10.6	165	0	1010.3	NA	0.0000		9999	980	0	0	0
2020/09/04 15:22:01	BASE	0.00	161	M	M	-9.2	90	-10.6	166	0	1010.3	NA	0.0000		9999	1020	0	0	0
2020/09/04 15:23:00	BASE	0.00	157	M	M	-9.2	90	-10.6	165	0	1010.3	NA	0.0000		9999	1020	0	0	0
2020/09/04 15:24:00	BASE	0.00	159	M	M	-9.2	90	-10.6	162	0	1010.3	NA	0.0000		9999	1020	21590	0	0
2020/09/04 15:25:00	BASE	0.00	168	M	M	-9.2	90	-10.6	162	0	1010.3	NA	0.0000		9999	1020	22970	0	0
2020/09/04 15:26:00	BASE	0.00	190	M	M	-9.3	90	-10.6	162	0	1010.2	NA	0.0000		9999	1020	0	0	0
2020/09/04 15:27:00	BASE	0.00	209	M	M	-9.3	90	-10.6	163	0	1010.2	NA	0.0000		9999	1020	0	0	0
2020/09/04 15:28:00	BASE	0.21	210	1.95	222	-9.3	90	-10.6	163	0	1010.2	NA	0.0000		9999	1020	0	0	0
2020/09/04 15:29:00	BASE	1.04	219	2.06	223	-9.3	90	-10.6	163	0	1010.2	NA	0.0000		9999	1020	0	0	0
2020/09/04 15:30:00	BASE	1.62	227	2.06	223	-9.3	90	-10.6	163	0	1010.1	NA	0.0000		9999	980	0	0	0
2020/09/04 15:31:00	BASE	1.81	225	2.26	224	-9.3	90	-10.6	164	0	1010.1	NA	0.0000		9999	980	0	0	0
2020/09/04 15:32:00	BASE	2.12	225	2.52	228	-9.3	90	-10.6	165	0	1010.1	NA	0.0000		9999	1020	0	0	0
2020/09/04 15:33:00	BASE	2.32	223	2.78	220	-9.3	90	-10.6	166	0	1010.1	NA	0.0000		9999	1020	0	0	0
2020/09/04 15:34:00	BASE	2.31	221	2.78	220	-9.3	90	-10.6	169	0	1010.1	NA	0.0000		9999	980	0	0	0
2020/09/04 15:35:00	BASE	1.91	224	2.78	220	-9.3	90	-10.6	173	0	1010.1	NA	0.0000		9999	890	0	0	0
2020/09/04 15:36:00	BASE	1.63	227	2.78	220	-9.3	90	-10.6	175	0	1010.1	NA	0.0000		9999	980	0	0	0
2020/09/04 15:37:00	BASE	1.70	237	2.78	220	-9.3	90	-10.7	174	0	1010.1	NA	0.0000		9999	980	0	0	0
2020/09/04 15:38:00	BASE	1.83	241	2.78	220	-9.3	90	-10.7	171	0	1010.1	NA	0.0000		9999	1020	0	0	0
2020/09/04 15:39:00	BASE	2.19	232	2.78	220	-9.3	90	-10.7	168	0	1010.1	NA	0.0000		9999	980	0	0	0
2020/09/04 15:40:00	BASE	2.49	227	3.09	227	-9.3	90	-10.7	165	0	1010.1	NA	0.0000		9999	950	0	0	0
2020/09/04 15:41:00	BASE	2.89	232	4.22	232	-9.2	90	-10.6	162	0	1010.0	NA	0.0000		9999	920	0	0	0
2020/09/04 15:42:00	BASE	3.25	229	4.22	232	-9.2	90	-10.6	160	0	1010.0	NA	0.0000		9999	890	0	0	0
2020/09/04 15:43:00	BASE	2.79	223	4.22	232	-9.2	90	-10.6	160	0	1010.0	NA	0.0000		9999	820	0	0	0
2020/09/04 15:44:00	BASE	2.19	228	4.22	232	-9.2	90	-10.6	160	0	1010.0	NA	0.0000		9999	890	0	0	0
2020/09/04 15:45:00	BASE	1.75	233	4.22	232	-9.2	90	-10.6	161	0	1010.0	NA	0.0000		9999	790	22700	0	0
2020/09/04 15:46:00	BASE	1.56	228	4.22	232	-9.3	90	-10.7	160	0	1010.0	NA	0.0000		9999	820	0	0	0
2020/09/04 15:47:00	BASE	1.36	215	4.22	232	-9.3	90	-10.7	162	0	1010.0	NA	0.0000		9999	890	0	0	0
2020/09/04 15:48:00	BASE	0.57	200	4.22	232	-9.3	90	-10.7	164	0	1010.0	NA	0.0000		9999	850	0	0	0
2020/09/04 15:49:00	BASE	0.00	187	4.22	232	-9.3	90	-10.6	165	0	1010.0	NA	0.0000		9999	890	0	0	0
2020/09/04 15:50:00	BASE	0.00	190	4.22	232	-9.3	90	-10.6	164	0	1010.0	NA	0.0000		9999	920	0	0	0
2020/09/04 15:51:00	BASE	0.00	193	4.01	228	-9.3	90	-10.6	165	0	1009.9	NA	0.0000		9999	890	0	0	0
2020/09/04 15:52:00	BASE	0.00	182	2.62	217	-9.3	90	-10.6	166	0	1009.8	NA	0.0000		9999	890	0	0	0
2020/09/04 15:53:00	BASE	0.00	178	2.31	228	-9.3	90	-10.6	167	0	1009.8	NA	0.0000		9999	890	0	0	0
2020/09/04 15:54:00	BASE	0.00	178	2.21	195	-9.2	90	-10.6	167	0	1009.9	NA	0.0000		9999	920	0	0	0
2020/09/04 15:55:00	BASE	0.00	187	2.21	195	-9.2	90	-10.6	169	0	1009.9	NA	0.0000		9999	950	0	0	0
2020/09/04 15:56:00	BASE	0.00	238	1.95	185	-9.2	90	-10.5	172	0	1009.9	NA	0.0000		9999	920	0	0	0
2020/09/04 15:57:00	BASE	0.00	265	M	M	-9.2	90	-10.5	173	0	1009.9	NA	0.0000		9999	920	19750	0	0
2020/09/04 15:58:00	BASE	0.00	249	M	M	-9.2	90	-10.6	171	0	1010.0	NA	0.0000		9999	890	0	0	0
2020/09/04 15:59:00	BASE	0.00	234	M	M	-9.2	90	-10.6	167	0	1010.0	NA	0.0000		9999	850	0	0	0
2020/09/04 16:00:00	BASE	0.00	228	M	M	-9.3	90	-10.6	163	0	1010.0	NA	0.0000		9999	850	0	0	0
2020/09/04 16:01:00	BASE	0.00	242	M	M	-9.3	90	-10.6	159	0	1010.0	NA	0.0000		9999	890	0	0	0
2020/09/04 16:02:00	BASE	0.00	244	M	M	-9.3	90	-10.6	157	0	1009.9	NA	0.0000		9999	920	0	0	0
2020/09/04 16:03:00	BASE	0.00	232	M	M	-9.3	90	-10.6	156	0	1009.8	NA	0.0000		9999	920	0	0	0
2020/09/04 16:04:00	BASE	0.00	232	M	M	-9.3	90	-10.6	155	0	1009.8	NA	0.0000		9999	890	0	0	0
2020/09/04 16:05:00	BASE	0.00	232	M	M	-9.2	90	-10.5	154	0	1009.8	NA	0.0000		9999	850	0	0	0
2020/09/04 16:06:00	BASE	0.00	232	M	M	-9.2	90	-10.5	154	0	1009.8	NA	0.0000		9999	920	0	0	0
2020/09/04 16:07:00	BASE	0.00	265	M	M	-9.2	90	-10.5	156	0	1009.8	NA	0.0000		9999	950	21590	22670	0
2020/09/04 16:08:00	BASE	0.00	320	M	M	-9.1	90	-10.4	159	0	1009.8	NA	0.0000		9999	950	0	0	0
2020/09/04 16:09:00	BASE	0.00	332	M	M	-9.2	90	-10.5	160	0	1009.8	NA	0.0000		9999	920	0	0	0
2020/09/04 16:10:00	BASE	0.00	341	M	M	-9.2	90	-10.6	165	0	1009.8	NA	0.0000		9999	920	21980	0	0
2020/09/04 16:11:00	BASE	0.00	339	M	M	-9.3	90	-10.6	171	0	1009.8	NA	0.0000		9999	920	0	0	0
2020/09/04 16:12:00	BASE	0.00	327	M	M	-9.3	90	-10.6	175	0	1009.8	NA	0.0000		9999	950	0	0	0
2020/09/04 16:13:00	BASE	0.00	314	M	M	-9.3	90	-10.6	177	0	1009.9	NA	0.0000		9999	950	0	0	0
2020/09/04 16:14:00	BASE	0.00	312	M	M	-9.3	90	-10.6	179	0	1009.8	NA	0.0000		9999	920	0	0	0
2020/09/04 16:15:00	BASE	0.00	336	M	M	-9.3	90	-10.6	180	0	1009.9	NA	0.0000		9999	920	0	0	0
2020/09/04 16:16:00	BASE	0.00	350	M	M	-9.3	90	-10.6	178	0	1009.8	NA	0.0000		9999	950	0	0	0
2020/09/04 16:17:00	BASE	0.00	350	M	M	-9.3	90	-10.6	176	0	1009.8	NA	0.0000		9999	950	0	0	0
2020/09/04 16:18:00	BASE	0.00	2	M	M	-9.3	90	-10.6	173	0	1009.8	NA	0.0000		9999	950	0	0	0
2020/09/04 16:19:00	BASE	0.00	11	M	M	-9.3	90	-10.6	170	0	1009.8	NA	0.0000		9999	950	0	0	0
2020/09/04 16:20:00	BASE	0.00	9	M	M	-9.3	90	-10.6	168	0	1009.8	NA	0.0000		9999	980	0	0	0
2020/09/04 16:21:00	BASE	0.00	6	M	M	-9.3	90	-10.6	168	0	1009.8	NA	0.0000		9999	980	0	0	0
2020/09/04 16:22:00	BASE	0.00	11	M	M	-9.3	91	-10.5	168	0	1009.9	NA	0.0000		9999	1020	0	0	0
2020/09/04 16:23:00	BASE	0.00	14	M	M	-9.3	91	-10.5	168	0	1009.9	NA	0.0000		9999	980	0	0	0
2020/09/04 16:24:00	BASE	0.00	16	M	M	-9.3	91	-10.5	167	0	1009.9	NA	0.0000		9999	980	21030	0	0
2020/09/04 16:25:00	BASE	0.00	12	M	M	-9.3	91	-10.5	168	0	1009.9	NA	0.0000		9999	950	0	0	0
2020/09/04 16:26:00	BASE	0.00	359	M	M	-9.3	91	-10.4	167	0	1010.0	NA	0.0000		9999	950	21360	0	0
2020/09/04 16:27:00	BASE	0.00	357	M	M	-9.3	91	-10.4	164	0	1010.0	NA	0.0000		9999	920	0	0	0
2020/09/04 16:28:00	BASE	0.00	353	M	M	-9.2	91	-10.4	162	0	1010.0	NA	0.0000		9999	920	0	0	0
2020/09/04 16:29:00	BASE	0.00	340	M	M	-9.3	91	-10.5	160	0	1010.0	NA	0.0000		9999	920	0	0	0
2020/09/04 16:30:00	BASE	0.00	333	M	M	-9.3	91	-10.5	160	0	1010.0	NA	0.0000		9999	950	0	0	0
2020/09/04 16:31:00	BASE	0.00	349	M	M	-9.3	91	-10.5	163	0	1010.0	NA	0.0000		9999	920	24310	0	0
2020/09/04 16:32:00	BASE	0.00	358	M	M	-9.3	91	-10.5	166	0	1010.0	NA	0.0000		9999	920	0	0	0
2020/09/04 16:33:00	BASE	0.00	332	M	M	-9.3	91	-10.5	168	0	1010.0	NA	0.0000		9999	950	0	0	0
2020/09/04 16:34:00	BASE	0.00	296	M	M	-9.2	91	-10.4	171	0	1010.0	NA	0.0000		9999	890	0	0	0
2020/09/04 16:35:00	BASE	0.00	273	M	M	-9.2	91	-10.4	174	0	1010.0	NA	0.0000		9999	920	0	0	0
2020/09/04 16:36:00	BASE	0.09	257	1.08	240	-9.2	91	-10.4	177	0	1010.0	NA	0.0000		9999	950	0	0	0
2020/09/04 16:37:00	BASE	0.74	244	1.49	231	-9.2	91	-10.4	180	0	1010.0	NA	0.0000		9999	950	0	0	0
2020/09/04 16:38:00	BASE	1.44	240	1.80	230	-9.2	91	-10.4	181	0	1010.0	NA	0.0000		9999	950	0	0	0
2020/09/04 16:39:00	BASE	1.39	237	1.80	230	-9.2	91	-10.4	179	0	1010.0	NA	0.0000		9999	890	0	0	0
2020/09/04 16:40:00	BASE	1.26	238	1.80	230	-9.2	91	-10.4	177	0	1010.0	NA	0.0000		9999	890	0	0	0
2020/09/04 16:41:00	BASE	0.91	251	1.80	230	-9.2	91	-10.4	174	0	1010.0	NA	0.0000		9999	820	0	0	0
2020/09/04 16:42:00	BASE	0.25	250	1.80	230	-9.2	91	-10.4	171	0	1010.0	NA	0.0000		9999	890	0	0	0
2020/09/04 16:43:00	BASE	0.00	226	1.80	230	-9.2	91	-10.4	169	0	1010.1	NA	0.0000		9999	890	0	0	0
2020/09/04 16:44:00	BASE	0.18	210	1.80	230	-9.2	91	-10.4	168	0	1010.1	NA	0.0000		9999	890	0	0	0
2020/09/04 16:45:00	BASE	0.55	204	1.80	230	-9.2	91	-10.4	167	0	1010.1	NA	0.0000		9999	950	0	0	0
2020/09/04 16:46:00	BASE	0.71	210	1.80	230	-9.2	91	-10.4	166	0	1010.0	NA	0.0000		9999	980	0	0	0
2020/09/04 16:47:00	BASE	1.04	216	1.85	214	-9.2	91	-10.4	166	0	1010.0	NA	0.0000		9999	980	0	0	0
2020/09/04 16:48:00	BASE	1.79	214	2.57	227	-9.2	91	-10.4	164	0	1010.0	NA	0.0000		9999	980	0	0	0
2020/09/04 16:49:00	BASE	2.04	216	2.68	229	-9.2	91	-10.4	162	0	1010.0	NA	0.0000		9999	920	0	0	0
2020/09/04 16:50:00	BASE	1.76	208	2.68	229	-9.2	91	-10.4	162	0	1010.0	NA	0.0000		9999	890	0	0	0
2020/09/04 16:51:00	BASE	1.68	206	2.68	229	-9.2	91	-10.4	162	0	1010.0	NA	0.0000		9999	890	0	0	0
2020/09/04 16:52:00	BASE	1.26	218	2.68	229	-9.2	91	-10.4	163	0	1010.0	NA	0.0000		9999	920	0	0	0
2020/09/04 16:53:00	BASE	0.39	218	2.68	229	-9.2	91	-10.4	165	0	1010.0	NA	0.0000		9999	920	0	0	0
2020/09/04 16:54:00	BASE	0.00	211	2.68	229	-9.2	91	-10.4	168	0	1010.0	NA	0.0000		9999	920	21980	0	0
2020/09/04 16:55:00	BASE	0.00	225	2.68	229	-9.2	91	-10.4	170	0	1010.0	NA	0.0000		9999	980	0	0	0
2020/09/04 16:56:00	BASE	0.00	237	2.68	229	-9.2	91	-10.4	171	0	1010.0	NA	0.0000		9999	950	0	0	0
2020/09/04 16:57:00	BASE	0.00	240	2.68	229	-9.2	91	-10.4	171	0	1010.0	NA	0.0000		9999	980	0	0	0
2020/09/04 16:58:00	BASE	0.00	257	2.68	229	-9.2	91	-10.4	172	0	1010.0	NA	0.0000		9999	1020	0	0	0
2020/09/04 16:59:00	BASE	0.43	275	2.06	220	-9.2	91	-10.4	175	0	1010.0	NA	0.0000		9999	1020	0	0	0
2020/09/04 17:00:00	BASE	1.23	269	2.11	268	-9.2	91	-10.4	180	0	1010.0	NA	0.0000		9999	1020	0	0	0
2020/09/04 17:01:00	BASE	1.89	251	2.42	237	-9.1	91	-10.3	182	0	1010.0	NA	0.0000		9999	980	0	0	0
2020/09/04 17:02:00	BASE	2.03	234	2.42	237	-9.1	91	-10.3	181	0	1010.0	NA	0.0000		9999	890	0	0	0
2020/09/04 17:03:00	BASE	1.83	223	2.42	237	-9.1	91	-10.3	181	0	1010.0	NA	0.0000		9999	1020	0	0	0
2020/09/04 17:04:00	BASE	1.81	229	2.42	237	-9.1	91	-10.3	182	0	1010.0	NA	0.0000		9999	1050	0	0	0
2020/09/04 17:05:00	BASE	2.06	243	2.52	231	-9.1	91	-10.3	182	0	1010.0	NA	0.0000		9999	980	0	0	0
2020/09/04 17:06:00	BASE	2.21	245	2.52	231	-9.1	91	-10.3	182	0	1010.0	NA	0.0000		9999	980	0	0	0
2020/09/04 17:07:00	BASE	1.89	242	2.52	231	-9.1	91	-10.3	181	0	1010.0	NA	0.0000		9999	1080	0	0	0
2020/09/04 17:08:00	BASE	1.30	240	2.52	231	-9.2	91	-10.4	178	0	1010.0	NA	0.0000		9999	890	0	0	0
2020/09/04 17:09:00	BASE	0.62	236	2.52	231	-9.2	91	-10.4	175	0	1010.0	NA	0.0000		9999	980	0	0	0
2020/09/04 17:10:00	BASE	0.42	238	2.52	231	-9.2	91	-10.4	172	0	1010.0	NA	0.0000		9999	920	0	0	0
2020/09/04 17:11:00	BASE	0.38	236	2.52	231	-9.2	91	-10.4	167	0	1010.0	NA	0.0000		9999	890	0	0	0
2020/09/04 17:12:00	BASE	0.09	224	2.52	231	-9.2	91	-10.5	165	0	1010.0	NA	0.0000		9999	820	0	0	0
2020/09/04 17:13:00	BASE	0.00	228	2.52	231	-9.2	91	-10.5	163	0	1010.0	NA	0.0000		9999	790	0	0	0
2020/09/04 17:14:00	BASE	0.00	228	2.52	231	-9.2	91	-10.4	162	0	1010.0	NA	0.0000		9999	790	0	0	0
2020/09/04 17:15:00	BASE	0.00	192	2.42	237	-9.2	90	-10.5	161	0	1010.0	NA	0.0000		9999	890	0	0	0
2020/09/04 17:16:00	BASE	0.00	190	1.85	241	-9.2	91	-10.4	163	0	1010.0	NA	0.0000		9999	920	0	0	0
2020/09/04 17:17:00	BASE	0.00	208	1.34	241	-9.2	91	-10.4	166	0	1010.1	NA	0.0000		9999	950	0	0	0
2020/09/04 17:18:00	BASE	0.00	206	1.23	248	-9.2	90	-10.4	169	0	1010.0	NA	0.0000		9999	950	0	0	0
2020/09/04 17:19:00	BASE	0.00	211	1.23	248	-9.2	90	-10.4	172	0	1010.1	NA	0.0000		9999	950	0	0	0
2020/09/04 17:20:00	BASE	0.00	216	1.13	242	-9.1	91	-10.4	172	0	1010.1	NA	0.0000		9999	950	0	0	0
2020/09/04 17:21:00	BASE	0.00	215	M	M	-9.1	91	-10.4	169	0	1010.1	NA	0.0000		9999	950	0	0	0
2020/09/04 17:22:00	BASE	0.00	222	M	M	-9.1	91	-10.4	165	0	1010.1	NA	0.0000		9999	950	0	0	0
2020/09/04 17:23:00	BASE	0.00	216	M	M	-9.1	91	-10.3	162	0	1010.1	NA	0.0000		9999	950	0	0	0
2020/09/04 17:24:00	BASE	0.00	185	M	M	-9.1	91	-10.3	160	0	1010.1	NA	0.0000		9999	950	0	0	0
2020/09/04 17:25:00	BASE	0.00	162	M	M	-9.1	91	-10.3	161	0	1010.1	NA	0.0000		9999	950	0	0	0
2020/09/04 17:26:00	BASE	0.00	172	M	M	-9.1	91	-10.3	162	0	1010.1	NA	0.0000		9999	950	0	0	0
2020/09/04 17:27:00	BASE	0.00	179	M	M	-9.1	91	-10.3	163	0	1010.0	NA	0.0000		9999	950	0	0	0
2020/09/04 17:28:00	BASE	0.00	176	M	M	-9.1	90	-10.4	164	0	1010.0	NA	0.0000		9999	950	0	0	0
2020/09/04 17:29:00	BASE	0.46	181	1.39	192	-9.1	90	-10.4	164	0	1010.0	NA	0.0000		9999	920	0	0	0
2020/09/04 17:30:00	BASE	1.13	186	1.44	191	-9.1	90	-10.4	166	0	1010.0	NA	0.0000		9999	890	0	0	0
2020/09/04 17:31:00	BASE	1.34	191	1.54	192	-9.1	90	-10.4	169	0	1010.0	NA	0.0000		9999	950	0	0	0
2020/09/04 17:32:00	BASE	1.14	192	1.54	192	-9.1	90	-10.4	171	0	1010.0	NA	0.0000		9999	790	0	0	0
2020/09/04 17:33:00	BASE	0.95	194	1.54	192	-9.1	90	-10.4	171	0	1010.0	NA	0.0000		9999	820	0	0	0
2020/09/04 17:34:00	BASE	1.08	194	1.54	192	-9.1	90	-10.4	170	0	1010.0	NA	0.0000		9999	850	0	0	0
2020/09/04 17:35:00	BASE	1.42	197	1.95	200	-9.1	90	-10.4	170	0	1010.0	NA	0.0000		9999	980	0	0	0
2020/09/04 17:36:00	BASE	1.76	202	2.21	195	-9.1	90	-10.4	170	0	1010.0	NA	0.0000		9999	980	0	0	0
2020/09/04 17:37:00	BASE	1.76	199	2.21	195	-9.1	90	-10.4	167	0	1010.0	NA	0.0000		9999	790	0	0	0
2020/09/04 17:38:00	BASE	1.48	195	2.21	195	-9.1	90	-10.4	163	0	1010.0	NA	0.0000		9999	790	0	0	0
2020/09/04 17:39:00	BASE	1.10	208	2.21	195	-9.0	90	-10.4	159	0	1010.0	NA	0.0000		9999	790	0	0	0
2020/09/04 17:40:00	BASE	0.96	226	2.21	195	-9.0	90	-10.4	156	0	1010.0	NA	0.0000		9999	820	0	0	0
2020/09/04 17:41:00	BASE	0.74	235	2.21	195	-9.0	90	-10.4	156	0	1010.0	NA	0.0000		9999	850	0	0	0
2020/09/04 17:42:00	BASE	0.93	241	2.21	195	-9.1	90	-10.4	155	0	1010.0	NA	0.0000		9999	850	0	0	0
2020/09/04 17:43:00	BASE	1.54	241	2.21	195	-9.1	90	-10.4	155	0	1010.0	NA	0.0000		9999	920	0	0	0
2020/09/04 17:44:00	BASE	1.61	238	2.21	195	-9.1	90	-10.4	156	0	1010.0	NA	0.0000		9999	920	0	0	0
2020/09/04 17:45:00	BASE	1.69	237	2.62	234	-9.1	90	-10.4	158	0	1009.9	NA	0.0000		9999	890	0	0	0
2020/09/04 17:46:00	BASE	1.56	236	2.62	234	-9.1	91	-10.4	157	0	1010.0	NA	0.0000		9999	890	23200	0	0
2020/09/04 17:47:00	BASE	1.32	238	2.62	234	-9.1	91	-10.3	156	0	1009.9	NA	0.0000		9999	920	0	0	0
2020/09/04 17:48:00	BASE	1.57	228	2.83	182	-9.1	91	-10.3	158	0	1009.8	NA	0.0000		9999	950	0	0	0
2020/09/04 17:49:00	BASE	2.15	215	2.83	182	-9.1	91	-10.3	157	0	1009.8	NA	0.0000		9999	950	0	0	0
2020/09/04 17:50:00	BASE	3.04	214	3.91	215	-9.1	91	-10.3	156	0	1009.8	NA	0.0000		9999	950	0	0	0
2020/09/04 17:51:00	BASE	3.48	216	3.91	215	-9.0	91	-10.2	154	0	1009.8	NA	0.0000		9999	920	0	0	0
2020/09/04 17:52:00	BASE	3.48	214	3.91	215	-9.0	91	-10.2	153	0	1009.8	NA	0.0000		9999	920	0	0	0
2020/09/04 17:53:00	BASE	3.28	206	3.91	215	-9.0	91	-10.2	152	0	1009.9	NA	0.0000		9999	890	0	0	0
2020/09/04 17:54:00	BASE	2.99	198	3.91	215	-9.0	91	-10.2	151	0	1010.0	NA	0.0000		9999	890	0	0	0
2020/09/04 17:55:00	BASE	2.67	191	3.91	215	-9.1	91	-10.3	150	0	1010.0	NA	0.0000		9999	820	0	0	0
2020/09/04 17:56:00	BASE	2.11	184	3.91	215	-9.1	91	-10.3	148	0	1010.0	NA	0.0000		9999	790	0	0	0
2020/09/04 17:57:00	BASE	2.07	182	3.91	215	-9.1	91	-10.3	148	0	1010.0	NA	0.0000		9999	820	0	0	0
2020/09/04 17:58:00	BASE	2.02	179	3.91	215	-9.1	91	-10.3	147	0	1010.0	NA	0.0000		9999	920	0	0	0
2020/09/04 17:59:00	BASE	1.81	171	3.91	215	-9.1	91	-10.3	146	0	1010.0	NA	0.0000		9999	920	0	0	0
2020/09/04 18:00:00	BASE	2.40	181	3.76	211	-9.1	91	-10.3	143	0	1010.0	NA	0.0000		9999	920	0	0	0
2020/09/04 18:01:00	BASE	3.05	204	3.76	211	-9.1	91	-10.3	142	0	1010.0	NA	0.0000		9999	850	0	0	0
2020/09/04 18:02:00	BASE	3.01	218	3.70	199	-9.1	91	-10.3	140	0	1010.0	NA	0.0000		9999	850	0	0	0
2020/09/04 18:03:00	BASE	2.73	231	3.65	201	-9.1	91	-10.3	144	0	1010.0	NA	0.0000		9999	790	0	0	0
2020/09/04 18:04:00	BASE	2.33	235	3.65	201	-9.1	91	-10.3	149	0	1010.0	NA	0.0000		9999	820	0	0	0
2020/09/04 18:05:00	BASE	2.26	234	3.65	201	-9.1	91	-10.3	157	0	1010.0	NA	0.0000		9999	950	0	0	0
2020/09/04 18:06:00	BASE	2.23	234	3.65	201	-9.1	91	-10.3	164	0	1010.0	NA	0.0000		9999	890	0	0	0
2020/09/04 18:07:00	BASE	2.13	234	3.65	201	-9.1	91	-10.3	169	0	1010.0	NA	0.0000		9999	850	0	0	0
2020/09/04 18:08:00	BASE	2.34	232	3.65	201	-9.1	91	-10.3	171	0	1010.0	NA	0.0000		9999	950	0	0	0
2020/09/04 18:09:00	BASE	2.18	227	3.65	201	-9.1	91	-10.3	169	0	1010.0	NA	0.0000		9999	950	0	0	0
2020/09/04 18:10:00	BASE	2.02	228	3.55	208	-9.1	91	-10.3	164	0	1010.0	NA	0.0000		9999	920	0	0	0
2020/09/04 18:11:00	BASE	1.89	232	3.14	218	-9.1	91	-10.3	159	0	1009.9	NA	0.0000		9999	1020	0	0	0
2020/09/04 18:12:00	BASE	1.05	222	2.88	230	-9.1	91	-10.3	152	0	1009.9	NA	0.0000		9999	950	0	0	0
2020/09/04 18:13:00	BASE	0.45	193	2.88	230	-9.1	91	-10.3	146	0	1010.0	NA	0.0000		9999	950	24080	0	0
2020/09/04 18:14:00	BASE	0.41	174	2.88	230	-9.1	91	-10.3	142	0	1010.0	NA	0.0000		9999	980	0	0	0
2020/09/04 18:15:00	BASE	0.95	167	2.88	230	-9.1	91	-10.3	136	0	1010.0	NA	0.0000		9999	950	0	0	0
2020/09/04 18:16:00	BASE	1.31	163	2.88	230	-9.1	91	-10.3	133	0	1010.0	NA	0.0000		9999	950	0	0	0
2020/09/04 18:17:00	BASE	1.04	164	2.88	230	-9.0	91	-10.2	133	0	1010.0	NA	0.0000		9999	950	0	0	0
2020/09/04 18:18:00	BASE	1.26	165	2.42	162	-9.0	91	-10.2	133	0	1010.0	NA	0.0000		9999	950	0	0	0
2020/09/04 18:19:00	BASE	2.01	167	2.83	169	-9.0	91	-10.2	134	0	1010.0	NA	0.0000		9999	890	0	0	0
2020/09/04 18:20:00	BASE	2.33	169	2.83	169	-9.0	91	-10.2	132	0	1010.0	NA	0.0000		9999	950	0	0	0
2020/09/04 18:21:00	BASE	2.03	166	2.83	169	-9.0	91	-10.2	131	0	1010.0	NA	0.0000		9999	890	0	0	0
2020/09/04 18:22:00	BASE	1.62	170	2.83	169	-9.0	91	-10.2	130	0	1010.0	NA	0.0000		9999	920	0	0	0
2020/09/04 18:23:00	BASE	1.27	182	2.83	169	-9.0	91	-10.2	128	0	1010.0	NA	0.0000		9999	890	0	0	0
2020/09/04 18:24:00	BASE	0.93	183	2.83	169	-9.0	91	-10.2	126	0	1010.0	NA	0.0000		9999	920	0	0	0
2020/09/04 18:25:00	BASE	1.09	187	2.83	169	-9.1	91	-10.3	124	0	1010.0	NA	0.0000		9999	950	0	0	0
2020/09/04 18:26:00	BASE	1.99	204	3.09	209	-9.1	91	-10.3	125	0	1010.0	NA	0.0000		9999	950	0	0	0
2020/09/04 18:27:00	BASE	2.62	215	3.14	207	-9.1	91	-10.3	127	0	1010.0	NA	0.0000		9999	920	0	0	0
2020/09/04 18:28:00	BASE	2.70	212	3.14	207	-9.1	91	-10.3	127	0	1010.0	NA	0.0000		9999	890	0	0	0
2020/09/04 18:29:00	BASE	2.36	206	3.14	207	-9.1	91	-10.3	127	0	1010.0	NA	0.0000		9999	820	0	0	0
2020/09/04 18:30:00	BASE	1.94	196	3.14	207	-9.1	91	-10.3	127	0	1010.0	NA	0.0000		9999	750	0	0	0
2020/09/04 18:31:00	BASE	1.58	183	3.14	207	-9.1	91	-10.3	127	0	1010.0	NA	0.0000		9999	890	0	0	0
2020/09/04 18:32:00	BASE	1.30	177	3.14	207	-9.1	91	-10.3	125	0	1010.0	NA	0.0000		9999	820	0	0	0
2020/09/04 18:33:00	BASE	1.13	170	3.14	207	-9.1	91	-10.3	121	0	1009.9	NA	0.0000		9999	790	0	0	0
2020/09/04 18:34:00	BASE	1.22	162	3.14	207	-9.1	91	-10.3	118	0	1010.0	NA	0.0000		9999	850	0	0	0
2020/09/04 18:35:00	BASE	1.36	166	3.14	207	-9.1	91	-10.3	116	0	1010.0	NA	0.0000		9999	920	0	0	0
2020/09/04 18:36:00	BASE	1.54	176	3.14	207	-9.1	91	-10.3	115	0	1010.0	NA	0.0000		9999	750	0	0	0
2020/09/04 18:37:00	BASE	1.47	179	2.93	212	-9.1	91	-10.3	116	0	1009.9	NA	0.0000		9999	750	0	0	0
2020/09/04 18:38:00	BASE	1.29	186	2.52	203	-9.1	91	-10.3	119	0	1009.9	NA	0.0000		9999	790	0	0	0
2020/09/04 18:39:00	BASE	1.32	206	2.26	185	-9.2	91	-10.4	123	0	1010.0	NA	0.0000		9999	790	22050	0	0
2020/09/04 18:40:00	BASE	0.66	214	2.26	185	-9.2	91	-10.4	124	0	1010.0	NA	0.0000		9999	820	0	0	0
2020/09/04 18:41:00	BASE	0.20	205	2.26	185	-9.2	91	-10.4	122	0	1009.9	NA	0.0000		9999	890	0	0	0
2020/09/04 18:42:00	BASE	0.90	180	2.26	185	-9.2	91	-10.4	120	0	1009.8	NA	0.0000		9999	890	0	0	0
2020/09/04 18:43:00	BASE	1.35	161	2.26	185	-9.2	91	-10.3	118	0	1009.8	NA	0.0000		9999	850	22250	22930	0
2020/09/04 18:44:00	BASE	1.21	152	2.26	185	-9.1	91	-10.3	117	0	1009.8	NA	0.0000		9999	820	0	0	0
2020/09/04 18:45:00	BASE	1.32	136	2.26	185	-9.1	92	-10.2	116	0	1009.8	NA	0.0000		9999	850	0	0	0
2020/09/04 18:46:00	BASE	1.61	129	1.85	128	-9.1	92	-10.2	115	0	1009.8	NA	0.0000		9999	850	0	0	0
2020/09/04 18:47:00	BASE	1.66	131	1.85	144	-9.1	92	-10.2	111	0	1009.8	NA	0.0000		9999	920	0	0	0
2020/09/04 18:48:00	BASE	1.65	139	2.06	148	-9.1	92	-10.2	107	0	1009.8	NA	0.0000		9999	920	0	0	0
2020/09/04 18:49:00	BASE	2.03	150	3.19	160	-9.1	92	-10.2	103	0	1009.8	NA	0.0000		9999	920	22640	0	0
2020/09/04 18:50:00	BASE	2.48	163	3.19	160	-9.1	92	-10.2	98	0	1009.8	NA	0.0000		9999	890	0	0	0
2020/09/04 18:51:00	BASE	2.75	174	3.19	179	-9.1	92	-10.2	91	0	1009.8	NA	0.0000		9999	890	0	0	0
2020/09/04 18:52:00	BASE	3.06	179	3.91	181	-9.1	92	-10.2	87	0	1009.8	NA	0.0000		9999	920	0	0	0
2020/09/04 18:53:00	BASE	2.88	181	3.91	181	-9.2	92	-10.2	85	0	1009.8	NA	0.0000		9999	920	0	0	0
2020/09/04 18:54:00	BASE	2.72	184	3.91	181	-9.2	92	-10.2	87	0	1009.8	NA	0.0000		9999	920	0	0	0
2020/09/04 18:55:00	BASE	2.86	187	3.91	181	-9.2	92	-10.2	90	0	1009.7	NA	0.0000		9999	950	0	0	0
2020/09/04 18:56:00	BASE	2.74	192	3.91	181	-9.2	92	-10.3	92	0	1009.7	NA	0.0000		9999	820	0	0	0
2020/09/04 18:57:00	BASE	2.35	200	3.91	181	-9.2	92	-10.3	96	0	1009.8	NA	0.0000		9999	820	0	0	0
2020/09/04 18:58:00	BASE	1.72	201	3.91	181	-9.2	92	-10.3	98	0	1009.8	NA	0.0000		9999	790	0	0	0
2020/09/04 18:59:00	BASE	1.53	206	3.91	181	-9.2	92	-10.3	97	0	1009.8	NA	0.0000		9999	790	0	0	0
2020/09/04 19:00:00	BASE	1.55	221	3.91	181	-9.2	92	-10.3	95	0	1009.8	NA	0.0000		9999	850	0	0	0
2020/09/04 19:01:00	BASE	0.86	224	3.91	181	-9.2	92	-10.3	91	0	1009.8	NA	0.0000		9999	850	0	0	0
2020/09/04 19:02:00	BASE	0.14	200	3.29	187	-9.2	92	-10.3	89	0	1009.8	NA	0.0000		9999	920	0	0	0
2020/09/04 19:03:00	BASE	0.22	167	3.29	187	-9.2	92	-10.3	90	0	1009.8	NA	0.0000		9999	890	0	0	0
2020/09/04 19:04:00	BASE	0.88	157	3.29	187	-9.2	92	-10.3	94	0	1009.8	NA	0.0000		9999	890	0	0	0
2020/09/04 19:05:00	BASE	1.61	162	3.09	195	-9.2	92	-10.3	99	0	1009.8	NA	0.0000		9999	890	0	0	0
2020/09/04 19:06:00	BASE	1.88	168	2.31	196	-9.2	92	-10.3	103	0	1009.8	NA	0.0000		9999	890	0	0	0
2020/09/04 19:07:00	BASE	1.85	180	2.16	189	-9.2	92	-10.3	106	0	1009.8	NA	0.0000		9999	950	0	0	0
2020/09/04 19:08:00	BASE	1.79	192	2.16	189	-9.2	92	-10.3	105	0	1009.8	NA	0.0000		9999	920	0	0	0
2020/09/04 19:09:00	BASE	1.63	197	2.16	189	-9.2	92	-10.3	103	0	1009.8	NA	0.0000		9999	890	0	0	0
2020/09/04 19:10:00	BASE	0.85	203	2.16	189	-9.2	92	-10.3	104	0	1009.8	NA	0.0000		9999	920	0	0	0
2020/09/04 19:11:00	BASE	0.24	227	2.16	189	-9.2	92	-10.3	107	0	1009.8	NA	0.0000		9999	890	0	0	0
2020/09/04 19:12:00	BASE	0.78	264	2.16	189	-9.2	92	-10.3	110	0	1009.7	NA	0.0000		9999	790	0	0	0
2020/09/04 19:13:00	BASE	0.94	267	2.16	189	-9.2	92	-10.3	114	0	1009.7	NA	0.0000		9999	820	0	0	0
2020/09/04 19:14:00	BASE	0.31	272	2.16	189	-9.2	92	-10.3	118	0	1009.7	NA	0.0000		9999	890	0	0	0
2020/09/04 19:15:00	BASE	0.00	284	2.16	189	-9.2	92	-10.3	120	0	1009.7	NA	0.0000		9999	850	0	0	0
2020/09/04 19:16:00	BASE	0.00	279	2.16	189	-9.2	92	-10.2	119	0	1009.7	NA	0.0000		9999	850	0	0	0
2020/09/04 19:17:00	BASE	0.00	281	2.11	205	-9.2	92	-10.2	117	0	1009.7	NA	0.0000		9999	890	0	0	0
2020/09/04 19:18:00	BASE	0.21	266	2.06	251	-9.2	92	-10.2	114	0	1009.7	NA	0.0000		9999	920	0	0	0
2020/09/04 19:19:00	BASE	0.97	249	2.06	251	-9.2	92	-10.2	113	0	1009.7	NA	0.0000		9999	920	0	0	0
2020/09/04 19:20:00	BASE	1.61	245	2.06	242	-9.2	92	-10.2	112	0	1009.7	NA	0.0000		9999	920	21650	22310	0
2020/09/04 19:21:00	BASE	1.61	234	2.06	242	-9.2	92	-10.2	107	0	1009.7	NA	0.0000		9999	890	0	0	0
2020/09/04 19:22:00	BASE	1.63	220	2.06	242	-9.2	92	-10.3	100	0	1009.7	NA	0.0000		9999	850	0	0	0
2020/09/04 19:23:00	BASE	1.59	208	2.11	210	-9.2	92	-10.3	93	0	1009.7	NA	0.0000		9999	820	0	0	0
2020/09/04 19:24:00	BASE	1.06	201	2.11	210	-9.2	92	-10.3	88	0	1009.7	NA	0.0000		9999	790	0	0	0
2020/09/04 19:25:00	BASE	0.33	200	2.11	210	-9.2	92	-10.3	85	0	1009.7	NA	0.0000		9999	820	0	0	0
2020/09/04 19:26:00	BASE	0.00	205	2.11	210	-9.2	92	-10.3	84	0	1009.7	NA	0.0000		9999	820	0	0	0
2020/09/04 19:27:00	BASE	0.00	209	2.11	210	-9.2	92	-10.3	85	0	1009.7	NA	0.0000		9999	790	0	0	0
2020/09/04 19:28:00	BASE	0.00	207	2.11	210	-9.2	92	-10.3	86	0	1009.7	NA	0.0000		9999	820	0	0	0
2020/09/04 19:29:00	BASE	0.00	206	2.11	210	-9.2	92	-10.2	86	0	1009.7	NA	0.0000		9999	820	0	0	0
2020/09/04 19:30:00	BASE	0.00	207	2.11	210	-9.2	92	-10.2	86	0	1009.7	NA	0.0000		9999	890	0	0	0
2020/09/04 19:31:00	BASE	0.00	210	2.11	210	-9.2	92	-10.2	87	0	1009.7	NA	0.0000		9999	890	0	0	0
2020/09/04 19:32:00	BASE	0.00	212	2.11	210	-9.2	92	-10.2	87	0	1009.7	NA	0.0000		9999	890	0	0	0
2020/09/04 19:33:00	BASE	0.00	206	1.29	209	-9.2	92	-10.2	86	0	1009.7	NA	0.0000		9999	890	21790	0	0
2020/09/04 19:34:00	BASE	0.00	211	M	M	-9.2	92	-10.2	85	0	1009.7	NA	0.0000		9999	890	0	0	0
2020/09/04 19:35:00	BASE	0.72	226	1.95	235	-9.2	92	-10.2	83	0	1009.7	NA	0.0000		9999	890	0	0	0
2020/09/04 19:36:00	BASE	1.57	230	1.95	223	-9.2	92	-10.2	81	0	1009.7	NA	0.0000		9999	850	0	0	0
2020/09/04 19:37:00	BASE	1.47	236	1.95	223	-9.2	92	-10.3	80	0	1009.7	NA	0.0000		9999	850	0	0	0
2020/09/04 19:38:00	BASE	1.39	242	2.06	235	-9.2	92	-10.2	81	0	1009.7	NA	0.0000		9999	850	0	0	0
2020/09/04 19:39:00	BASE	1.23	242	2.06	235	-9.2	92	-10.2	83	0	1009.7	NA	0.0000		9999	790	0	0	0
2020/09/04 19:40:00	BASE	1.12	242	2.06	235	-9.2	93	-10.2	86	0	1009.7	NA	0.0000		9999	750	0	0	0
2020/09/04 19:41:00	BASE	1.14	249	2.06	235	-9.2	93	-10.2	86	0	1009.7	NA	0.0000		9999	790	23330	0	0
2020/09/04 19:42:00	BASE	0.90	258	2.06	235	-9.2	93	-10.2	88	0	1009.7	NA	0.0000		9999	920	0	0	0
2020/09/04 19:43:00	BASE	0.57	257	2.06	235	-9.2	93	-10.2	88	0	1009.7	NA	0.0000		9999	850	0	0	0
2020/09/04 19:44:00	BASE	0.31	251	2.06	235	-9.2	93	-10.2	87	0	1009.7	NA	0.0000		9999	890	0	0	0
2020/09/04 19:45:00	BASE	0.18	256	2.06	235	-9.2	93	-10.2	84	0	1009.7	NA	0.0000		9999	920	0	0	0
2020/09/04 19:46:00	BASE	0.00	267	2.06	235	-9.2	93	-10.2	81	0	1009.7	NA	0.0000		9999	950	0	0	0
2020/09/04 19:47:00	BASE	0.00	265	2.06	235	-9.2	93	-10.1	78	0	1009.7	NA	0.0000		9999	890	0	0	0
2020/09/04 19:48:00	BASE	0.00	268	1.65	234	-9.2	93	-10.1	73	0	1009.7	NA	0.0000		9999	920	0	0	0
2020/09/04 19:49:00	BASE	0.00	276	1.59	236	-9.2	93	-10.1	67	0	1009.7	NA	0.0000		9999	850	0	0	0
2020/09/04 19:50:00	BASE	0.00	277	1.29	257	-9.2	93	-10.1	64	0	1009.7	NA	0.0000		9999	820	0	0	0
2020/09/04 19:51:00	BASE	0.00	260	1.23	244	-9.2	93	-10.1	61	0	1009.7	NA	0.0000		9999	850	0	0	0
2020/09/04 19:52:00	BASE	0.00	224	1.23	244	-9.2	93	-10.1	60	0	1009.7	NA	0.0000		9999	890	0	0	0
2020/09/04 19:53:00	BASE	0.25	229	1.39	243	-9.2	93	-10.1	58	0	1009.7	NA	0.0000		9999	920	0	0	0
2020/09/04 19:54:00	BASE	0.96	252	2.11	270	-9.2	93	-10.1	58	0	1009.7	NA	0.0000		9999	920	0	0	0
2020/09/04 19:55:00	BASE	0.90	253	2.11	270	-9.1	93	-10.1	58	0	1009.7	NA	0.0000		9999	850	0	0	0
2020/09/04 19:56:00	BASE	0.44	270	2.11	270	-9.1	93	-10.0	55	0	1009.7	NA	0.0000		9999	890	0	0	0
2020/09/04 19:57:00	BASE	0.87	282	2.11	270	-9.1	93	-10.0	55	0	1009.7	NA	0.0000		9999	890	0	0	0
2020/09/04 19:58:00	BASE	1.25	263	2.11	270	-9.1	93	-10.0	55	0	1009.7	NA	0.0000		9999	850	0	0	0
2020/09/04 19:59:00	BASE	1.30	248	2.11	270	-9.1	93	-10.0	54	0	1009.7	NA	0.0000		9999	790	0	0	0
2020/09/04 20:00:00	BASE	1.55	252	2.21	261	-9.1	93	-10.0	55	0	1009.7	NA	0.0000		9999	850	0	0	0
2020/09/04 20:01:00	BASE	1.83	259	2.21	261	-9.1	93	-10.0	58	0	1009.7	NA	0.0000		9999	850	0	0	0
2020/09/04 20:02:00	BASE	1.97	262	2.47	251	-9.1	93	-10.0	59	0	1009.7	NA	0.0000		9999	820	0	0	0
2020/09/04 20:03:00	BASE	2.04	260	2.47	251	-9.1	93	-10.0	61	0	1009.7	NA	0.0000		9999	790	0	0	0
2020/09/04 20:04:00	BASE	2.19	252	2.52	246	-9.1	93	-10.1	63	0	1009.7	NA	0.0000		9999	790	0	0	0
2020/09/04 20:05:00	BASE	2.13	245	2.52	246	-9.1	93	-10.1	65	0	1009.7	NA	0.0000		9999	920	0	0	0
2020/09/04 20:06:00	BASE	1.98	243	2.52	246	-9.2	93	-10.1	66	0	1009.7	NA	0.0000		9999	820	0	0	0
2020/09/04 20:07:00	BASE	1.92	239	2.52	246	-9.2	93	-10.1	66	0	1009.7	NA	0.0000		9999	820	0	0	0
2020/09/04 20:08:00	BASE	1.78	237	2.52	246	-9.2	93	-10.1	65	0	1009.7	NA	0.0000		9999	820	0	0	0
2020/09/04 20:09:00	BASE	1.59	241	2.52	246	-9.2	93	-10.1	62	0	1009.7	NA	0.0000		9999	820	0	0	0
2020/09/04 20:10:00	BASE	1.45	247	2.52	246	-9.2	93	-10.1	60	0	1009.8	NA	0.0000		9999	820	0	0	0
2020/09/04 20:11:00	BASE	1.57	247	2.52	246	-9.2	93	-10.1	59	0	1009.8	NA	0.0000		9999	820	0	0	0
2020/09/04 20:12:00	BASE	1.48	241	2.52	246	-9.2	93	-10.1	58	0	1009.8	NA	0.0000		9999	790	21490	0	0
2020/09/04 20:13:00	BASE	1.12	235	2.52	246	-9.2	93	-10.1	55	0	1009.8	NA	0.0000		9999	720	0	0	0
2020/09/04 20:14:00	BASE	0.91	228	2.16	242	-9.2	93	-10.1	52	0	1009.8	NA	0.0000		9999	720	0	0	0
2020/09/04 20:15:00	BASE	0.78	235	2.11	238	-9.2	93	-10.1	50	0	1009.8	NA	0.0000		9999	790	0	0	0
2020/09/04 20:16:00	BASE	0.93	252	1.95	239	-9.2	93	-10.1	48	0	1009.8	NA	0.0000		9999	850	0	0	0
2020/09/04 20:17:00	BASE	0.74	258	1.90	243	-9.2	93	-10.1	47	0	1009.8	NA	0.0000		9999	850	0	0	0
2020/09/04 20:18:00	BASE	0.83	254	1.90	243	-9.2	93	-10.1	45	0	1009.7	NA	0.0000		9999	790	0	0	0
2020/09/04 20:19:00	BASE	0.93	244	1.90	243	-9.2	93	-10.1	43	0	1009.7	NA	0.0000		9999	660	0	0	0
2020/09/04 20:20:00	BASE	0.28	235	1.90	243	-9.2	93	-10.1	42	0	1009.7	NA	0.0000		9999	590	0	0	0
2020/09/04 20:21:00	BASE	0.00	229	1.49	249	-9.2	93	-10.1	40	0	1009.7	NA	0.0000		9999	690	0	0	0
2020/09/04 20:22:00	BASE	0.00	170	1.49	249	-9.2	93	-10.1	37	0	1009.7	NA	0.0000		9999	850	0	0	0
2020/09/04 20:23:00	BASE	0.00	107	1.49	249	-9.2	93	-10.1	36	0	1009.7	NA	0.0000		9999	850	0	0	0
2020/09/04 20:24:00	BASE	0.00	101	1.49	249	-9.2	93	-10.1	36	0	1009.7	NA	0.0000		9999	820	0	0	0
2020/09/04 20:25:00	BASE	0.00	60	1.49	249	-9.2	93	-10.1	37	0	1009.7	NA	0.0000		9999	790	0	0	0
2020/09/04 20:26:00	BASE	0.00	36	1.49	249	-9.2	93	-10.1	36	0	1009.7	NA	0.0000		9999	850	0	0	0
2020/09/04 20:27:00	BASE	0.00	50	1.49	249	-9.2	93	-10.1	35	0	1009.7	NA	0.0000		9999	790	0	0	0
2020/09/04 20:28:00	BASE	0.00	21	1.23	260	-9.2	94	-10.0	32	0	1009.7	NA	0.0000		9999	790	0	0	0
2020/09/04 20:29:00	BASE	0.00	345	M	M	-9.2	94	-10.0	30	0	1009.7	NA	0.0000		9999	790	0	0	0
2020/09/04 20:30:00	BASE	0.00	333	M	M	-9.2	94	-10.0	29	0	1009.7	NA	0.0000		9999	820	0	0	0
2020/09/04 20:31:00	BASE	0.00	331	M	M	-9.2	94	-10.0	29	0	1009.7	NA	0.0000		9999	750	0	0	0
2020/09/04 20:32:00	BASE	0.00	330	M	M	-9.2	94	-10.0	30	0	1009.7	NA	0.0000		9999	790	0	0	0
2020/09/04 20:33:00	BASE	0.00	345	M	M	-9.2	94	-10.0	31	0	1009.7	NA	0.0000		9999	750	0	0	0
2020/09/04 20:34:00	BASE	0.00	1	M	M	-9.2	94	-10.0	32	0	1009.7	NA	0.0000		9999	660	0	0	0
2020/09/04 20:35:00	BASE	0.00	6	M	M	-9.2	94	-10.0	34	0	1009.7	NA	0.0000		9999	790	0	0	0
2020/09/04 20:36:00	BASE	0.05	348	1.08	302	-9.2	94	-10.0	35	0	1009.7	NA	0.0000		9999	820	0	0	0
2020/09/04 20:37:00	BASE	0.47	310	1.23	308	-9.2	94	-10.0	36	0	1009.7	NA	0.0000		9999	820	0	0	0
2020/09/04 20:38:00	BASE	0.58	300	1.29	293	-9.2	94	-10.0	37	0	1009.7	NA	0.0000		9999	790	0	0	0
2020/09/04 20:39:00	BASE	0.45	295	1.75	288	-9.2	94	-10.0	37	0	1009.7	NA	0.0000		9999	720	0	0	0
2020/09/04 20:40:00	BASE	0.30	282	1.75	288	-9.2	94	-10.0	38	0	1009.7	NA	0.0000		9999	720	0	0	0
2020/09/04 20:41:00	BASE	0.00	272	1.75	288	-9.2	94	-10.0	38	0	1009.7	NA	0.0000		9999	720	0	0	0
2020/09/04 20:42:00	BASE	0.00	251	1.75	288	-9.2	94	-10.0	36	0	1009.7	NA	0.0000		9999	690	0	0	0
2020/09/04 20:43:00	BASE	0.00	234	1.75	288	-9.2	94	-10.0	35	0	1009.7	NA	0.0000		9999	750	0	0	0
2020/09/04 20:44:00	BASE	0.00	212	1.75	288	-9.2	94	-10.0	33	0	1009.7	NA	0.0000		9999	690	0	0	0
2020/09/04 20:45:00	BASE	0.00	202	1.75	288	-9.2	94	-10.0	32	0	1009.7	NA	0.0000		9999	790	0	0	0
2020/09/04 20:46:00	BASE	0.00	224	1.75	288	-9.2	94	-10.0	32	0	1009.7	NA	0.0000		9999	820	0	0	0
2020/09/04 20:47:00	BASE	0.00	238	1.75	288	-9.2	94	-10.0	32	0	1009.7	NA	0.0000		9999	720	0	0	0
2020/09/04 20:48:00	BASE	0.00	227	1.75	288	-9.2	94	-10.0	31	0	1009.7	NA	0.0000		9999	720	0	0	0
2020/09/04 20:49:00	BASE	0.14	208	1.23	210	-9.2	94	-10.0	29	0	1009.7	NA	0.0000		9999	720	0	0	0
2020/09/04 20:50:00	BASE	0.62	197	1.23	193	-9.2	94	-10.0	27	0	1009.6	NA	0.0000		9999	690	0	0	0
2020/09/04 20:51:00	BASE	0.81	188	1.29	190	-9.2	94	-10.0	25	0	1009.6	NA	0.0000		9999	790	0	0	0
2020/09/04 20:52:00	BASE	0.33	178	1.29	190	-9.2	94	-10.0	25	0	1009.6	NA	0.0000		9999	790	0	0	0
2020/09/04 20:53:00	BASE	0.00	170	1.29	190	-9.2	94	-9.9	26	0	1009.6	NA	0.0000		9999	720	0	0	0
2020/09/04 20:54:00	BASE	0.00	186	1.29	190	-9.2	94	-9.9	25	0	1009.6	NA	0.0000		9999	790	0	0	0
2020/09/04 20:55:00	BASE	0.33	194	1.29	184	-9.2	94	-9.9	25	0	1009.5	NA	0.0000		9999	790	0	0	0
2020/09/04 20:56:00	BASE	0.53	191	1.29	194	-9.2	94	-10.0	25	0	1009.6	NA	0.0000		9999	820	0	0	0
2020/09/04 20:57:00	BASE	0.29	188	1.29	194	-9.2	94	-10.0	23	0	1009.5	NA	0.0000		9999	750	0	0	0
2020/09/04 20:58:00	BASE	0.09	169	1.29	194	-9.2	94	-10.0	21	0	1009.5	NA	0.0000		9999	750	0	0	0
2020/09/04 20:59:00	BASE	0.29	164	1.39	181	-9.2	94	-10.0	20	0	1009.5	NA	0.0000		9999	750	0	0	0
2020/09/04 21:00:00	BASE	1.08	176	1.95	186	-9.2	94	-10.0	18	0	1009.5	NA	0.0000		9999	920	0	0	0
2020/09/04 21:01:00	BASE	1.68	190	2.06	196	-9.2	94	-10.0	17	0	1009.5	NA	0.0000		9999	820	0	0	0
2020/09/04 21:02:00	BASE	1.26	202	2.06	196	-9.2	94	-10.0	16	0	1009.5	NA	0.0000		9999	790	0	0	0
2020/09/04 21:03:00	BASE	0.35	208	2.06	196	-9.2	94	-10.0	15	0	1009.5	NA	0.0000		9999	790	0	0	0
2020/09/04 21:04:00	BASE	0.54	225	2.06	196	-9.2	94	-10.0	15	0	1009.5	NA	0.0000		9999	790	0	0	0
2020/09/04 21:05:00	BASE	1.08	236	2.06	196	-9.2	94	-10.0	15	0	1009.5	NA	0.0000		9999	850	0	0	0
2020/09/04 21:06:00	BASE	0.93	236	2.06	196	-9.2	94	-10.0	15	0	1009.5	NA	0.0000		9999	750	0	0	0
2020/09/04 21:07:00	BASE	0.39	239	2.06	196	-9.2	94	-10.0	15	0	1009.5	NA	0.0000		9999	660	0	0	0
2020/09/04 21:08:00	BASE	0.00	257	2.06	196	-9.2	94	-10.0	15	0	1009.5	NA	0.0000		9999	720	0	0	0
2020/09/04 21:09:00	BASE	0.00	277	2.06	196	-9.2	94	-9.9	15	0	1009.5	NA	0.0000		9999	790	0	0	0
2020/09/04 21:10:00	BASE	0.00	298	2.06	196	-9.2	95	-9.9	13	0	1009.5	NA	0.0000		9999	820	0	0	0
2020/09/04 21:11:00	BASE	0.00	318	1.39	202	-9.2	95	-9.9	12	0	1009.5	NA	0.0000		9999	720	0	0	0
2020/09/04 21:12:00	BASE	0.00	317	1.29	239	-9.2	95	-9.8	11	0	1009.5	NA	0.0000		9999	750	0	0	0
2020/09/04 21:13:00	BASE	0.00	316	1.29	239	-9.2	95	-9.8	10	0	1009.4	NA	0.0000		9999	690	0	0	0
2020/09/04 21:14:00	BASE	0.00	338	1.29	239	-9.2	95	-9.8	10	0	1009.4	NA	0.0000		9999	720	0	0	0
2020/09/04 21:15:00	BASE	0.00	355	1.23	231	-9.2	95	-9.8	9	0	1009.4	NA	0.0000		9999	790	0	0	0
2020/09/04 21:16:00	BASE	0.00	345	M	M	-9.2	95	-9.8	9	0	1009.4	NA	0.0000		9999	820	0	0	0
2020/09/04 21:17:00	BASE	0.00	338	M	M	-9.2	95	-9.8	10	0	1009.5	NA	0.0000		9999	820	0	0	0
2020/09/04 21:18:00	BASE	0.00	342	M	M	-9.2	95	-9.8	9	0	1009.4	NA	0.0000		9999	820	0	0	0
2020/09/04 21:19:00	BASE	0.00	344	M	M	-9.2	95	-9.8	9	0	1009.4	NA	0.0000		9999	820	0	0	0
2020/09/04 21:20:00	BASE	0.00	341	M	M	-9.2	95	-9.9	9	0	1009.4	NA	0.0000		9999	820	0	0	0
2020/09/04 21:21:00	BASE	0.00	336	M	M	-9.2	95	-9.9	8	0	1009.4	NA	0.0000		9999	850	0	0	0
2020/09/04 21:22:00	BASE	0.09	315	1.13	292	-9.2	95	-9.8	7	0	1009.4	NA	0.0000		9999	820	0	0	0
2020/09/04 21:23:00	BASE	0.09	297	1.13	292	-9.2	95	-9.8	7	0	1009.4	NA	0.0000		9999	820	0	0	0
2020/09/04 21:24:00	BASE	0.00	303	1.13	292	-9.2	95	-9.8	6	0	1009.4	NA	0.0000		9999	790	0	0	0
2020/09/04 21:25:00	BASE	0.41	291	1.90	292	-9.2	95	-9.8	6	0	1009.4	NA	0.0000		9999	790	0	0	0
2020/09/04 21:26:00	BASE	1.16	285	1.90	292	-9.1	95	-9.8	5	0	1009.4	NA	0.0000		9999	790	0	0	0
2020/09/04 21:27:00	BASE	1.34	296	1.90	292	-9.1	95	-9.8	5	0	1009.4	NA	0.0000		9999	820	0	0	0
2020/09/04 21:28:00	BASE	1.26	292	1.90	292	-9.1	95	-9.8	5	0	1009.4	NA	0.0000		9999	820	0	0	0
2020/09/04 21:29:00	BASE	1.27	291	1.90	292	-9.1	95	-9.8	5	0	1009.4	NA	0.0000		9999	790	0	0	0
2020/09/04 21:30:00	BASE	1.29	295	1.90	292	-9.1	95	-9.8	5	0	1009.4	NA	0.0000		9999	750	0	0	0
2020/09/04 21:31:00	BASE	1.40	299	1.90	292	-9.1	95	-9.8	5	0	1009.4	NA	0.0000		9999	750	0	0	0
2020/09/04 21:32:00	BASE	1.32	303	1.90	292	-9.1	95	-9.8	4	0	1009.4	NA	0.0000		9999	750	0	0	0
2020/09/04 21:33:00	BASE	0.85	302	1.90	292	-9.2	95	-9.8	4	0	1009.4	NA	0.0000		9999	750	0	0	0
2020/09/04 21:34:00	BASE	0.24	305	1.90	292	-9.2	95	-9.8	4	0	1009.4	NA	0.0000		9999	750	0	0	0
2020/09/04 21:35:00	BASE	0.00	314	1.85	286	-9.2	95	-9.8	4	0	1009.4	NA	0.0000		9999	750	0	0	0
2020/09/04 21:36:00	BASE	0.00	326	1.59	309	-9.2	95	-9.8	3	0	1009.5	NA	0.0000		9999	750	0	0	0
2020/09/04 21:37:00	BASE	0.00	341	1.54	300	-9.2	95	-9.8	3	0	1009.5	NA	0.0000		9999	750	0	0	0
2020/09/04 21:38:00	BASE	0.00	357	1.54	300	-9.2	95	-9.8	3	0	1009.5	NA	0.0000		9999	750	0	0	0
2020/09/04 21:39:00	BASE	0.00	17	1.54	300	-9.2	95	-9.9	3	0	1009.5	NA	0.0000		9999	750	0	0	0
2020/09/04 21:40:00	BASE	0.00	28	1.54	300	-9.2	95	-9.9	3	0	1009.5	NA	0.0000		9999	720	0	0	0
2020/09/04 21:41:00	BASE	0.00	31	1.34	301	-9.2	95	-9.9	3	0	1009.5	NA	0.0000		9999	720	0	0	0
2020/09/04 21:42:00	BASE	0.14	34	1.29	302	-9.2	95	-9.9	2	0	1009.5	NA	0.0000		9999	720	0	0	0
2020/09/04 21:43:00	BASE	0.46	34	1.18	35	-9.2	95	-9.9	2	0	1009.5	NA	0.0000		9999	720	0	0	0
2020/09/04 21:44:00	BASE	0.32	27	1.18	35	-9.2	95	-9.9	2	0	1009.5	NA	0.0000		9999	690	0	0	0
2020/09/04 21:45:00	BASE	0.54	29	1.44	35	-9.2	95	-9.9	2	0	1009.5	NA	0.0000		9999	720	0	0	0
2020/09/04 21:46:00	BASE	1.28	39	1.65	33	-9.2	95	-9.9	2	0	1009.5	NA	0.0000		9999	720	0	0	0
2020/09/04 21:47:00	BASE	1.53	48	1.85	53	-9.2	95	-9.9	2	0	1009.5	NA	0.0000		9999	720	0	0	0
2020/09/04 21:48:00	BASE	1.60	58	2.11	60	-9.2	95	-9.9	2	0	1009.4	NA	0.0000		9999	750	0	0	0
2020/09/04 21:49:00	BASE	1.76	62	2.21	64	-9.2	95	-9.9	2	0	1009.4	NA	0.0000		9999	720	0	0	0
2020/09/04 21:50:00	BASE	1.31	66	2.21	64	-9.2	95	-9.9	1	0	1009.4	NA	0.0000		9999	690	0	0	0
2020/09/04 21:51:00	BASE	0.80	65	2.21	64	-9.3	95	-9.9	1	0	1009.4	NA	0.0000		9999	690	0	0	0
2020/09/04 21:52:00	BASE	1.29	55	2.21	64	-9.3	95	-9.9	1	0	1009.4	NA	0.0000		9999	750	0	0	0
2020/09/04 21:53:00	BASE	1.57	51	2.21	64	-9.3	96	-9.9	1	0	1009.4	NA	0.0000		9999	690	0	0	0
2020/09/04 21:54:00	BASE	1.64	56	2.21	64	-9.3	96	-9.8	1	0	1009.4	NA	0.0000		9999	690	0	0	0
2020/09/04 21:55:00	BASE	1.83	59	2.21	65	-9.3	96	-9.8	1	0	1009.3	NA	0.0000		9999	690	0	0	0
2020/09/04 21:56:00	BASE	1.85	59	2.21	65	-9.3	96	-9.8	1	0	1009.2	NA	0.0000		9999	690	0	0	0
2020/09/04 21:57:00	BASE	1.98	59	2.21	54	-9.3	96	-9.8	1	0	1009.2	NA	0.0000		9999	690	0	0	0
2020/09/04 21:58:00	BASE	2.03	59	2.21	54	-9.3	96	-9.8	1	0	1009.2	NA	0.0000		9999	690	0	0	0
2020/09/04 21:59:00	BASE	2.03	64	2.26	73	-9.3	96	-9.8	0	0	1009.2	NA	0.0000		9999	690	0	0	0
2020/09/04 22:00:00	BASE	2.05	66	2.26	73	-9.3	96	-9.8	0	0	1009.1	NA	0.0000		9999	690	0	0	0
2020/09/04 22:01:00	BASE	2.08	61	2.31	57	-9.3	96	-9.8	0	0	1009.2	NA	0.0000		9999	690	0	0	0
2020/09/04 22:02:00	BASE	2.01	56	2.31	57	-9.3	96	-9.8	0	0	1009.2	NA	0.0000		9999	690	0	0	0
2020/09/04 22:03:00	BASE	2.02	51	2.31	47	-9.3	96	-9.8	0	0	1009.2	NA	0.0000		9999	690	0	0	0
2020/09/04 22:04:00	BASE	1.91	54	2.31	47	-9.3	96	-9.8	0	0	1009.2	NA	0.0000		9999	690	0	0	0
2020/09/04 22:05:00	BASE	1.86	57	2.42	46	-9.3	96	-9.8	0	0	1009.2	NA	0.0000		9999	690	0	0	0
2020/09/04 22:06:00	BASE	2.11	53	2.42	44	-9.3	96	-9.8	0	0	1009.2	NA	0.0000		9999	660	0	0	0
2020/09/04 22:07:00	BASE	2.08	47	2.42	44	-9.3	96	-9.8	0	0	1009.2	NA	0.0000		9999	660	0	0	0
2020/09/04 22:08:00	BASE	1.93	44	2.42	44	-9.3	96	-9.8	0	0	1009.1	NA	0.0000		9999	660	0	0	0
2020/09/04 22:09:00	BASE	1.73	47	2.42	44	-9.3	96	-9.8	0	0	1009.1	NA	0.0000		9999	720	0	0	0
2020/09/04 22:10:00	BASE	1.57	50	2.42	44	-9.3	96	-9.8	0	0	1009.1	NA	0.0000		9999	690	0	0	0
2020/09/04 22:11:00	BASE	1.36	59	2.42	44	-9.3	96	-9.8	0	0	1009.1	NA	0.0000		9999	720	0	0	0
2020/09/04 22:12:00	BASE	0.81	71	2.42	44	-9.3	96	-9.8	0	0	1009.1	NA	0.0000		9999	690	0	0	0
2020/09/04 22:13:00	BASE	0.49	81	2.42	44	-9.3	96	-9.7	0	0	1009.1	NA	0.0000		9999	690	0	0	0
2020/09/04 22:14:00	BASE	0.45	92	2.42	44	-9.3	96	-9.7	0	0	1009.1	NA	0.0000		9999	690	0	0	0
2020/09/04 22:15:00	BASE	0.53	99	2.42	44	-9.3	97	-9.7	0	0	1009.1	NA	0.0000		9999	720	0	0	0
2020/09/04 22:16:00	BASE	0.75	98	2.11	49	-9.3	97	-9.7	0	0	1009.1	NA	0.0000		9999	690	0	0	0
2020/09/04 22:17:00	BASE	0.40	85	1.95	43	-9.3	97	-9.7	0	0	1009.1	NA	0.0000		9999	690	0	0	0
2020/09/04 22:18:00	BASE	0.13	76	1.75	49	-9.3	97	-9.7	0	0	1009.1	NA	0.0000		9999	690	0	0	0
2020/09/04 22:19:00	BASE	0.13	66	1.65	49	-9.3	97	-9.7	0	0	1009.1	NA	0.0000		9999	660	0	0	0
2020/09/04 22:20:00	BASE	0.29	49	1.49	59	-9.3	97	-9.7	0	0	1009.1	NA	0.0000		9999	690	0	0	0
2020/09/04 22:21:00	BASE	0.63	35	1.34	31	-9.3	97	-9.6	0	0	1009.1	NA	0.0000		9999	660	0	0	0
2020/09/04 22:22:00	BASE	0.71	29	1.34	31	-9.2	97	-9.6	0	0	1009.1	NA	0.0000		9999	620	0	0	0
2020/09/04 22:23:00	BASE	1.03	25	1.65	19	-9.2	97	-9.6	0	0	1009.1	NA	0.0000		9999	620	0	0	0
2020/09/04 22:24:00	BASE	1.52	22	1.90	17	-9.2	97	-9.6	0	0	1009.1	NA	0.0000		9999	620	0	0	0
2020/09/04 22:25:00	BASE	1.52	15	2.01	1	-9.2	97	-9.6	0	0	1009.1	NA	0.0000		9999	590	0	0	0
2020/09/04 22:26:00	BASE	0.65	19	2.01	1	-9.2	97	-9.6	0	0	1009.1	NA	0.0000		9999	560	0	0	0
2020/09/04 22:27:00	BASE	0.57	33	2.01	1	-9.2	97	-9.6	0	0	1009.1	NA	0.0000		9999	560	0	0	0
2020/09/04 22:28:00	BASE	0.99	42	2.01	1	-9.2	97	-9.6	0	0	1009.1	NA	0.0000		9999	590	0	0	0
2020/09/04 22:29:00	BASE	0.85	50	2.01	1	-9.2	97	-9.6	0	0	1009.1	NA	0.0000		9999	620	0	0	0
2020/09/04 22:30:00	BASE	0.85	54	2.01	1	-9.2	97	-9.6	0	0	1009.1	NA	0.0000		9999	660	0	0	0
2020/09/04 22:31:00	BASE	0.91	56	2.01	1	-9.2	97	-9.6	0	0	1009.1	NA	0.0000		9999	620	0	0	0
2020/09/04 22:32:00	BASE	1.20	49	2.01	1	-9.2	97	-9.6	0	0	1009.1	NA	0.0000		9999	620	0	0	0
2020/09/04 22:33:00	BASE	1.39	44	2.01	1	-9.2	97	-9.6	0	0	1009.1	NA	0.0000		9999	660	0	0	0
2020/09/04 22:34:00	BASE	1.11	51	2.01	1	-9.2	97	-9.6	0	0	1009.1	NA	0.0000		9999	620	0	0	0
2020/09/04 22:35:00	BASE	1.01	49	1.70	48	-9.2	97	-9.6	0	0	1009.1	NA	0.0000		9999	590	0	0	0
2020/09/04 22:36:00	BASE	1.26	49	1.70	48	-9.2	97	-9.6	0	0	1009.1	NA	0.0000		9999	590	0	0	0
2020/09/04 22:37:00	BASE	1.34	52	1.70	48	-9.2	97	-9.6	0	0	1009.1	NA	0.0000		9999	620	0	0	0
2020/09/04 22:38:00	BASE	1.04	43	1.70	48	-9.2	97	-9.6	0	0	1009.1	NA	0.0000		9999	620	0	0	0
2020/09/04 22:39:00	BASE	0.40	36	1.70	48	-9.2	97	-9.6	0	0	1009.0	NA	0.0000		9999	620	0	0	0
2020/09/04 22:40:00	BASE	0.54	34	1.70	48	-9.2	97	-9.6	0	0	1009.0	NA	0.0000		9999	620	0	0	0
2020/09/04 22:41:00	BASE	1.20	35	1.70	48	-9.2	97	-9.6	0	0	1009.0	NA	0.0000		9999	660	0	0	0
2020/09/04 22:42:00	BASE	1.24	33	1.54	52	-9.2	97	-9.6	0	0	1009.0	NA	0.0000		9999	660	0	0	0
2020/09/04 22:43:00	BASE	1.06	22	1.59	11	-9.2	97	-9.5	0	0	1009.0	NA	0.0000		9999	620	0	0	0
2020/09/04 22:44:00	BASE	1.22	12	1.70	10	-9.2	98	-9.5	0	0	1008.9	NA	0.0000		9999	590	0	0	0
2020/09/04 22:45:00	BASE	1.44	7	1.70	10	-9.2	98	-9.5	0	0	1008.9	NA	0.0000		9999	560	0	0	0
2020/09/04 22:46:00	BASE	1.49	9	1.70	17	-9.2	98	-9.5	0	0	1008.9	NA	0.0000		9999	590	0	0	0
2020/09/04 22:47:00	BASE	1.59	4	1.80	354	-9.2	98	-9.5	0	0	1008.9	NA	0.0000		9999	560	0	0	0
2020/09/04 22:48:00	BASE	1.69	354	1.85	354	-9.2	98	-9.5	0	0	1009.0	NA	0.0000		9999	560	0	0	0
2020/09/04 22:49:00	BASE	1.81	353	2.01	2	-9.2	98	-9.5	0	0	1009.0	NA	0.0000		9999	560	0	0	0
2020/09/04 22:50:00	BASE	1.72	358	2.06	8	-9.2	98	-9.5	0	0	1009.0	NA	0.0000		9999	560	0	0	0
2020/09/04 22:51:00	BASE	1.84	5	2.26	12	-9.2	98	-9.5	0	0	1009.0	NA	0.0000		9999	560	0	0	0
2020/09/04 22:52:00	BASE	2.06	9	2.26	9	-9.2	98	-9.5	0	0	1009.0	NA	0.0000		9999	560	0	0	0
2020/09/04 22:53:00	BASE	1.87	11	2.26	9	-9.2	98	-9.5	0	0	1009.0	NA	0.0000		9999	520	0	0	0
2020/09/04 22:54:00	BASE	1.76	6	2.26	9	-9.2	98	-9.5	0	0	1009.0	NA	0.0000		9999	520	0	0	0
2020/09/04 22:55:00	BASE	1.61	4	2.26	9	-9.2	98	-9.5	0	0	1009.0	NA	0.0000		9999	490	0	0	0
2020/09/04 22:56:00	BASE	1.48	17	2.26	9	-9.2	98	-9.5	0	0	1009.0	NA	0.0000		9999	560	0	0	0
2020/09/04 22:57:00	BASE	1.47	32	2.26	9	-9.2	98	-9.5	0	0	1009.0	NA	0.0000		9999	590	0	0	0
2020/09/04 22:58:00	BASE	1.35	35	2.26	9	-9.2	98	-9.5	0	0	1009.1	NA	0.0000		9999	560	0	0	0
2020/09/04 22:59:00	BASE	1.39	28	2.26	9	-9.2	98	-9.5	0	0	1009.1	NA	0.0000		9999	520	0	0	0
2020/09/04 23:00:00	BASE	1.62	19	2.26	9	-9.2	98	-9.5	0	0	1009.1	NA	0.0000		9999	560	0	0	0
2020/09/04 23:01:00	BASE	1.59	18	2.26	9	-9.2	98	-9.5	0	0	1009.1	NA	0.0000		9999	560	0	0	0
2020/09/04 23:02:00	BASE	1.43	27	2.11	12	-9.2	98	-9.5	0	0	1009.0	NA	0.0000		9999	560	0	0	0
2020/09/04 23:03:00	BASE	1.83	29	2.31	22	-9.2	98	-9.5	0	0	1009.0	NA	0.0000		9999	560	0	0	0
2020/09/04 23:04:00	BASE	2.22	22	2.52	15	-9.2	98	-9.5	0	0	1009.0	NA	0.0000		9999	590	0	0	0
2020/09/04 23:05:00	BASE	2.32	15	2.62	10	-9.2	98	-9.5	0	0	1009.0	NA	0.0000		9999	590	0	0	0
2020/09/04 23:06:00	BASE	2.27	13	2.62	10	-9.2	98	-9.5	0	0	1009.0	NA	0.0000		9999	560	0	0	0
2020/09/04 23:07:00	BASE	2.23	17	2.62	17	-9.2	98	-9.5	0	0	1009.0	NA	0.0000		9999	560	0	0	0
2020/09/04 23:08:00	BASE	2.20	16	2.62	17	-9.2	98	-9.5	0	0	1009.0	NA	0.0000		9999	590	0	0	0
2020/09/04 23:09:00	BASE	1.93	12	2.62	17	-9.3	98	-9.5	0	0	1009.0	NA	0.0000		9999	590	0	0	0
2020/09/04 23:10:00	BASE	1.65	7	2.62	17	-9.2	98	-9.5	0	0	1009.0	NA	0.0000		9999	590	0	0	0
2020/09/04 23:11:00	BASE	1.58	7	2.62	17	-9.2	98	-9.5	0	0	1009.0	NA	0.0000		9999	590	0	0	0
2020/09/04 23:12:00	BASE	1.68	10	2.62	17	-9.3	99	-9.4	0	0	1009.0	NA	0.0000		9999	590	0	0	0
2020/09/04 23:13:00	BASE	1.84	10	2.62	17	-9.3	99	-9.4	0	0	1009.0	NA	0.0000		9999	620	0	0	0
2020/09/04 23:14:00	BASE	2.00	8	2.62	17	-9.3	99	-9.4	0	0	1009.0	NA	0.0000		9999	590	0	0	0
2020/09/04 23:15:00	BASE	2.11	5	2.83	244	-9.3	99	-9.4	0	0	1008.9	NA	0.0000		9999	620	0	0	0
2020/09/04 23:16:00	BASE	2.21	357	2.83	244	-9.3	99	-9.4	0	0	1008.9	NA	0.0000		9999	620	0	0	0
2020/09/04 23:17:00	BASE	2.10	357	2.83	244	-9.3	99	-9.4	0	0	1008.9	NA	0.0000		9999	620	0	0	0
2020/09/04 23:18:00	BASE	2.06	3	2.83	244	-9.3	99	-9.4	0	0	1008.9	NA	0.0000		9999	560	0	0	0
2020/09/04 23:19:00	BASE	2.08	6	2.83	244	-9.3	99	-9.4	0	0	1008.8	NA	0.0000		9999	520	0	0	0
2020/09/04 23:20:00	BASE	2.13	6	2.83	244	-9.3	99	-9.4	0	0	1008.8	NA	0.0000		9999	560	0	0	0
2020/09/04 23:21:00	BASE	2.23	10	2.83	244	-9.3	99	-9.4	0	0	1008.8	NA	0.0000		9999	590	0	0	0
2020/09/04 23:22:00	BASE	2.23	10	2.83	244	-9.3	99	-9.5	0	0	1008.8	NA	0.0000		9999	560	0	0	0
2020/09/04 23:23:00	BASE	2.12	5	2.83	244	-9.4	99	-9.5	0	0	1008.8	NA	0.0000		9999	590	0	0	0
2020/09/04 23:24:00	BASE	1.94	4	2.83	244	-9.4	99	-9.5	0	0	1008.9	NA	0.0000		9999	620	0	0	0
2020/09/04 23:25:00	BASE	2.09	5	2.68	8	-9.4	99	-9.5	0	0	1008.9	NA	0.0000		9999	590	0	0	0
2020/09/04 23:26:00	BASE	2.46	2	2.78	2	-9.4	99	-9.5	0	0	1008.9	NA	0.0000		9999	590	0	0	0
2020/09/04 23:27:00	BASE	2.52	0	2.78	1	-9.4	99	-9.5	0	0	1009.0	NA	0.0000		9999	590	0	0	0
2020/09/04 23:28:00	BASE	2.57	7	2.98	6	-9.4	99	-9.5	0	0	1009.0	NA	0.0000		9999	560	0	0	0
2020/09/04 23:29:00	BASE	2.66	10	2.98	6	-9.4	99	-9.5	0	0	1008.9	NA	0.0000		9999	590	0	0	0
2020/09/04 23:30:00	BASE	2.65	7	2.98	6	-9.4	99	-9.5	0	0	1008.9	NA	0.0000		9999	620	0	0	0
2020/09/04 23:31:00	BASE	2.70	0	2.98	6	-9.4	99	-9.5	0	0	1008.9	NA	0.0000		9999	560	0	0	0
2020/09/04 23:32:00	BASE	2.23	354	2.98	6	-9.4	99	-9.5	0	0	1008.9	NA	0.0000		9999	560	0	0	0
2020/09/04 23:33:00	BASE	1.54	3	2.98	6	-9.4	99	-9.5	0	0	1008.9	NA	0.0000		9999	490	0	0	0
2020/09/04 23:34:00	BASE	1.44	11	2.98	6	-9.4	99	-9.5	0	0	1008.9	NA	0.0000		9999	520	0	0	0
2020/09/04 23:35:00	BASE	1.62	9	2.98	6	-9.4	99	-9.5	0	0	1008.9	NA	0.0000		9999	560	0	0	0
2020/09/04 23:36:00	BASE	1.62	358	2.98	6	-9.4	99	-9.5	0	0	1008.8	NA	0.0000		9999	560	0	0	0
2020/09/04 23:37:00	BASE	1.47	346	2.98	6	-9.4	99	-9.5	0	0	1008.8	NA	0.0000		9999	520	0	0	0
2020/09/04 23:38:00	BASE	0.80	342	2.93	9	-9.3	99	-9.5	0	0	1008.9	NA	0.0000		9999	490	0	0	0
2020/09/04 23:39:00	BASE	0.44	350	2.93	9	-9.3	99	-9.5	0	0	1008.9	NA	0.0000		9999	520	0	0	0
2020/09/04 23:40:00	BASE	0.76	5	2.93	9	-9.3	99	-9.4	0	0	1008.9	NA	0.0000		9999	520	0	0	0
2020/09/04 23:41:00	BASE	0.72	1	2.42	360	-9.3	99	-9.5	0	0	1008.9	NA	0.0000		9999	520	0	0	0
2020/09/04 23:42:00	BASE	0.38	355	2.42	360	-9.3	99	-9.5	0	0	1009.0	NA	0.0000		9999	560	0	0	0
2020/09/04 23:43:00	BASE	0.23	343	2.42	360	-9.3	99	-9.4	0	0	1009.0	NA	0.0000		9999	660	0	0	0
2020/09/04 23:44:00	BASE	0.46	337	2.42	360	-9.3	99	-9.4	0	0	1009.0	NA	0.0000		9999	590	0	0	0
2020/09/04 23:45:00	BASE	1.05	337	2.11	341	-9.3	99	-9.4	0	0	1009.0	NA	0.0000		9999	520	0	0	0
2020/09/04 23:46:00	BASE	1.64	318	2.31	294	-9.3	100	-9.4	0	0	1009.0	NA	0.0000		9999	460	0	0	0
2020/09/04 23:47:00	BASE	1.75	301	2.31	294	-9.3	100	-9.3	0	0	1009.0	NA	0.0000		9999	690	0	0	0
2020/09/04 23:48:00	BASE	1.24	289	2.31	294	-9.3	100	-9.3	0	0	1009.0	NA	0.0000		9999	590	0	0	0
2020/09/04 23:49:00	BASE	0.98	292	2.31	294	-9.3	100	-9.4	0	0	1009.0	NA	0.0000		9999	590	0	0	0
2020/09/04 23:50:00	BASE	1.30	300	2.31	294	-9.4	100	-9.4	0	0	1009.0	NA	0.0000		9999	790	0	0	0
2020/09/04 23:51:00	BASE	1.27	291	2.31	294	-9.4	100	-9.4	0	0	1009.0	NA	0.0000		9999	590	0	0	0
2020/09/04 23:52:00	BASE	0.54	265	2.31	294	-9.4	100	-9.4	0	0	1009.0	NA	0.0000		9999	560	0	0	0
2020/09/04 23:53:00	BASE	0.19	243	2.31	294	-9.4	100	-9.4	0	0	1009.0	NA	0.0000		9999	720	0	0	0
2020/09/04 23:54:00	BASE	0.27	234	2.31	294	-9.4	100	-9.4	0	0	1009.0	NA	0.0000		9999	750	0	0	0
2020/09/04 23:55:00	BASE	0.09	247	2.31	294	-9.4	100	-9.4	0	0	1009.0	NA	0.0000		9999	790	0	0	0
2020/09/04 23:56:00	BASE	0.00	274	2.06	290	-9.4	100	-9.4	0	0	1009.0	NA	0.0000		9999	660	0	0	0
2020/09/04 23:57:00	BASE	0.13	316	1.80	311	-9.4	100	-9.4	0	0	1009.0	NA	0.0000		9999	690	0	0	0
2020/09/04 23:58:00	BASE	0.51	1	1.80	311	-9.5	100	-9.5	0	0	1009.0	NA	0.0000		9999	690	0	0	0
2020/09/04 23:59:00	BASE	0.85	9	1.80	311	-9.7	100	-9.7	0	0	1009.0	NA	0.0000		9999	590	1180	0	0